<?xml version="1.0" encoding="UTF-8" standalone="no" ?>
<gpx xmlns="http://www.topografix.com/GPX/1/1" xmlns:xsi="http://www.w3.org/2001/XMLSchema-instance" xsi:schemaLocation="http://www.topografix.com/GPX/1/1 http://www.topografix.com/GPX/1/1/gpx.xsd" version="1.1" creator="VisuGPX - https://www.visugpx.com">
  <metadata>
    <name>Balade dans le Risoux (livre d\'or, chalet rose, chaux sêche...)</name>
    <desc><![CDATA[Une petite virée dans le Risoux. 
Vous découvrirez successivement : le livre d\'or du Risoux, la fontaine des Auges, la croix du tronc, chalet Rose, Chaux Sêche, chalet Gaillard et enfin la roche Bernard.
Parcours assez facile, mais technique sur la partie terminale.]]></desc>
  </metadata>
  <trk>
    <name><![CDATA[Chemin Seraphin]]></name>
    <trkseg>
      <trkpt lat="46.55422" lon="6.08594">
        <ele>1211.88</ele>
        <time>2012-05-25T09:59:29Z</time>
      </trkpt>
      <trkpt lat="46.55418" lon="6.08597">
        <ele>1211.4</ele>
        <time>2012-05-25T09:59:33Z</time>
      </trkpt>
      <trkpt lat="46.5541" lon="6.08623">
        <ele>1211.4</ele>
        <time>2012-05-25T09:59:46Z</time>
      </trkpt>
      <trkpt lat="46.55409" lon="6.08626">
        <ele>1207.55</ele>
        <time>2012-05-25T09:59:47Z</time>
      </trkpt>
      <trkpt lat="46.55408" lon="6.08628">
        <ele>1212.36</ele>
        <time>2012-05-25T09:59:48Z</time>
      </trkpt>
      <trkpt lat="46.55386" lon="6.08656">
        <ele>1209</ele>
        <time>2012-05-25T10:00:00Z</time>
      </trkpt>
      <trkpt lat="46.55383" lon="6.08658">
        <ele>1213.32</ele>
        <time>2012-05-25T10:00:01Z</time>
      </trkpt>
      <trkpt lat="46.55381" lon="6.08661">
        <ele>1208.03</ele>
        <time>2012-05-25T10:00:02Z</time>
      </trkpt>
      <trkpt lat="46.55378" lon="6.08663">
        <ele>1214.28</ele>
        <time>2012-05-25T10:00:03Z</time>
      </trkpt>
      <trkpt lat="46.55367" lon="6.08679">
        <ele>1212.84</ele>
        <time>2012-05-25T10:00:08Z</time>
      </trkpt>
      <trkpt lat="46.55364" lon="6.08683">
        <ele>1211.4</ele>
        <time>2012-05-25T10:00:09Z</time>
      </trkpt>
      <trkpt lat="46.55361" lon="6.08686">
        <ele>1206.11</ele>
        <time>2012-05-25T10:00:10Z</time>
      </trkpt>
      <trkpt lat="46.55357" lon="6.08689">
        <ele>1215.24</ele>
        <time>2012-05-25T10:00:11Z</time>
      </trkpt>
      <trkpt lat="46.55354" lon="6.08692">
        <ele>1211.88</ele>
        <time>2012-05-25T10:00:12Z</time>
      </trkpt>
      <trkpt lat="46.55348" lon="6.08698">
        <ele>1206.59</ele>
        <time>2012-05-25T10:00:14Z</time>
      </trkpt>
      <trkpt lat="46.55345" lon="6.08701">
        <ele>1212.84</ele>
        <time>2012-05-25T10:00:15Z</time>
      </trkpt>
      <trkpt lat="46.55336" lon="6.08706">
        <ele>1212.36</ele>
        <time>2012-05-25T10:00:17Z</time>
      </trkpt>
      <trkpt lat="46.55331" lon="6.08708">
        <ele>1211.4</ele>
        <time>2012-05-25T10:00:18Z</time>
      </trkpt>
      <trkpt lat="46.55325" lon="6.08709">
        <ele>1209.48</ele>
        <time>2012-05-25T10:00:19Z</time>
      </trkpt>
      <trkpt lat="46.5532" lon="6.0871">
        <ele>1209.96</ele>
        <time>2012-05-25T10:00:20Z</time>
      </trkpt>
      <trkpt lat="46.55314" lon="6.0871">
        <ele>1209.48</ele>
        <time>2012-05-25T10:00:21Z</time>
      </trkpt>
      <trkpt lat="46.55307" lon="6.08709">
        <ele>1209</ele>
        <time>2012-05-25T10:00:22Z</time>
      </trkpt>
      <trkpt lat="46.553" lon="6.08711">
        <ele>1208.51</ele>
        <time>2012-05-25T10:00:23Z</time>
      </trkpt>
      <trkpt lat="46.55293" lon="6.08713">
        <ele>1208.51</ele>
        <time>2012-05-25T10:00:24Z</time>
      </trkpt>
      <trkpt lat="46.55286" lon="6.08718">
        <ele>1207.55</ele>
        <time>2012-05-25T10:00:25Z</time>
      </trkpt>
      <trkpt lat="46.55278" lon="6.08723">
        <ele>1208.03</ele>
        <time>2012-05-25T10:00:26Z</time>
      </trkpt>
      <trkpt lat="46.55271" lon="6.08729">
        <ele>1205.63</ele>
        <time>2012-05-25T10:00:27Z</time>
      </trkpt>
      <trkpt lat="46.55245" lon="6.08752">
        <ele>1207.07</ele>
        <time>2012-05-25T10:00:31Z</time>
      </trkpt>
      <trkpt lat="46.55239" lon="6.08757">
        <ele>1208.03</ele>
        <time>2012-05-25T10:00:32Z</time>
      </trkpt>
      <trkpt lat="46.55219" lon="6.08772">
        <ele>1207.07</ele>
        <time>2012-05-25T10:00:36Z</time>
      </trkpt>
      <trkpt lat="46.55214" lon="6.08774">
        <ele>1207.55</ele>
        <time>2012-05-25T10:00:37Z</time>
      </trkpt>
      <trkpt lat="46.5521" lon="6.08775">
        <ele>1208.51</ele>
        <time>2012-05-25T10:00:38Z</time>
      </trkpt>
      <trkpt lat="46.55201" lon="6.08778">
        <ele>1207.55</ele>
        <time>2012-05-25T10:00:40Z</time>
      </trkpt>
      <trkpt lat="46.55197" lon="6.08778">
        <ele>1207.55</ele>
        <time>2012-05-25T10:00:41Z</time>
      </trkpt>
      <trkpt lat="46.55161" lon="6.08774">
        <ele>1207.55</ele>
        <time>2012-05-25T10:00:49Z</time>
      </trkpt>
      <trkpt lat="46.55144" lon="6.08773">
        <ele>1207.55</ele>
        <time>2012-05-25T10:00:52Z</time>
      </trkpt>
      <trkpt lat="46.55139" lon="6.08775">
        <ele>1207.07</ele>
        <time>2012-05-25T10:00:53Z</time>
      </trkpt>
      <trkpt lat="46.55134" lon="6.08778">
        <ele>1207.07</ele>
        <time>2012-05-25T10:00:54Z</time>
      </trkpt>
      <trkpt lat="46.55129" lon="6.08782">
        <ele>1207.07</ele>
        <time>2012-05-25T10:00:55Z</time>
      </trkpt>
      <trkpt lat="46.55125" lon="6.08786">
        <ele>1206.59</ele>
        <time>2012-05-25T10:00:56Z</time>
      </trkpt>
      <trkpt lat="46.55116" lon="6.08795">
        <ele>1206.59</ele>
        <time>2012-05-25T10:00:58Z</time>
      </trkpt>
      <trkpt lat="46.55104" lon="6.08811">
        <ele>1207.07</ele>
        <time>2012-05-25T10:01:01Z</time>
      </trkpt>
      <trkpt lat="46.55099" lon="6.08814">
        <ele>1207.07</ele>
        <time>2012-05-25T10:01:02Z</time>
      </trkpt>
      <trkpt lat="46.55095" lon="6.08816">
        <ele>1206.59</ele>
        <time>2012-05-25T10:01:03Z</time>
      </trkpt>
      <trkpt lat="46.55071" lon="6.08819">
        <ele>1206.59</ele>
        <time>2012-05-25T10:01:08Z</time>
      </trkpt>
      <trkpt lat="46.55039" lon="6.08824">
        <ele>1206.59</ele>
        <time>2012-05-25T10:01:14Z</time>
      </trkpt>
      <trkpt lat="46.5503" lon="6.08828">
        <ele>1207.07</ele>
        <time>2012-05-25T10:01:16Z</time>
      </trkpt>
      <trkpt lat="46.55014" lon="6.08841">
        <ele>1209</ele>
        <time>2012-05-25T10:01:21Z</time>
      </trkpt>
      <trkpt lat="46.55008" lon="6.0885">
        <ele>1209.48</ele>
        <time>2012-05-25T10:01:25Z</time>
      </trkpt>
      <trkpt lat="46.55007" lon="6.08851">
        <ele>1209</ele>
        <time>2012-05-25T10:01:26Z</time>
      </trkpt>
      <trkpt lat="46.55006" lon="6.08852">
        <ele>1208.51</ele>
        <time>2012-05-25T10:01:27Z</time>
      </trkpt>
      <trkpt lat="46.55005" lon="6.08853">
        <ele>1209.48</ele>
        <time>2012-05-25T10:01:28Z</time>
      </trkpt>
      <trkpt lat="46.55003" lon="6.08854">
        <ele>1209</ele>
        <time>2012-05-25T10:01:29Z</time>
      </trkpt>
      <trkpt lat="46.55002" lon="6.08855">
        <ele>1208.03</ele>
        <time>2012-05-25T10:01:35Z</time>
      </trkpt>
      <trkpt lat="46.55002" lon="6.08858">
        <ele>1212.36</ele>
        <time>2012-05-25T10:02:18Z</time>
      </trkpt>
      <trkpt lat="46.55002" lon="6.08858">
        <ele>1212.84</ele>
        <time>2012-05-25T10:02:20Z</time>
      </trkpt>
      <trkpt lat="46.55002" lon="6.08858">
        <ele>1215.72</ele>
        <time>2012-05-25T10:02:31Z</time>
      </trkpt>
      <trkpt lat="46.55002" lon="6.08858">
        <ele>1219.09</ele>
        <time>2012-05-25T10:02:46Z</time>
      </trkpt>
      <trkpt lat="46.55004" lon="6.08861">
        <ele>1219.57</ele>
        <time>2012-05-25T10:02:57Z</time>
      </trkpt>
      <trkpt lat="46.55004" lon="6.08861">
        <ele>1221.01</ele>
        <time>2012-05-25T10:03:13Z</time>
      </trkpt>
      <trkpt lat="46.55004" lon="6.08861">
        <ele>1220.53</ele>
        <time>2012-05-25T10:03:21Z</time>
      </trkpt>
      <trkpt lat="46.55001" lon="6.08865">
        <ele>1220.53</ele>
        <time>2012-05-25T10:04:13Z</time>
      </trkpt>
      <trkpt lat="46.55" lon="6.08865">
        <ele>1213.32</ele>
        <time>2012-05-25T10:04:14Z</time>
      </trkpt>
      <trkpt lat="46.54998" lon="6.08865">
        <ele>1220.05</ele>
        <time>2012-05-25T10:04:15Z</time>
      </trkpt>
      <trkpt lat="46.54997" lon="6.08865">
        <ele>1220.05</ele>
        <time>2012-05-25T10:04:16Z</time>
      </trkpt>
      <trkpt lat="46.54995" lon="6.08863">
        <ele>1220.53</ele>
        <time>2012-05-25T10:04:17Z</time>
      </trkpt>
      <trkpt lat="46.54995" lon="6.0886">
        <ele>1219.57</ele>
        <time>2012-05-25T10:04:18Z</time>
      </trkpt>
      <trkpt lat="46.54994" lon="6.08857">
        <ele>1219.57</ele>
        <time>2012-05-25T10:04:19Z</time>
      </trkpt>
      <trkpt lat="46.54987" lon="6.08842">
        <ele>1221.01</ele>
        <time>2012-05-25T10:04:24Z</time>
      </trkpt>
      <trkpt lat="46.54977" lon="6.08822">
        <ele>1222.45</ele>
        <time>2012-05-25T10:04:40Z</time>
      </trkpt>
      <trkpt lat="46.54977" lon="6.0882">
        <ele>1224.86</ele>
        <time>2012-05-25T10:04:41Z</time>
      </trkpt>
      <trkpt lat="46.54972" lon="6.08788">
        <ele>1226.78</ele>
        <time>2012-05-25T10:04:56Z</time>
      </trkpt>
      <trkpt lat="46.54971" lon="6.08781">
        <ele>1225.82</ele>
        <time>2012-05-25T10:04:59Z</time>
      </trkpt>
      <trkpt lat="46.54967" lon="6.08758">
        <ele>1226.78</ele>
        <time>2012-05-25T10:05:10Z</time>
      </trkpt>
      <trkpt lat="46.54965" lon="6.08735">
        <ele>1226.3</ele>
        <time>2012-05-25T10:05:23Z</time>
      </trkpt>
      <trkpt lat="46.54964" lon="6.08719">
        <ele>1226.78</ele>
        <time>2012-05-25T10:05:35Z</time>
      </trkpt>
      <trkpt lat="46.54964" lon="6.0869">
        <ele>1227.74</ele>
        <time>2012-05-25T10:05:48Z</time>
      </trkpt>
      <trkpt lat="46.54964" lon="6.08672">
        <ele>1228.7</ele>
        <time>2012-05-25T10:06:01Z</time>
      </trkpt>
      <trkpt lat="46.54967" lon="6.08664">
        <ele>1227.74</ele>
        <time>2012-05-25T10:06:07Z</time>
      </trkpt>
      <trkpt lat="46.54974" lon="6.08646">
        <ele>1229.18</ele>
        <time>2012-05-25T10:06:16Z</time>
      </trkpt>
      <trkpt lat="46.54984" lon="6.08615">
        <ele>1229.66</ele>
        <time>2012-05-25T10:06:26Z</time>
      </trkpt>
      <trkpt lat="46.5499" lon="6.08583">
        <ele>1230.14</ele>
        <time>2012-05-25T10:06:36Z</time>
      </trkpt>
      <trkpt lat="46.54992" lon="6.08573">
        <ele>1230.14</ele>
        <time>2012-05-25T10:06:40Z</time>
      </trkpt>
      <trkpt lat="46.54994" lon="6.08554">
        <ele>1230.62</ele>
        <time>2012-05-25T10:06:49Z</time>
      </trkpt>
      <trkpt lat="46.54995" lon="6.08533">
        <ele>1231.59</ele>
        <time>2012-05-25T10:06:57Z</time>
      </trkpt>
      <trkpt lat="46.54994" lon="6.08496">
        <ele>1231.59</ele>
        <time>2012-05-25T10:07:10Z</time>
      </trkpt>
      <trkpt lat="46.54993" lon="6.08463">
        <ele>1232.07</ele>
        <time>2012-05-25T10:07:23Z</time>
      </trkpt>
      <trkpt lat="46.54989" lon="6.08451">
        <ele>1233.03</ele>
        <time>2012-05-25T10:07:29Z</time>
      </trkpt>
      <trkpt lat="46.54984" lon="6.08436">
        <ele>1232.07</ele>
        <time>2012-05-25T10:07:34Z</time>
      </trkpt>
      <trkpt lat="46.54962" lon="6.0841">
        <ele>1233.99</ele>
        <time>2012-05-25T10:07:48Z</time>
      </trkpt>
      <trkpt lat="46.5495" lon="6.08401">
        <ele>1235.91</ele>
        <time>2012-05-25T10:07:56Z</time>
      </trkpt>
      <trkpt lat="46.54929" lon="6.084">
        <ele>1239.28</ele>
        <time>2012-05-25T10:08:07Z</time>
      </trkpt>
      <trkpt lat="46.54906" lon="6.08399">
        <ele>1238.32</ele>
        <time>2012-05-25T10:08:19Z</time>
      </trkpt>
      <trkpt lat="46.54875" lon="6.08396">
        <ele>1238.8</ele>
        <time>2012-05-25T10:08:32Z</time>
      </trkpt>
      <trkpt lat="46.54858" lon="6.08399">
        <ele>1238.32</ele>
        <time>2012-05-25T10:08:38Z</time>
      </trkpt>
      <trkpt lat="46.54844" lon="6.08403">
        <ele>1240.72</ele>
        <time>2012-05-25T10:08:43Z</time>
      </trkpt>
      <trkpt lat="46.54839" lon="6.08404">
        <ele>1239.28</ele>
        <time>2012-05-25T10:08:46Z</time>
      </trkpt>
      <trkpt lat="46.54829" lon="6.08412">
        <ele>1240.24</ele>
        <time>2012-05-25T10:09:00Z</time>
      </trkpt>
      <trkpt lat="46.54821" lon="6.08415">
        <ele>1240.24</ele>
        <time>2012-05-25T10:09:09Z</time>
      </trkpt>
      <trkpt lat="46.54815" lon="6.08423">
        <ele>1240.72</ele>
        <time>2012-05-25T10:09:13Z</time>
      </trkpt>
      <trkpt lat="46.54779" lon="6.08447">
        <ele>1239.76</ele>
        <time>2012-05-25T10:09:25Z</time>
      </trkpt>
      <trkpt lat="46.54743" lon="6.08475">
        <ele>1240.24</ele>
        <time>2012-05-25T10:09:37Z</time>
      </trkpt>
      <trkpt lat="46.54741" lon="6.08476">
        <ele>1240.24</ele>
        <time>2012-05-25T10:09:49Z</time>
      </trkpt>
      <trkpt lat="46.54741" lon="6.08476">
        <ele>1239.28</ele>
        <time>2012-05-25T10:10:03Z</time>
      </trkpt>
      <trkpt lat="46.54741" lon="6.08476">
        <ele>1238.32</ele>
        <time>2012-05-25T10:10:16Z</time>
      </trkpt>
      <trkpt lat="46.54739" lon="6.08477">
        <ele>1238.32</ele>
        <time>2012-05-25T10:10:17Z</time>
      </trkpt>
      <trkpt lat="46.54737" lon="6.08479">
        <ele>1239.76</ele>
        <time>2012-05-25T10:10:18Z</time>
      </trkpt>
      <trkpt lat="46.54735" lon="6.08481">
        <ele>1237.35</ele>
        <time>2012-05-25T10:10:19Z</time>
      </trkpt>
      <trkpt lat="46.54733" lon="6.08483">
        <ele>1238.32</ele>
        <time>2012-05-25T10:10:20Z</time>
      </trkpt>
      <trkpt lat="46.54721" lon="6.08497">
        <ele>1237.83</ele>
        <time>2012-05-25T10:10:29Z</time>
      </trkpt>
      <trkpt lat="46.5472" lon="6.08496">
        <ele>1237.35</ele>
        <time>2012-05-25T10:10:31Z</time>
      </trkpt>
      <trkpt lat="46.54709" lon="6.08495">
        <ele>1236.39</ele>
        <time>2012-05-25T10:10:35Z</time>
      </trkpt>
      <trkpt lat="46.54706" lon="6.08493">
        <ele>1237.83</ele>
        <time>2012-05-25T10:10:36Z</time>
      </trkpt>
      <trkpt lat="46.54704" lon="6.08491">
        <ele>1238.8</ele>
        <time>2012-05-25T10:10:37Z</time>
      </trkpt>
      <trkpt lat="46.54702" lon="6.0849">
        <ele>1238.32</ele>
        <time>2012-05-25T10:10:38Z</time>
      </trkpt>
      <trkpt lat="46.54682" lon="6.0848">
        <ele>1241.68</ele>
        <time>2012-05-25T10:10:46Z</time>
      </trkpt>
      <trkpt lat="46.5468" lon="6.08479">
        <ele>1242.16</ele>
        <time>2012-05-25T10:10:47Z</time>
      </trkpt>
      <trkpt lat="46.54678" lon="6.08478">
        <ele>1242.64</ele>
        <time>2012-05-25T10:10:48Z</time>
      </trkpt>
      <trkpt lat="46.54669" lon="6.08478">
        <ele>1244.08</ele>
        <time>2012-05-25T10:10:52Z</time>
      </trkpt>
      <trkpt lat="46.54667" lon="6.08477">
        <ele>1244.08</ele>
        <time>2012-05-25T10:10:53Z</time>
      </trkpt>
      <trkpt lat="46.54665" lon="6.08477">
        <ele>1243.6</ele>
        <time>2012-05-25T10:10:54Z</time>
      </trkpt>
      <trkpt lat="46.54663" lon="6.08476">
        <ele>1243.12</ele>
        <time>2012-05-25T10:10:55Z</time>
      </trkpt>
      <trkpt lat="46.54662" lon="6.08474">
        <ele>1244.56</ele>
        <time>2012-05-25T10:10:56Z</time>
      </trkpt>
      <trkpt lat="46.54661" lon="6.08473">
        <ele>1245.04</ele>
        <time>2012-05-25T10:10:57Z</time>
      </trkpt>
      <trkpt lat="46.5466" lon="6.08472">
        <ele>1244.56</ele>
        <time>2012-05-25T10:10:58Z</time>
      </trkpt>
      <trkpt lat="46.54656" lon="6.08468">
        <ele>1245.53</ele>
        <time>2012-05-25T10:11:02Z</time>
      </trkpt>
      <trkpt lat="46.54655" lon="6.08466">
        <ele>1244.56</ele>
        <time>2012-05-25T10:11:03Z</time>
      </trkpt>
      <trkpt lat="46.54653" lon="6.08465">
        <ele>1244.56</ele>
        <time>2012-05-25T10:11:04Z</time>
      </trkpt>
      <trkpt lat="46.54651" lon="6.08465">
        <ele>1245.04</ele>
        <time>2012-05-25T10:11:05Z</time>
      </trkpt>
      <trkpt lat="46.54649" lon="6.08464">
        <ele>1245.53</ele>
        <time>2012-05-25T10:11:06Z</time>
      </trkpt>
      <trkpt lat="46.54623" lon="6.08453">
        <ele>1244.08</ele>
        <time>2012-05-25T10:11:18Z</time>
      </trkpt>
      <trkpt lat="46.54606" lon="6.08444">
        <ele>1246.49</ele>
        <time>2012-05-25T10:11:27Z</time>
      </trkpt>
      <trkpt lat="46.54603" lon="6.0844">
        <ele>1247.45</ele>
        <time>2012-05-25T10:11:29Z</time>
      </trkpt>
      <trkpt lat="46.546" lon="6.08437">
        <ele>1247.45</ele>
        <time>2012-05-25T10:11:31Z</time>
      </trkpt>
      <trkpt lat="46.54598" lon="6.08436">
        <ele>1246.97</ele>
        <time>2012-05-25T10:11:32Z</time>
      </trkpt>
      <trkpt lat="46.54595" lon="6.08436">
        <ele>1246.97</ele>
        <time>2012-05-25T10:11:33Z</time>
      </trkpt>
      <trkpt lat="46.54593" lon="6.08437">
        <ele>1248.41</ele>
        <time>2012-05-25T10:11:34Z</time>
      </trkpt>
      <trkpt lat="46.54591" lon="6.08437">
        <ele>1247.93</ele>
        <time>2012-05-25T10:11:35Z</time>
      </trkpt>
      <trkpt lat="46.54589" lon="6.08438">
        <ele>1247.93</ele>
        <time>2012-05-25T10:11:36Z</time>
      </trkpt>
      <trkpt lat="46.54587" lon="6.08438">
        <ele>1247.93</ele>
        <time>2012-05-25T10:11:37Z</time>
      </trkpt>
      <trkpt lat="46.54586" lon="6.08438">
        <ele>1248.41</ele>
        <time>2012-05-25T10:11:38Z</time>
      </trkpt>
      <trkpt lat="46.54583" lon="6.08438">
        <ele>1248.89</ele>
        <time>2012-05-25T10:11:39Z</time>
      </trkpt>
      <trkpt lat="46.54569" lon="6.08446">
        <ele>1248.89</ele>
        <time>2012-05-25T10:11:47Z</time>
      </trkpt>
      <trkpt lat="46.54566" lon="6.08447">
        <ele>1248.41</ele>
        <time>2012-05-25T10:12:00Z</time>
      </trkpt>
      <trkpt lat="46.54561" lon="6.0845">
        <ele>1248.41</ele>
        <time>2012-05-25T10:12:05Z</time>
      </trkpt>
      <trkpt lat="46.54559" lon="6.08451">
        <ele>1247.93</ele>
        <time>2012-05-25T10:12:06Z</time>
      </trkpt>
      <trkpt lat="46.54557" lon="6.08453">
        <ele>1248.89</ele>
        <time>2012-05-25T10:12:07Z</time>
      </trkpt>
      <trkpt lat="46.54556" lon="6.08455">
        <ele>1246.97</ele>
        <time>2012-05-25T10:12:08Z</time>
      </trkpt>
      <trkpt lat="46.54555" lon="6.08457">
        <ele>1246.97</ele>
        <time>2012-05-25T10:12:09Z</time>
      </trkpt>
      <trkpt lat="46.54546" lon="6.08472">
        <ele>1249.37</ele>
        <time>2012-05-25T10:12:15Z</time>
      </trkpt>
      <trkpt lat="46.54545" lon="6.08474">
        <ele>1249.85</ele>
        <time>2012-05-25T10:12:16Z</time>
      </trkpt>
      <trkpt lat="46.54531" lon="6.08514">
        <ele>1249.37</ele>
        <time>2012-05-25T10:12:28Z</time>
      </trkpt>
      <trkpt lat="46.54526" lon="6.08526">
        <ele>1250.33</ele>
        <time>2012-05-25T10:12:34Z</time>
      </trkpt>
      <trkpt lat="46.54525" lon="6.08527">
        <ele>1250.33</ele>
        <time>2012-05-25T10:12:35Z</time>
      </trkpt>
      <trkpt lat="46.54523" lon="6.08528">
        <ele>1250.33</ele>
        <time>2012-05-25T10:12:36Z</time>
      </trkpt>
      <trkpt lat="46.54522" lon="6.08528">
        <ele>1249.37</ele>
        <time>2012-05-25T10:12:37Z</time>
      </trkpt>
      <trkpt lat="46.54518" lon="6.08529">
        <ele>1250.33</ele>
        <time>2012-05-25T10:12:40Z</time>
      </trkpt>
      <trkpt lat="46.54511" lon="6.08544">
        <ele>1251.29</ele>
        <time>2012-05-25T10:12:53Z</time>
      </trkpt>
      <trkpt lat="46.54504" lon="6.08553">
        <ele>1250.81</ele>
        <time>2012-05-25T10:12:59Z</time>
      </trkpt>
      <trkpt lat="46.54503" lon="6.08555">
        <ele>1250.33</ele>
        <time>2012-05-25T10:13:00Z</time>
      </trkpt>
      <trkpt lat="46.545" lon="6.08557">
        <ele>1250.81</ele>
        <time>2012-05-25T10:13:03Z</time>
      </trkpt>
      <trkpt lat="46.54499" lon="6.08558">
        <ele>1250.81</ele>
        <time>2012-05-25T10:13:04Z</time>
      </trkpt>
      <trkpt lat="46.54497" lon="6.0856">
        <ele>1250.81</ele>
        <time>2012-05-25T10:13:05Z</time>
      </trkpt>
      <trkpt lat="46.54495" lon="6.08563">
        <ele>1250.33</ele>
        <time>2012-05-25T10:13:06Z</time>
      </trkpt>
      <trkpt lat="46.54494" lon="6.08565">
        <ele>1250.33</ele>
        <time>2012-05-25T10:13:07Z</time>
      </trkpt>
      <trkpt lat="46.54471" lon="6.08588">
        <ele>1247.93</ele>
        <time>2012-05-25T10:13:15Z</time>
      </trkpt>
      <trkpt lat="46.54431" lon="6.08617">
        <ele>1248.89</ele>
        <time>2012-05-25T10:13:25Z</time>
      </trkpt>
      <trkpt lat="46.54411" lon="6.08633">
        <ele>1248.41</ele>
        <time>2012-05-25T10:13:37Z</time>
      </trkpt>
      <trkpt lat="46.54407" lon="6.08634">
        <ele>1248.41</ele>
        <time>2012-05-25T10:13:40Z</time>
      </trkpt>
      <trkpt lat="46.54402" lon="6.08634">
        <ele>1247.93</ele>
        <time>2012-05-25T10:13:45Z</time>
      </trkpt>
      <trkpt lat="46.54401" lon="6.08635">
        <ele>1247.45</ele>
        <time>2012-05-25T10:13:46Z</time>
      </trkpt>
      <trkpt lat="46.5439" lon="6.0866">
        <ele>1247.45</ele>
        <time>2012-05-25T10:13:58Z</time>
      </trkpt>
      <trkpt lat="46.54383" lon="6.08669">
        <ele>1247.45</ele>
        <time>2012-05-25T10:14:05Z</time>
      </trkpt>
      <trkpt lat="46.54381" lon="6.08669">
        <ele>1247.93</ele>
        <time>2012-05-25T10:14:06Z</time>
      </trkpt>
      <trkpt lat="46.54351" lon="6.08683">
        <ele>1248.89</ele>
        <time>2012-05-25T10:14:19Z</time>
      </trkpt>
      <trkpt lat="46.54348" lon="6.08684">
        <ele>1249.37</ele>
        <time>2012-05-25T10:14:20Z</time>
      </trkpt>
      <trkpt lat="46.54345" lon="6.08685">
        <ele>1249.37</ele>
        <time>2012-05-25T10:14:21Z</time>
      </trkpt>
      <trkpt lat="46.54342" lon="6.08686">
        <ele>1248.41</ele>
        <time>2012-05-25T10:14:22Z</time>
      </trkpt>
      <trkpt lat="46.54324" lon="6.08687">
        <ele>1246.97</ele>
        <time>2012-05-25T10:14:33Z</time>
      </trkpt>
      <trkpt lat="46.54324" lon="6.08688">
        <ele>1247.45</ele>
        <time>2012-05-25T10:14:34Z</time>
      </trkpt>
      <trkpt lat="46.54322" lon="6.08689">
        <ele>1246.97</ele>
        <time>2012-05-25T10:14:35Z</time>
      </trkpt>
      <trkpt lat="46.54321" lon="6.0869">
        <ele>1246.97</ele>
        <time>2012-05-25T10:14:36Z</time>
      </trkpt>
      <trkpt lat="46.5432" lon="6.08691">
        <ele>1247.45</ele>
        <time>2012-05-25T10:14:37Z</time>
      </trkpt>
      <trkpt lat="46.54318" lon="6.08692">
        <ele>1247.45</ele>
        <time>2012-05-25T10:14:38Z</time>
      </trkpt>
      <trkpt lat="46.54316" lon="6.08693">
        <ele>1248.41</ele>
        <time>2012-05-25T10:14:39Z</time>
      </trkpt>
      <trkpt lat="46.54314" lon="6.08693">
        <ele>1246.01</ele>
        <time>2012-05-25T10:14:40Z</time>
      </trkpt>
      <trkpt lat="46.54311" lon="6.08693">
        <ele>1246.97</ele>
        <time>2012-05-25T10:14:41Z</time>
      </trkpt>
      <trkpt lat="46.54307" lon="6.08692">
        <ele>1246.49</ele>
        <time>2012-05-25T10:14:42Z</time>
      </trkpt>
      <trkpt lat="46.54304" lon="6.08693">
        <ele>1246.01</ele>
        <time>2012-05-25T10:14:43Z</time>
      </trkpt>
      <trkpt lat="46.543" lon="6.08694">
        <ele>1246.49</ele>
        <time>2012-05-25T10:14:44Z</time>
      </trkpt>
      <trkpt lat="46.54269" lon="6.08698">
        <ele>1243.6</ele>
        <time>2012-05-25T10:14:50Z</time>
      </trkpt>
      <trkpt lat="46.54262" lon="6.087">
        <ele>1243.6</ele>
        <time>2012-05-25T10:14:51Z</time>
      </trkpt>
      <trkpt lat="46.54242" lon="6.08706">
        <ele>1242.64</ele>
        <time>2012-05-25T10:14:54Z</time>
      </trkpt>
      <trkpt lat="46.54236" lon="6.08706">
        <ele>1242.64</ele>
        <time>2012-05-25T10:14:55Z</time>
      </trkpt>
      <trkpt lat="46.5423" lon="6.08704">
        <ele>1244.08</ele>
        <time>2012-05-25T10:14:56Z</time>
      </trkpt>
      <trkpt lat="46.54218" lon="6.087">
        <ele>1244.08</ele>
        <time>2012-05-25T10:14:58Z</time>
      </trkpt>
      <trkpt lat="46.54187" lon="6.08684">
        <ele>1241.68</ele>
        <time>2012-05-25T10:15:03Z</time>
      </trkpt>
      <trkpt lat="46.54133" lon="6.08635">
        <ele>1238.8</ele>
        <time>2012-05-25T10:15:12Z</time>
      </trkpt>
      <trkpt lat="46.54112" lon="6.08607">
        <ele>1239.76</ele>
        <time>2012-05-25T10:15:16Z</time>
      </trkpt>
      <trkpt lat="46.54101" lon="6.08583">
        <ele>1236.87</ele>
        <time>2012-05-25T10:15:19Z</time>
      </trkpt>
      <trkpt lat="46.54092" lon="6.08557">
        <ele>1237.83</ele>
        <time>2012-05-25T10:15:22Z</time>
      </trkpt>
      <trkpt lat="46.54085" lon="6.08542">
        <ele>1239.28</ele>
        <time>2012-05-25T10:15:24Z</time>
      </trkpt>
      <trkpt lat="46.54082" lon="6.08535">
        <ele>1238.8</ele>
        <time>2012-05-25T10:15:25Z</time>
      </trkpt>
      <trkpt lat="46.54078" lon="6.08529">
        <ele>1237.35</ele>
        <time>2012-05-25T10:15:26Z</time>
      </trkpt>
      <trkpt lat="46.54074" lon="6.08523">
        <ele>1237.35</ele>
        <time>2012-05-25T10:15:27Z</time>
      </trkpt>
      <trkpt lat="46.5407" lon="6.08518">
        <ele>1236.87</ele>
        <time>2012-05-25T10:15:28Z</time>
      </trkpt>
      <trkpt lat="46.54066" lon="6.08513">
        <ele>1236.39</ele>
        <time>2012-05-25T10:15:29Z</time>
      </trkpt>
      <trkpt lat="46.54061" lon="6.0851">
        <ele>1236.39</ele>
        <time>2012-05-25T10:15:30Z</time>
      </trkpt>
      <trkpt lat="46.54057" lon="6.0851">
        <ele>1236.87</ele>
        <time>2012-05-25T10:15:31Z</time>
      </trkpt>
      <trkpt lat="46.54054" lon="6.0851">
        <ele>1238.32</ele>
        <time>2012-05-25T10:15:32Z</time>
      </trkpt>
      <trkpt lat="46.54052" lon="6.08511">
        <ele>1236.39</ele>
        <time>2012-05-25T10:15:33Z</time>
      </trkpt>
      <trkpt lat="46.54051" lon="6.08512">
        <ele>1237.35</ele>
        <time>2012-05-25T10:15:34Z</time>
      </trkpt>
      <trkpt lat="46.54044" lon="6.08513">
        <ele>1237.83</ele>
        <time>2012-05-25T10:15:39Z</time>
      </trkpt>
      <trkpt lat="46.54043" lon="6.08514">
        <ele>1237.35</ele>
        <time>2012-05-25T10:15:40Z</time>
      </trkpt>
      <trkpt lat="46.54039" lon="6.08514">
        <ele>1236.39</ele>
        <time>2012-05-25T10:15:43Z</time>
      </trkpt>
      <trkpt lat="46.5403" lon="6.08511">
        <ele>1237.83</ele>
        <time>2012-05-25T10:15:50Z</time>
      </trkpt>
      <trkpt lat="46.54029" lon="6.0851">
        <ele>1237.83</ele>
        <time>2012-05-25T10:15:51Z</time>
      </trkpt>
      <trkpt lat="46.54027" lon="6.08509">
        <ele>1237.83</ele>
        <time>2012-05-25T10:15:52Z</time>
      </trkpt>
      <trkpt lat="46.54026" lon="6.08509">
        <ele>1237.83</ele>
        <time>2012-05-25T10:15:53Z</time>
      </trkpt>
      <trkpt lat="46.54025" lon="6.08508">
        <ele>1238.32</ele>
        <time>2012-05-25T10:15:54Z</time>
      </trkpt>
      <trkpt lat="46.54016" lon="6.08503">
        <ele>1237.83</ele>
        <time>2012-05-25T10:16:03Z</time>
      </trkpt>
      <trkpt lat="46.54014" lon="6.08501">
        <ele>1237.83</ele>
        <time>2012-05-25T10:16:04Z</time>
      </trkpt>
      <trkpt lat="46.54013" lon="6.085">
        <ele>1237.83</ele>
        <time>2012-05-25T10:16:05Z</time>
      </trkpt>
      <trkpt lat="46.54012" lon="6.08499">
        <ele>1237.83</ele>
        <time>2012-05-25T10:16:06Z</time>
      </trkpt>
      <trkpt lat="46.5401" lon="6.08498">
        <ele>1238.32</ele>
        <time>2012-05-25T10:16:07Z</time>
      </trkpt>
      <trkpt lat="46.53992" lon="6.08482">
        <ele>1238.8</ele>
        <time>2012-05-25T10:16:20Z</time>
      </trkpt>
      <trkpt lat="46.53982" lon="6.08468">
        <ele>1239.76</ele>
        <time>2012-05-25T10:16:27Z</time>
      </trkpt>
      <trkpt lat="46.53953" lon="6.08433">
        <ele>1239.28</ele>
        <time>2012-05-25T10:16:40Z</time>
      </trkpt>
      <trkpt lat="46.53925" lon="6.08397">
        <ele>1237.83</ele>
        <time>2012-05-25T10:16:51Z</time>
      </trkpt>
      <trkpt lat="46.53914" lon="6.08384">
        <ele>1237.83</ele>
        <time>2012-05-25T10:16:54Z</time>
      </trkpt>
      <trkpt lat="46.53911" lon="6.08379">
        <ele>1237.83</ele>
        <time>2012-05-25T10:16:55Z</time>
      </trkpt>
      <trkpt lat="46.53909" lon="6.08376">
        <ele>1237.35</ele>
        <time>2012-05-25T10:16:56Z</time>
      </trkpt>
      <trkpt lat="46.53899" lon="6.08348">
        <ele>1236.87</ele>
        <time>2012-05-25T10:17:05Z</time>
      </trkpt>
      <trkpt lat="46.539" lon="6.083">
        <ele>1237.83</ele>
        <time>2012-05-25T10:17:14Z</time>
      </trkpt>
      <trkpt lat="46.53917" lon="6.08265">
        <ele>1240.24</ele>
        <time>2012-05-25T10:17:21Z</time>
      </trkpt>
      <trkpt lat="46.53935" lon="6.08237">
        <ele>1243.6</ele>
        <time>2012-05-25T10:17:27Z</time>
      </trkpt>
      <trkpt lat="46.53951" lon="6.08204">
        <ele>1245.53</ele>
        <time>2012-05-25T10:17:37Z</time>
      </trkpt>
      <trkpt lat="46.53973" lon="6.08184">
        <ele>1244.56</ele>
        <time>2012-05-25T10:17:47Z</time>
      </trkpt>
      <trkpt lat="46.53974" lon="6.08181">
        <ele>1243.6</ele>
        <time>2012-05-25T10:17:48Z</time>
      </trkpt>
      <trkpt lat="46.53975" lon="6.08178">
        <ele>1244.56</ele>
        <time>2012-05-25T10:17:49Z</time>
      </trkpt>
      <trkpt lat="46.53976" lon="6.08175">
        <ele>1244.08</ele>
        <time>2012-05-25T10:17:50Z</time>
      </trkpt>
      <trkpt lat="46.53976" lon="6.08171">
        <ele>1243.6</ele>
        <time>2012-05-25T10:17:52Z</time>
      </trkpt>
      <trkpt lat="46.53978" lon="6.08169">
        <ele>1242.64</ele>
        <time>2012-05-25T10:18:00Z</time>
      </trkpt>
      <trkpt lat="46.54005" lon="6.08147">
        <ele>1239.76</ele>
        <time>2012-05-25T10:18:09Z</time>
      </trkpt>
      <trkpt lat="46.54031" lon="6.08127">
        <ele>1237.83</ele>
        <time>2012-05-25T10:18:18Z</time>
      </trkpt>
      <trkpt lat="46.54042" lon="6.08114">
        <ele>1238.32</ele>
        <time>2012-05-25T10:18:28Z</time>
      </trkpt>
      <trkpt lat="46.54044" lon="6.08112">
        <ele>1238.8</ele>
        <time>2012-05-25T10:18:44Z</time>
      </trkpt>
      <trkpt lat="46.54045" lon="6.08109">
        <ele>1237.83</ele>
        <time>2012-05-25T10:19:00Z</time>
      </trkpt>
      <trkpt lat="46.54045" lon="6.08109">
        <ele>1239.76</ele>
        <time>2012-05-25T10:19:16Z</time>
      </trkpt>
      <trkpt lat="46.54045" lon="6.08109">
        <ele>1239.76</ele>
        <time>2012-05-25T10:19:21Z</time>
      </trkpt>
      <trkpt lat="46.54046" lon="6.08109">
        <ele>1239.28</ele>
        <time>2012-05-25T10:19:31Z</time>
      </trkpt>
      <trkpt lat="46.5405" lon="6.08104">
        <ele>1239.76</ele>
        <time>2012-05-25T10:19:55Z</time>
      </trkpt>
      <trkpt lat="46.5405" lon="6.08104">
        <ele>1238.8</ele>
        <time>2012-05-25T10:20:24Z</time>
      </trkpt>
      <trkpt lat="46.54058" lon="6.08087">
        <ele>1239.28</ele>
        <time>2012-05-25T10:20:36Z</time>
      </trkpt>
      <trkpt lat="46.5406" lon="6.08084">
        <ele>1238.8</ele>
        <time>2012-05-25T10:20:38Z</time>
      </trkpt>
      <trkpt lat="46.54064" lon="6.0808">
        <ele>1237.83</ele>
        <time>2012-05-25T10:20:41Z</time>
      </trkpt>
      <trkpt lat="46.54066" lon="6.08078">
        <ele>1238.8</ele>
        <time>2012-05-25T10:20:43Z</time>
      </trkpt>
      <trkpt lat="46.54067" lon="6.08076">
        <ele>1239.28</ele>
        <time>2012-05-25T10:20:45Z</time>
      </trkpt>
      <trkpt lat="46.54072" lon="6.08071">
        <ele>1238.8</ele>
        <time>2012-05-25T10:20:57Z</time>
      </trkpt>
      <trkpt lat="46.54072" lon="6.08071">
        <ele>1238.32</ele>
        <time>2012-05-25T10:21:06Z</time>
      </trkpt>
      <trkpt lat="46.54078" lon="6.08064">
        <ele>1239.28</ele>
        <time>2012-05-25T10:21:16Z</time>
      </trkpt>
      <trkpt lat="46.54078" lon="6.08064">
        <ele>1239.76</ele>
        <time>2012-05-25T10:21:28Z</time>
      </trkpt>
      <trkpt lat="46.54078" lon="6.08064">
        <ele>1238.8</ele>
        <time>2012-05-25T10:21:42Z</time>
      </trkpt>
      <trkpt lat="46.54079" lon="6.08065">
        <ele>1239.28</ele>
        <time>2012-05-25T10:21:43Z</time>
      </trkpt>
      <trkpt lat="46.54081" lon="6.08064">
        <ele>1239.76</ele>
        <time>2012-05-25T10:21:44Z</time>
      </trkpt>
      <trkpt lat="46.54087" lon="6.08056">
        <ele>1239.76</ele>
        <time>2012-05-25T10:21:53Z</time>
      </trkpt>
      <trkpt lat="46.54089" lon="6.08054">
        <ele>1239.76</ele>
        <time>2012-05-25T10:21:54Z</time>
      </trkpt>
      <trkpt lat="46.5409" lon="6.08052">
        <ele>1239.76</ele>
        <time>2012-05-25T10:21:55Z</time>
      </trkpt>
      <trkpt lat="46.54091" lon="6.0805">
        <ele>1239.76</ele>
        <time>2012-05-25T10:21:56Z</time>
      </trkpt>
      <trkpt lat="46.54092" lon="6.08048">
        <ele>1239.76</ele>
        <time>2012-05-25T10:21:57Z</time>
      </trkpt>
      <trkpt lat="46.54094" lon="6.08045">
        <ele>1239.76</ele>
        <time>2012-05-25T10:21:58Z</time>
      </trkpt>
      <trkpt lat="46.54096" lon="6.08043">
        <ele>1239.28</ele>
        <time>2012-05-25T10:21:59Z</time>
      </trkpt>
      <trkpt lat="46.54098" lon="6.08041">
        <ele>1239.76</ele>
        <time>2012-05-25T10:22:00Z</time>
      </trkpt>
      <trkpt lat="46.54109" lon="6.08033">
        <ele>1239.28</ele>
        <time>2012-05-25T10:22:06Z</time>
      </trkpt>
      <trkpt lat="46.54111" lon="6.08032">
        <ele>1240.72</ele>
        <time>2012-05-25T10:22:07Z</time>
      </trkpt>
      <trkpt lat="46.54114" lon="6.0803">
        <ele>1240.24</ele>
        <time>2012-05-25T10:22:08Z</time>
      </trkpt>
      <trkpt lat="46.54116" lon="6.08028">
        <ele>1240.24</ele>
        <time>2012-05-25T10:22:09Z</time>
      </trkpt>
      <trkpt lat="46.54117" lon="6.08026">
        <ele>1240.72</ele>
        <time>2012-05-25T10:22:10Z</time>
      </trkpt>
      <trkpt lat="46.5412" lon="6.08023">
        <ele>1239.76</ele>
        <time>2012-05-25T10:22:11Z</time>
      </trkpt>
      <trkpt lat="46.54122" lon="6.0802">
        <ele>1239.76</ele>
        <time>2012-05-25T10:22:12Z</time>
      </trkpt>
      <trkpt lat="46.54123" lon="6.08017">
        <ele>1240.24</ele>
        <time>2012-05-25T10:22:13Z</time>
      </trkpt>
      <trkpt lat="46.54125" lon="6.08014">
        <ele>1240.24</ele>
        <time>2012-05-25T10:22:14Z</time>
      </trkpt>
      <trkpt lat="46.54126" lon="6.0801">
        <ele>1239.76</ele>
        <time>2012-05-25T10:22:15Z</time>
      </trkpt>
      <trkpt lat="46.54128" lon="6.08005">
        <ele>1240.72</ele>
        <time>2012-05-25T10:22:16Z</time>
      </trkpt>
      <trkpt lat="46.5413" lon="6.08001">
        <ele>1240.24</ele>
        <time>2012-05-25T10:22:17Z</time>
      </trkpt>
      <trkpt lat="46.54133" lon="6.07995">
        <ele>1240.72</ele>
        <time>2012-05-25T10:22:26Z</time>
      </trkpt>
      <trkpt lat="46.54133" lon="6.07995">
        <ele>1243.6</ele>
        <time>2012-05-25T10:24:46Z</time>
      </trkpt>
      <trkpt lat="46.54133" lon="6.07995">
        <ele>1241.68</ele>
        <time>2012-05-25T10:25:01Z</time>
      </trkpt>
      <trkpt lat="46.54134" lon="6.07996">
        <ele>1245.04</ele>
        <time>2012-05-25T10:26:32Z</time>
      </trkpt>
      <trkpt lat="46.54134" lon="6.07996">
        <ele>1243.12</ele>
        <time>2012-05-25T10:26:55Z</time>
      </trkpt>
      <trkpt lat="46.54134" lon="6.07994">
        <ele>1243.6</ele>
        <time>2012-05-25T10:27:43Z</time>
      </trkpt>
      <trkpt lat="46.54135" lon="6.07994">
        <ele>1244.08</ele>
        <time>2012-05-25T10:28:48Z</time>
      </trkpt>
      <trkpt lat="46.54135" lon="6.07994">
        <ele>1243.6</ele>
        <time>2012-05-25T10:28:54Z</time>
      </trkpt>
      <trkpt lat="46.54135" lon="6.07994">
        <ele>1245.04</ele>
        <time>2012-05-25T10:28:57Z</time>
      </trkpt>
      <trkpt lat="46.54134" lon="6.07994">
        <ele>1246.01</ele>
        <time>2012-05-25T10:29:20Z</time>
      </trkpt>
      <trkpt lat="46.54134" lon="6.07994">
        <ele>1244.56</ele>
        <time>2012-05-25T10:29:35Z</time>
      </trkpt>
      <trkpt lat="46.54134" lon="6.07994">
        <ele>1244.08</ele>
        <time>2012-05-25T10:29:40Z</time>
      </trkpt>
      <trkpt lat="46.54134" lon="6.07994">
        <ele>1246.01</ele>
        <time>2012-05-25T10:30:19Z</time>
      </trkpt>
      <trkpt lat="46.54134" lon="6.07994">
        <ele>1246.49</ele>
        <time>2012-05-25T10:30:27Z</time>
      </trkpt>
      <trkpt lat="46.54134" lon="6.07993">
        <ele>1246.01</ele>
        <time>2012-05-25T10:32:21Z</time>
      </trkpt>
      <trkpt lat="46.54134" lon="6.07993">
        <ele>1247.93</ele>
        <time>2012-05-25T10:32:44Z</time>
      </trkpt>
      <trkpt lat="46.54134" lon="6.07993">
        <ele>1246.01</ele>
        <time>2012-05-25T10:32:51Z</time>
      </trkpt>
      <trkpt lat="46.54134" lon="6.07993">
        <ele>1246.97</ele>
        <time>2012-05-25T10:33:01Z</time>
      </trkpt>
      <trkpt lat="46.54134" lon="6.07993">
        <ele>1246.01</ele>
        <time>2012-05-25T10:33:13Z</time>
      </trkpt>
      <trkpt lat="46.54134" lon="6.07993">
        <ele>1248.89</ele>
        <time>2012-05-25T10:33:14Z</time>
      </trkpt>
      <trkpt lat="46.54134" lon="6.07993">
        <ele>1244.56</ele>
        <time>2012-05-25T10:33:15Z</time>
      </trkpt>
      <trkpt lat="46.54134" lon="6.07993">
        <ele>1247.93</ele>
        <time>2012-05-25T10:33:16Z</time>
      </trkpt>
      <trkpt lat="46.54134" lon="6.07993">
        <ele>1246.01</ele>
        <time>2012-05-25T10:33:29Z</time>
      </trkpt>
      <trkpt lat="46.54134" lon="6.07993">
        <ele>1247.93</ele>
        <time>2012-05-25T10:33:34Z</time>
      </trkpt>
      <trkpt lat="46.54136" lon="6.07988">
        <ele>1247.45</ele>
        <time>2012-05-25T10:34:11Z</time>
      </trkpt>
      <trkpt lat="46.54139" lon="6.07987">
        <ele>1247.45</ele>
        <time>2012-05-25T10:34:13Z</time>
      </trkpt>
      <trkpt lat="46.54141" lon="6.07985">
        <ele>1248.89</ele>
        <time>2012-05-25T10:34:14Z</time>
      </trkpt>
      <trkpt lat="46.54144" lon="6.07982">
        <ele>1249.37</ele>
        <time>2012-05-25T10:34:16Z</time>
      </trkpt>
      <trkpt lat="46.54145" lon="6.07981">
        <ele>1249.37</ele>
        <time>2012-05-25T10:34:17Z</time>
      </trkpt>
      <trkpt lat="46.54147" lon="6.07979">
        <ele>1248.89</ele>
        <time>2012-05-25T10:34:18Z</time>
      </trkpt>
      <trkpt lat="46.54154" lon="6.07972">
        <ele>1247.93</ele>
        <time>2012-05-25T10:34:28Z</time>
      </trkpt>
      <trkpt lat="46.54157" lon="6.07968">
        <ele>1248.89</ele>
        <time>2012-05-25T10:34:31Z</time>
      </trkpt>
      <trkpt lat="46.54158" lon="6.07966">
        <ele>1248.41</ele>
        <time>2012-05-25T10:34:32Z</time>
      </trkpt>
      <trkpt lat="46.5416" lon="6.07965">
        <ele>1247.93</ele>
        <time>2012-05-25T10:34:33Z</time>
      </trkpt>
      <trkpt lat="46.54161" lon="6.07963">
        <ele>1248.41</ele>
        <time>2012-05-25T10:34:34Z</time>
      </trkpt>
      <trkpt lat="46.54162" lon="6.07962">
        <ele>1246.49</ele>
        <time>2012-05-25T10:34:35Z</time>
      </trkpt>
      <trkpt lat="46.54163" lon="6.0796">
        <ele>1247.45</ele>
        <time>2012-05-25T10:34:36Z</time>
      </trkpt>
      <trkpt lat="46.54164" lon="6.07958">
        <ele>1246.97</ele>
        <time>2012-05-25T10:34:37Z</time>
      </trkpt>
      <trkpt lat="46.54166" lon="6.07957">
        <ele>1247.45</ele>
        <time>2012-05-25T10:34:38Z</time>
      </trkpt>
      <trkpt lat="46.54167" lon="6.07955">
        <ele>1247.93</ele>
        <time>2012-05-25T10:34:39Z</time>
      </trkpt>
      <trkpt lat="46.54169" lon="6.07954">
        <ele>1249.85</ele>
        <time>2012-05-25T10:34:40Z</time>
      </trkpt>
      <trkpt lat="46.5417" lon="6.07952">
        <ele>1249.85</ele>
        <time>2012-05-25T10:34:41Z</time>
      </trkpt>
      <trkpt lat="46.54171" lon="6.07951">
        <ele>1247.93</ele>
        <time>2012-05-25T10:34:43Z</time>
      </trkpt>
      <trkpt lat="46.54171" lon="6.07951">
        <ele>1249.85</ele>
        <time>2012-05-25T10:34:47Z</time>
      </trkpt>
      <trkpt lat="46.54171" lon="6.07951">
        <ele>1246.49</ele>
        <time>2012-05-25T10:34:52Z</time>
      </trkpt>
      <trkpt lat="46.54173" lon="6.0795">
        <ele>1249.37</ele>
        <time>2012-05-25T10:34:56Z</time>
      </trkpt>
      <trkpt lat="46.54174" lon="6.07949">
        <ele>1246.49</ele>
        <time>2012-05-25T10:34:58Z</time>
      </trkpt>
      <trkpt lat="46.54175" lon="6.07948">
        <ele>1247.93</ele>
        <time>2012-05-25T10:34:59Z</time>
      </trkpt>
      <trkpt lat="46.54177" lon="6.07947">
        <ele>1247.93</ele>
        <time>2012-05-25T10:35:00Z</time>
      </trkpt>
      <trkpt lat="46.54183" lon="6.07942">
        <ele>1246.97</ele>
        <time>2012-05-25T10:35:07Z</time>
      </trkpt>
      <trkpt lat="46.54192" lon="6.07934">
        <ele>1248.41</ele>
        <time>2012-05-25T10:35:19Z</time>
      </trkpt>
      <trkpt lat="46.54199" lon="6.07927">
        <ele>1244.56</ele>
        <time>2012-05-25T10:35:29Z</time>
      </trkpt>
      <trkpt lat="46.54199" lon="6.07928">
        <ele>1248.41</ele>
        <time>2012-05-25T10:35:33Z</time>
      </trkpt>
      <trkpt lat="46.54198" lon="6.07928">
        <ele>1246.01</ele>
        <time>2012-05-25T10:35:34Z</time>
      </trkpt>
      <trkpt lat="46.54194" lon="6.07932">
        <ele>1247.45</ele>
        <time>2012-05-25T10:35:43Z</time>
      </trkpt>
      <trkpt lat="46.54193" lon="6.07935">
        <ele>1248.89</ele>
        <time>2012-05-25T10:35:49Z</time>
      </trkpt>
      <trkpt lat="46.54192" lon="6.07936">
        <ele>1248.41</ele>
        <time>2012-05-25T10:35:50Z</time>
      </trkpt>
      <trkpt lat="46.5419" lon="6.07938">
        <ele>1249.37</ele>
        <time>2012-05-25T10:35:51Z</time>
      </trkpt>
      <trkpt lat="46.54184" lon="6.07944">
        <ele>1247.45</ele>
        <time>2012-05-25T10:35:54Z</time>
      </trkpt>
      <trkpt lat="46.54177" lon="6.07955">
        <ele>1248.41</ele>
        <time>2012-05-25T10:36:01Z</time>
      </trkpt>
      <trkpt lat="46.54166" lon="6.07968">
        <ele>1249.37</ele>
        <time>2012-05-25T10:36:11Z</time>
      </trkpt>
      <trkpt lat="46.54163" lon="6.07972">
        <ele>1247.45</ele>
        <time>2012-05-25T10:36:13Z</time>
      </trkpt>
      <trkpt lat="46.54161" lon="6.07972">
        <ele>1249.37</ele>
        <time>2012-05-25T10:36:14Z</time>
      </trkpt>
      <trkpt lat="46.54159" lon="6.07975">
        <ele>1249.37</ele>
        <time>2012-05-25T10:36:16Z</time>
      </trkpt>
      <trkpt lat="46.54157" lon="6.07977">
        <ele>1249.85</ele>
        <time>2012-05-25T10:36:17Z</time>
      </trkpt>
      <trkpt lat="46.54151" lon="6.07985">
        <ele>1248.41</ele>
        <time>2012-05-25T10:36:20Z</time>
      </trkpt>
      <trkpt lat="46.54149" lon="6.07987">
        <ele>1248.41</ele>
        <time>2012-05-25T10:36:21Z</time>
      </trkpt>
      <trkpt lat="46.54148" lon="6.07989">
        <ele>1247.45</ele>
        <time>2012-05-25T10:36:22Z</time>
      </trkpt>
      <trkpt lat="46.54147" lon="6.07992">
        <ele>1247.93</ele>
        <time>2012-05-25T10:36:23Z</time>
      </trkpt>
      <trkpt lat="46.54145" lon="6.07996">
        <ele>1246.49</ele>
        <time>2012-05-25T10:36:24Z</time>
      </trkpt>
      <trkpt lat="46.54144" lon="6.07999">
        <ele>1247.45</ele>
        <time>2012-05-25T10:36:25Z</time>
      </trkpt>
      <trkpt lat="46.54142" lon="6.08001">
        <ele>1246.49</ele>
        <time>2012-05-25T10:36:26Z</time>
      </trkpt>
      <trkpt lat="46.54139" lon="6.08003">
        <ele>1247.45</ele>
        <time>2012-05-25T10:36:27Z</time>
      </trkpt>
      <trkpt lat="46.54137" lon="6.08005">
        <ele>1247.45</ele>
        <time>2012-05-25T10:36:28Z</time>
      </trkpt>
      <trkpt lat="46.54127" lon="6.08012">
        <ele>1249.37</ele>
        <time>2012-05-25T10:36:34Z</time>
      </trkpt>
      <trkpt lat="46.54125" lon="6.08013">
        <ele>1247.93</ele>
        <time>2012-05-25T10:36:35Z</time>
      </trkpt>
      <trkpt lat="46.54122" lon="6.08016">
        <ele>1246.97</ele>
        <time>2012-05-25T10:36:36Z</time>
      </trkpt>
      <trkpt lat="46.5412" lon="6.08019">
        <ele>1247.93</ele>
        <time>2012-05-25T10:36:37Z</time>
      </trkpt>
      <trkpt lat="46.54118" lon="6.08022">
        <ele>1246.97</ele>
        <time>2012-05-25T10:36:38Z</time>
      </trkpt>
      <trkpt lat="46.54117" lon="6.08025">
        <ele>1246.49</ele>
        <time>2012-05-25T10:36:39Z</time>
      </trkpt>
      <trkpt lat="46.54116" lon="6.08027">
        <ele>1246.97</ele>
        <time>2012-05-25T10:36:40Z</time>
      </trkpt>
      <trkpt lat="46.54114" lon="6.08029">
        <ele>1247.45</ele>
        <time>2012-05-25T10:36:41Z</time>
      </trkpt>
      <trkpt lat="46.54113" lon="6.0803">
        <ele>1247.93</ele>
        <time>2012-05-25T10:36:42Z</time>
      </trkpt>
      <trkpt lat="46.54112" lon="6.08032">
        <ele>1247.93</ele>
        <time>2012-05-25T10:36:43Z</time>
      </trkpt>
      <trkpt lat="46.5411" lon="6.08035">
        <ele>1247.93</ele>
        <time>2012-05-25T10:36:44Z</time>
      </trkpt>
      <trkpt lat="46.54107" lon="6.08039">
        <ele>1246.97</ele>
        <time>2012-05-25T10:36:45Z</time>
      </trkpt>
      <trkpt lat="46.54105" lon="6.08041">
        <ele>1247.45</ele>
        <time>2012-05-25T10:36:46Z</time>
      </trkpt>
      <trkpt lat="46.54104" lon="6.08044">
        <ele>1246.49</ele>
        <time>2012-05-25T10:36:47Z</time>
      </trkpt>
      <trkpt lat="46.54102" lon="6.08046">
        <ele>1247.93</ele>
        <time>2012-05-25T10:36:48Z</time>
      </trkpt>
      <trkpt lat="46.54095" lon="6.08054">
        <ele>1246.01</ele>
        <time>2012-05-25T10:36:59Z</time>
      </trkpt>
      <trkpt lat="46.54091" lon="6.08057">
        <ele>1246.01</ele>
        <time>2012-05-25T10:37:03Z</time>
      </trkpt>
      <trkpt lat="46.54089" lon="6.08059">
        <ele>1246.01</ele>
        <time>2012-05-25T10:37:04Z</time>
      </trkpt>
      <trkpt lat="46.54081" lon="6.08072">
        <ele>1247.93</ele>
        <time>2012-05-25T10:37:14Z</time>
      </trkpt>
      <trkpt lat="46.5408" lon="6.08073">
        <ele>1247.93</ele>
        <time>2012-05-25T10:37:15Z</time>
      </trkpt>
      <trkpt lat="46.5408" lon="6.08075">
        <ele>1247.45</ele>
        <time>2012-05-25T10:37:16Z</time>
      </trkpt>
      <trkpt lat="46.54073" lon="6.08086">
        <ele>1247.45</ele>
        <time>2012-05-25T10:37:24Z</time>
      </trkpt>
      <trkpt lat="46.54072" lon="6.08087">
        <ele>1247.93</ele>
        <time>2012-05-25T10:37:25Z</time>
      </trkpt>
      <trkpt lat="46.54071" lon="6.08089">
        <ele>1247.45</ele>
        <time>2012-05-25T10:37:32Z</time>
      </trkpt>
      <trkpt lat="46.54069" lon="6.08092">
        <ele>1246.01</ele>
        <time>2012-05-25T10:37:38Z</time>
      </trkpt>
      <trkpt lat="46.54065" lon="6.08095">
        <ele>1246.97</ele>
        <time>2012-05-25T10:37:45Z</time>
      </trkpt>
      <trkpt lat="46.54061" lon="6.08098">
        <ele>1246.01</ele>
        <time>2012-05-25T10:37:51Z</time>
      </trkpt>
      <trkpt lat="46.54059" lon="6.081">
        <ele>1246.97</ele>
        <time>2012-05-25T10:38:01Z</time>
      </trkpt>
      <trkpt lat="46.54057" lon="6.08106">
        <ele>1247.45</ele>
        <time>2012-05-25T10:38:06Z</time>
      </trkpt>
      <trkpt lat="46.54057" lon="6.08107">
        <ele>1247.45</ele>
        <time>2012-05-25T10:38:14Z</time>
      </trkpt>
      <trkpt lat="46.54056" lon="6.08109">
        <ele>1247.93</ele>
        <time>2012-05-25T10:38:15Z</time>
      </trkpt>
      <trkpt lat="46.5404" lon="6.0812">
        <ele>1247.93</ele>
        <time>2012-05-25T10:38:23Z</time>
      </trkpt>
      <trkpt lat="46.54038" lon="6.08122">
        <ele>1248.89</ele>
        <time>2012-05-25T10:38:27Z</time>
      </trkpt>
      <trkpt lat="46.54035" lon="6.08123">
        <ele>1247.93</ele>
        <time>2012-05-25T10:38:28Z</time>
      </trkpt>
      <trkpt lat="46.54032" lon="6.08125">
        <ele>1249.85</ele>
        <time>2012-05-25T10:38:29Z</time>
      </trkpt>
      <trkpt lat="46.54029" lon="6.08127">
        <ele>1248.89</ele>
        <time>2012-05-25T10:38:30Z</time>
      </trkpt>
      <trkpt lat="46.54026" lon="6.0813">
        <ele>1248.89</ele>
        <time>2012-05-25T10:38:31Z</time>
      </trkpt>
      <trkpt lat="46.54023" lon="6.08133">
        <ele>1248.89</ele>
        <time>2012-05-25T10:38:32Z</time>
      </trkpt>
      <trkpt lat="46.54019" lon="6.08137">
        <ele>1249.37</ele>
        <time>2012-05-25T10:38:33Z</time>
      </trkpt>
      <trkpt lat="46.54016" lon="6.08138">
        <ele>1249.37</ele>
        <time>2012-05-25T10:38:34Z</time>
      </trkpt>
      <trkpt lat="46.54013" lon="6.0814">
        <ele>1248.89</ele>
        <time>2012-05-25T10:38:35Z</time>
      </trkpt>
      <trkpt lat="46.53996" lon="6.08149">
        <ele>1251.77</ele>
        <time>2012-05-25T10:38:42Z</time>
      </trkpt>
      <trkpt lat="46.53993" lon="6.0815">
        <ele>1252.25</ele>
        <time>2012-05-25T10:38:43Z</time>
      </trkpt>
      <trkpt lat="46.53991" lon="6.0815">
        <ele>1252.74</ele>
        <time>2012-05-25T10:38:44Z</time>
      </trkpt>
      <trkpt lat="46.5399" lon="6.08149">
        <ele>1251.77</ele>
        <time>2012-05-25T10:38:45Z</time>
      </trkpt>
      <trkpt lat="46.53988" lon="6.08149">
        <ele>1250.33</ele>
        <time>2012-05-25T10:38:46Z</time>
      </trkpt>
      <trkpt lat="46.53986" lon="6.08146">
        <ele>1251.77</ele>
        <time>2012-05-25T10:38:47Z</time>
      </trkpt>
      <trkpt lat="46.53985" lon="6.08143">
        <ele>1252.25</ele>
        <time>2012-05-25T10:38:48Z</time>
      </trkpt>
      <trkpt lat="46.53984" lon="6.08139">
        <ele>1251.29</ele>
        <time>2012-05-25T10:38:49Z</time>
      </trkpt>
      <trkpt lat="46.53985" lon="6.08137">
        <ele>1252.74</ele>
        <time>2012-05-25T10:38:50Z</time>
      </trkpt>
      <trkpt lat="46.53986" lon="6.08134">
        <ele>1253.22</ele>
        <time>2012-05-25T10:38:51Z</time>
      </trkpt>
      <trkpt lat="46.53991" lon="6.08119">
        <ele>1251.77</ele>
        <time>2012-05-25T10:38:57Z</time>
      </trkpt>
      <trkpt lat="46.53992" lon="6.08117">
        <ele>1252.74</ele>
        <time>2012-05-25T10:38:58Z</time>
      </trkpt>
      <trkpt lat="46.53993" lon="6.08115">
        <ele>1252.74</ele>
        <time>2012-05-25T10:38:59Z</time>
      </trkpt>
      <trkpt lat="46.53994" lon="6.08113">
        <ele>1253.22</ele>
        <time>2012-05-25T10:39:00Z</time>
      </trkpt>
      <trkpt lat="46.53996" lon="6.0811">
        <ele>1254.18</ele>
        <time>2012-05-25T10:39:01Z</time>
      </trkpt>
      <trkpt lat="46.54021" lon="6.08071">
        <ele>1255.14</ele>
        <time>2012-05-25T10:39:18Z</time>
      </trkpt>
      <trkpt lat="46.54021" lon="6.08068">
        <ele>1256.1</ele>
        <time>2012-05-25T10:39:19Z</time>
      </trkpt>
      <trkpt lat="46.54021" lon="6.08065">
        <ele>1254.66</ele>
        <time>2012-05-25T10:39:20Z</time>
      </trkpt>
      <trkpt lat="46.54021" lon="6.08062">
        <ele>1255.62</ele>
        <time>2012-05-25T10:39:21Z</time>
      </trkpt>
      <trkpt lat="46.54021" lon="6.08059">
        <ele>1255.14</ele>
        <time>2012-05-25T10:39:22Z</time>
      </trkpt>
      <trkpt lat="46.5402" lon="6.08057">
        <ele>1255.14</ele>
        <time>2012-05-25T10:39:23Z</time>
      </trkpt>
      <trkpt lat="46.54018" lon="6.08055">
        <ele>1256.1</ele>
        <time>2012-05-25T10:39:24Z</time>
      </trkpt>
      <trkpt lat="46.54012" lon="6.08046">
        <ele>1255.14</ele>
        <time>2012-05-25T10:39:27Z</time>
      </trkpt>
      <trkpt lat="46.54011" lon="6.08043">
        <ele>1254.66</ele>
        <time>2012-05-25T10:39:28Z</time>
      </trkpt>
      <trkpt lat="46.54009" lon="6.08041">
        <ele>1256.1</ele>
        <time>2012-05-25T10:39:29Z</time>
      </trkpt>
      <trkpt lat="46.54007" lon="6.08039">
        <ele>1255.62</ele>
        <time>2012-05-25T10:39:30Z</time>
      </trkpt>
      <trkpt lat="46.54005" lon="6.08038">
        <ele>1255.14</ele>
        <time>2012-05-25T10:39:31Z</time>
      </trkpt>
      <trkpt lat="46.53999" lon="6.08034">
        <ele>1256.58</ele>
        <time>2012-05-25T10:39:33Z</time>
      </trkpt>
      <trkpt lat="46.53996" lon="6.08032">
        <ele>1255.62</ele>
        <time>2012-05-25T10:39:34Z</time>
      </trkpt>
      <trkpt lat="46.53993" lon="6.0803">
        <ele>1255.14</ele>
        <time>2012-05-25T10:39:35Z</time>
      </trkpt>
      <trkpt lat="46.53989" lon="6.08027">
        <ele>1255.14</ele>
        <time>2012-05-25T10:39:36Z</time>
      </trkpt>
      <trkpt lat="46.53987" lon="6.08024">
        <ele>1254.18</ele>
        <time>2012-05-25T10:39:37Z</time>
      </trkpt>
      <trkpt lat="46.53984" lon="6.0802">
        <ele>1255.14</ele>
        <time>2012-05-25T10:39:38Z</time>
      </trkpt>
      <trkpt lat="46.53982" lon="6.08015">
        <ele>1253.7</ele>
        <time>2012-05-25T10:39:39Z</time>
      </trkpt>
      <trkpt lat="46.5398" lon="6.0801">
        <ele>1255.14</ele>
        <time>2012-05-25T10:39:40Z</time>
      </trkpt>
      <trkpt lat="46.53978" lon="6.08004">
        <ele>1255.14</ele>
        <time>2012-05-25T10:39:41Z</time>
      </trkpt>
      <trkpt lat="46.53974" lon="6.07992">
        <ele>1253.7</ele>
        <time>2012-05-25T10:39:43Z</time>
      </trkpt>
      <trkpt lat="46.53961" lon="6.07945">
        <ele>1254.66</ele>
        <time>2012-05-25T10:39:53Z</time>
      </trkpt>
      <trkpt lat="46.53951" lon="6.07936">
        <ele>1254.66</ele>
        <time>2012-05-25T10:39:56Z</time>
      </trkpt>
      <trkpt lat="46.53943" lon="6.07931">
        <ele>1254.18</ele>
        <time>2012-05-25T10:39:58Z</time>
      </trkpt>
      <trkpt lat="46.53938" lon="6.07929">
        <ele>1252.25</ele>
        <time>2012-05-25T10:39:59Z</time>
      </trkpt>
      <trkpt lat="46.53898" lon="6.07928">
        <ele>1251.77</ele>
        <time>2012-05-25T10:40:07Z</time>
      </trkpt>
      <trkpt lat="46.53883" lon="6.07922">
        <ele>1251.77</ele>
        <time>2012-05-25T10:40:10Z</time>
      </trkpt>
      <trkpt lat="46.53855" lon="6.07901">
        <ele>1252.74</ele>
        <time>2012-05-25T10:40:17Z</time>
      </trkpt>
      <trkpt lat="46.53852" lon="6.07895">
        <ele>1254.18</ele>
        <time>2012-05-25T10:40:18Z</time>
      </trkpt>
      <trkpt lat="46.53847" lon="6.07886">
        <ele>1253.7</ele>
        <time>2012-05-25T10:40:20Z</time>
      </trkpt>
      <trkpt lat="46.53838" lon="6.07867">
        <ele>1256.1</ele>
        <time>2012-05-25T10:40:25Z</time>
      </trkpt>
      <trkpt lat="46.53816" lon="6.07823">
        <ele>1259.46</ele>
        <time>2012-05-25T10:40:35Z</time>
      </trkpt>
      <trkpt lat="46.53811" lon="6.07804">
        <ele>1260.43</ele>
        <time>2012-05-25T10:40:39Z</time>
      </trkpt>
      <trkpt lat="46.53794" lon="6.07776">
        <ele>1262.83</ele>
        <time>2012-05-25T10:40:46Z</time>
      </trkpt>
      <trkpt lat="46.53769" lon="6.07748">
        <ele>1261.87</ele>
        <time>2012-05-25T10:40:56Z</time>
      </trkpt>
      <trkpt lat="46.53761" lon="6.07735">
        <ele>1263.79</ele>
        <time>2012-05-25T10:40:59Z</time>
      </trkpt>
      <trkpt lat="46.5375" lon="6.07715">
        <ele>1265.23</ele>
        <time>2012-05-25T10:41:04Z</time>
      </trkpt>
      <trkpt lat="46.53733" lon="6.07663">
        <ele>1265.23</ele>
        <time>2012-05-25T10:41:15Z</time>
      </trkpt>
      <trkpt lat="46.53721" lon="6.07638">
        <ele>1266.19</ele>
        <time>2012-05-25T10:41:23Z</time>
      </trkpt>
      <trkpt lat="46.53719" lon="6.07634">
        <ele>1265.23</ele>
        <time>2012-05-25T10:41:26Z</time>
      </trkpt>
      <trkpt lat="46.53719" lon="6.07631">
        <ele>1267.16</ele>
        <time>2012-05-25T10:41:27Z</time>
      </trkpt>
      <trkpt lat="46.53719" lon="6.07628">
        <ele>1261.39</ele>
        <time>2012-05-25T10:41:28Z</time>
      </trkpt>
      <trkpt lat="46.53718" lon="6.07624">
        <ele>1266.19</ele>
        <time>2012-05-25T10:41:29Z</time>
      </trkpt>
      <trkpt lat="46.53714" lon="6.07574">
        <ele>1266.67</ele>
        <time>2012-05-25T10:41:41Z</time>
      </trkpt>
      <trkpt lat="46.53729" lon="6.07534">
        <ele>1267.16</ele>
        <time>2012-05-25T10:41:52Z</time>
      </trkpt>
      <trkpt lat="46.53733" lon="6.07531">
        <ele>1267.64</ele>
        <time>2012-05-25T10:41:54Z</time>
      </trkpt>
      <trkpt lat="46.53735" lon="6.07528">
        <ele>1268.12</ele>
        <time>2012-05-25T10:41:55Z</time>
      </trkpt>
      <trkpt lat="46.53744" lon="6.07473">
        <ele>1266.19</ele>
        <time>2012-05-25T10:42:07Z</time>
      </trkpt>
      <trkpt lat="46.53742" lon="6.07469">
        <ele>1267.16</ele>
        <time>2012-05-25T10:42:08Z</time>
      </trkpt>
      <trkpt lat="46.53739" lon="6.07466">
        <ele>1266.67</ele>
        <time>2012-05-25T10:42:09Z</time>
      </trkpt>
      <trkpt lat="46.53736" lon="6.07461">
        <ele>1265.23</ele>
        <time>2012-05-25T10:42:10Z</time>
      </trkpt>
      <trkpt lat="46.53732" lon="6.07457">
        <ele>1262.83</ele>
        <time>2012-05-25T10:42:11Z</time>
      </trkpt>
      <trkpt lat="46.53729" lon="6.07454">
        <ele>1265.71</ele>
        <time>2012-05-25T10:42:12Z</time>
      </trkpt>
      <trkpt lat="46.53726" lon="6.07452">
        <ele>1266.19</ele>
        <time>2012-05-25T10:42:13Z</time>
      </trkpt>
      <trkpt lat="46.53724" lon="6.07449">
        <ele>1265.71</ele>
        <time>2012-05-25T10:42:14Z</time>
      </trkpt>
      <trkpt lat="46.53722" lon="6.07448">
        <ele>1265.23</ele>
        <time>2012-05-25T10:42:15Z</time>
      </trkpt>
      <trkpt lat="46.53721" lon="6.07448">
        <ele>1265.71</ele>
        <time>2012-05-25T10:42:16Z</time>
      </trkpt>
      <trkpt lat="46.53716" lon="6.07447">
        <ele>1264.75</ele>
        <time>2012-05-25T10:42:28Z</time>
      </trkpt>
      <trkpt lat="46.53711" lon="6.07442">
        <ele>1265.23</ele>
        <time>2012-05-25T10:42:42Z</time>
      </trkpt>
      <trkpt lat="46.53706" lon="6.07436">
        <ele>1265.71</ele>
        <time>2012-05-25T10:42:58Z</time>
      </trkpt>
      <trkpt lat="46.53704" lon="6.07436">
        <ele>1263.31</ele>
        <time>2012-05-25T10:43:02Z</time>
      </trkpt>
      <trkpt lat="46.537" lon="6.07435">
        <ele>1263.79</ele>
        <time>2012-05-25T10:43:14Z</time>
      </trkpt>
      <trkpt lat="46.53697" lon="6.07431">
        <ele>1262.83</ele>
        <time>2012-05-25T10:43:23Z</time>
      </trkpt>
      <trkpt lat="46.53695" lon="6.07425">
        <ele>1263.79</ele>
        <time>2012-05-25T10:43:28Z</time>
      </trkpt>
      <trkpt lat="46.53692" lon="6.07412">
        <ele>1264.75</ele>
        <time>2012-05-25T10:43:40Z</time>
      </trkpt>
      <trkpt lat="46.53681" lon="6.07399">
        <ele>1263.79</ele>
        <time>2012-05-25T10:43:51Z</time>
      </trkpt>
      <trkpt lat="46.5368" lon="6.07397">
        <ele>1263.31</ele>
        <time>2012-05-25T10:43:52Z</time>
      </trkpt>
      <trkpt lat="46.53667" lon="6.0738">
        <ele>1261.39</ele>
        <time>2012-05-25T10:44:03Z</time>
      </trkpt>
      <trkpt lat="46.5366" lon="6.07373">
        <ele>1260.91</ele>
        <time>2012-05-25T10:44:07Z</time>
      </trkpt>
      <trkpt lat="46.53659" lon="6.0737">
        <ele>1260.43</ele>
        <time>2012-05-25T10:44:08Z</time>
      </trkpt>
      <trkpt lat="46.53657" lon="6.07368">
        <ele>1261.39</ele>
        <time>2012-05-25T10:44:09Z</time>
      </trkpt>
      <trkpt lat="46.53656" lon="6.07366">
        <ele>1261.39</ele>
        <time>2012-05-25T10:44:10Z</time>
      </trkpt>
      <trkpt lat="46.53654" lon="6.07363">
        <ele>1261.39</ele>
        <time>2012-05-25T10:44:11Z</time>
      </trkpt>
      <trkpt lat="46.53653" lon="6.07361">
        <ele>1260.43</ele>
        <time>2012-05-25T10:44:12Z</time>
      </trkpt>
      <trkpt lat="46.53639" lon="6.07345">
        <ele>1257.06</ele>
        <time>2012-05-25T10:44:19Z</time>
      </trkpt>
      <trkpt lat="46.53634" lon="6.0734">
        <ele>1257.54</ele>
        <time>2012-05-25T10:44:20Z</time>
      </trkpt>
      <trkpt lat="46.53629" lon="6.07334">
        <ele>1256.58</ele>
        <time>2012-05-25T10:44:21Z</time>
      </trkpt>
      <trkpt lat="46.53624" lon="6.07326">
        <ele>1256.58</ele>
        <time>2012-05-25T10:44:22Z</time>
      </trkpt>
      <trkpt lat="46.53619" lon="6.07318">
        <ele>1255.62</ele>
        <time>2012-05-25T10:44:23Z</time>
      </trkpt>
      <trkpt lat="46.53615" lon="6.0731">
        <ele>1255.62</ele>
        <time>2012-05-25T10:44:24Z</time>
      </trkpt>
      <trkpt lat="46.53613" lon="6.07303">
        <ele>1254.18</ele>
        <time>2012-05-25T10:44:25Z</time>
      </trkpt>
      <trkpt lat="46.53611" lon="6.07297">
        <ele>1254.66</ele>
        <time>2012-05-25T10:44:26Z</time>
      </trkpt>
      <trkpt lat="46.53611" lon="6.07293">
        <ele>1254.66</ele>
        <time>2012-05-25T10:44:27Z</time>
      </trkpt>
      <trkpt lat="46.5361" lon="6.0729">
        <ele>1253.7</ele>
        <time>2012-05-25T10:44:28Z</time>
      </trkpt>
      <trkpt lat="46.53611" lon="6.07269">
        <ele>1253.7</ele>
        <time>2012-05-25T10:44:39Z</time>
      </trkpt>
      <trkpt lat="46.53619" lon="6.07259">
        <ele>1254.18</ele>
        <time>2012-05-25T10:44:43Z</time>
      </trkpt>
      <trkpt lat="46.53627" lon="6.07239">
        <ele>1251.77</ele>
        <time>2012-05-25T10:44:51Z</time>
      </trkpt>
      <trkpt lat="46.53629" lon="6.07221">
        <ele>1251.29</ele>
        <time>2012-05-25T11:10:50Z</time>
      </trkpt>
      <trkpt lat="46.53625" lon="6.07222">
        <ele>1252.25</ele>
        <time>2012-05-25T11:10:54Z</time>
      </trkpt>
      <trkpt lat="46.53621" lon="6.07225">
        <ele>1250.33</ele>
        <time>2012-05-25T11:10:57Z</time>
      </trkpt>
      <trkpt lat="46.53615" lon="6.07229">
        <ele>1249.37</ele>
        <time>2012-05-25T11:11:04Z</time>
      </trkpt>
      <trkpt lat="46.53603" lon="6.07234">
        <ele>1248.41</ele>
        <time>2012-05-25T11:11:11Z</time>
      </trkpt>
      <trkpt lat="46.53586" lon="6.07242">
        <ele>1246.01</ele>
        <time>2012-05-25T11:11:20Z</time>
      </trkpt>
      <trkpt lat="46.53583" lon="6.07245">
        <ele>1244.08</ele>
        <time>2012-05-25T11:11:25Z</time>
      </trkpt>
      <trkpt lat="46.53582" lon="6.07245">
        <ele>1244.56</ele>
        <time>2012-05-25T11:12:03Z</time>
      </trkpt>
      <trkpt lat="46.5358" lon="6.07245">
        <ele>1245.04</ele>
        <time>2012-05-25T11:13:29Z</time>
      </trkpt>
      <trkpt lat="46.53579" lon="6.07245">
        <ele>1243.6</ele>
        <time>2012-05-25T11:14:37Z</time>
      </trkpt>
      <trkpt lat="46.53579" lon="6.07245">
        <ele>1244.08</ele>
        <time>2012-05-25T11:15:51Z</time>
      </trkpt>
      <trkpt lat="46.53579" lon="6.07245">
        <ele>1243.12</ele>
        <time>2012-05-25T11:15:59Z</time>
      </trkpt>
      <trkpt lat="46.53575" lon="6.07246">
        <ele>1243.12</ele>
        <time>2012-05-25T11:20:20Z</time>
      </trkpt>
      <trkpt lat="46.53572" lon="6.07247">
        <ele>1239.76</ele>
        <time>2012-05-25T11:23:15Z</time>
      </trkpt>
      <trkpt lat="46.53572" lon="6.07247">
        <ele>1243.6</ele>
        <time>2012-05-25T11:23:16Z</time>
      </trkpt>
      <trkpt lat="46.53573" lon="6.07247">
        <ele>1242.16</ele>
        <time>2012-05-25T11:23:41Z</time>
      </trkpt>
      <trkpt lat="46.53573" lon="6.07247">
        <ele>1243.6</ele>
        <time>2012-05-25T11:24:08Z</time>
      </trkpt>
      <trkpt lat="46.53572" lon="6.07247">
        <ele>1242.64</ele>
        <time>2012-05-25T11:24:10Z</time>
      </trkpt>
      <trkpt lat="46.53572" lon="6.07247">
        <ele>1242.16</ele>
        <time>2012-05-25T11:24:14Z</time>
      </trkpt>
      <trkpt lat="46.53568" lon="6.0725">
        <ele>1241.68</ele>
        <time>2012-05-25T11:24:18Z</time>
      </trkpt>
      <trkpt lat="46.53554" lon="6.07257">
        <ele>1239.76</ele>
        <time>2012-05-25T11:24:25Z</time>
      </trkpt>
      <trkpt lat="46.53531" lon="6.07271">
        <ele>1237.83</ele>
        <time>2012-05-25T11:24:37Z</time>
      </trkpt>
      <trkpt lat="46.53519" lon="6.07279">
        <ele>1235.91</ele>
        <time>2012-05-25T11:24:49Z</time>
      </trkpt>
      <trkpt lat="46.53522" lon="6.07279">
        <ele>1236.39</ele>
        <time>2012-05-25T11:25:00Z</time>
      </trkpt>
      <trkpt lat="46.5352" lon="6.0728">
        <ele>1236.39</ele>
        <time>2012-05-25T11:25:18Z</time>
      </trkpt>
      <trkpt lat="46.53513" lon="6.07282">
        <ele>1235.43</ele>
        <time>2012-05-25T11:25:23Z</time>
      </trkpt>
      <trkpt lat="46.53503" lon="6.07287">
        <ele>1231.59</ele>
        <time>2012-05-25T11:25:29Z</time>
      </trkpt>
      <trkpt lat="46.53494" lon="6.07287">
        <ele>1230.14</ele>
        <time>2012-05-25T11:25:38Z</time>
      </trkpt>
      <trkpt lat="46.53494" lon="6.07287">
        <ele>1229.18</ele>
        <time>2012-05-25T11:25:58Z</time>
      </trkpt>
      <trkpt lat="46.53492" lon="6.07286">
        <ele>1229.18</ele>
        <time>2012-05-25T11:26:03Z</time>
      </trkpt>
      <trkpt lat="46.53483" lon="6.07288">
        <ele>1227.26</ele>
        <time>2012-05-25T11:26:07Z</time>
      </trkpt>
      <trkpt lat="46.53473" lon="6.07294">
        <ele>1223.9</ele>
        <time>2012-05-25T11:26:12Z</time>
      </trkpt>
      <trkpt lat="46.53465" lon="6.07294">
        <ele>1221.97</ele>
        <time>2012-05-25T11:26:15Z</time>
      </trkpt>
      <trkpt lat="46.53461" lon="6.07298">
        <ele>1221.49</ele>
        <time>2012-05-25T11:26:17Z</time>
      </trkpt>
      <trkpt lat="46.53455" lon="6.07306">
        <ele>1219.09</ele>
        <time>2012-05-25T11:26:19Z</time>
      </trkpt>
      <trkpt lat="46.53452" lon="6.07311">
        <ele>1218.61</ele>
        <time>2012-05-25T11:26:20Z</time>
      </trkpt>
      <trkpt lat="46.53448" lon="6.07314">
        <ele>1217.65</ele>
        <time>2012-05-25T11:26:21Z</time>
      </trkpt>
      <trkpt lat="46.53445" lon="6.07317">
        <ele>1217.17</ele>
        <time>2012-05-25T11:26:22Z</time>
      </trkpt>
      <trkpt lat="46.53436" lon="6.07324">
        <ele>1215.72</ele>
        <time>2012-05-25T11:26:25Z</time>
      </trkpt>
      <trkpt lat="46.53429" lon="6.0733">
        <ele>1215.72</ele>
        <time>2012-05-25T11:26:29Z</time>
      </trkpt>
      <trkpt lat="46.53423" lon="6.07334">
        <ele>1214.76</ele>
        <time>2012-05-25T11:26:34Z</time>
      </trkpt>
      <trkpt lat="46.53421" lon="6.07335">
        <ele>1214.28</ele>
        <time>2012-05-25T11:26:35Z</time>
      </trkpt>
      <trkpt lat="46.53419" lon="6.07336">
        <ele>1213.8</ele>
        <time>2012-05-25T11:26:36Z</time>
      </trkpt>
      <trkpt lat="46.53418" lon="6.07337">
        <ele>1214.28</ele>
        <time>2012-05-25T11:26:37Z</time>
      </trkpt>
      <trkpt lat="46.53416" lon="6.07338">
        <ele>1214.76</ele>
        <time>2012-05-25T11:26:38Z</time>
      </trkpt>
      <trkpt lat="46.53415" lon="6.0734">
        <ele>1214.76</ele>
        <time>2012-05-25T11:26:39Z</time>
      </trkpt>
      <trkpt lat="46.53413" lon="6.07341">
        <ele>1214.28</ele>
        <time>2012-05-25T11:26:40Z</time>
      </trkpt>
      <trkpt lat="46.53412" lon="6.07342">
        <ele>1213.32</ele>
        <time>2012-05-25T11:26:41Z</time>
      </trkpt>
      <trkpt lat="46.5341" lon="6.07343">
        <ele>1213.32</ele>
        <time>2012-05-25T11:26:42Z</time>
      </trkpt>
      <trkpt lat="46.53402" lon="6.07348">
        <ele>1212.84</ele>
        <time>2012-05-25T11:26:47Z</time>
      </trkpt>
      <trkpt lat="46.534" lon="6.07349">
        <ele>1212.84</ele>
        <time>2012-05-25T11:26:48Z</time>
      </trkpt>
      <trkpt lat="46.53399" lon="6.07351">
        <ele>1212.36</ele>
        <time>2012-05-25T11:26:49Z</time>
      </trkpt>
      <trkpt lat="46.53382" lon="6.0737">
        <ele>1211.88</ele>
        <time>2012-05-25T11:27:01Z</time>
      </trkpt>
      <trkpt lat="46.5338" lon="6.07371">
        <ele>1212.36</ele>
        <time>2012-05-25T11:27:02Z</time>
      </trkpt>
      <trkpt lat="46.53378" lon="6.07373">
        <ele>1210.92</ele>
        <time>2012-05-25T11:27:03Z</time>
      </trkpt>
      <trkpt lat="46.53377" lon="6.07375">
        <ele>1212.84</ele>
        <time>2012-05-25T11:27:04Z</time>
      </trkpt>
      <trkpt lat="46.53375" lon="6.07377">
        <ele>1211.4</ele>
        <time>2012-05-25T11:27:05Z</time>
      </trkpt>
      <trkpt lat="46.53373" lon="6.07378">
        <ele>1210.92</ele>
        <time>2012-05-25T11:27:06Z</time>
      </trkpt>
      <trkpt lat="46.53372" lon="6.0738">
        <ele>1211.4</ele>
        <time>2012-05-25T11:27:07Z</time>
      </trkpt>
      <trkpt lat="46.5337" lon="6.07382">
        <ele>1211.4</ele>
        <time>2012-05-25T11:27:08Z</time>
      </trkpt>
      <trkpt lat="46.53353" lon="6.07395">
        <ele>1210.44</ele>
        <time>2012-05-25T11:27:18Z</time>
      </trkpt>
      <trkpt lat="46.53349" lon="6.07395">
        <ele>1211.4</ele>
        <time>2012-05-25T11:27:20Z</time>
      </trkpt>
      <trkpt lat="46.5333" lon="6.07407">
        <ele>1211.4</ele>
        <time>2012-05-25T11:27:31Z</time>
      </trkpt>
      <trkpt lat="46.5332" lon="6.07413">
        <ele>1210.44</ele>
        <time>2012-05-25T11:27:36Z</time>
      </trkpt>
      <trkpt lat="46.53318" lon="6.07413">
        <ele>1210.44</ele>
        <time>2012-05-25T11:27:37Z</time>
      </trkpt>
      <trkpt lat="46.53299" lon="6.07417">
        <ele>1211.4</ele>
        <time>2012-05-25T11:27:47Z</time>
      </trkpt>
      <trkpt lat="46.53289" lon="6.07404">
        <ele>1211.4</ele>
        <time>2012-05-25T11:27:55Z</time>
      </trkpt>
      <trkpt lat="46.53289" lon="6.07401">
        <ele>1212.36</ele>
        <time>2012-05-25T11:27:56Z</time>
      </trkpt>
      <trkpt lat="46.53288" lon="6.074">
        <ele>1210.92</ele>
        <time>2012-05-25T11:27:57Z</time>
      </trkpt>
      <trkpt lat="46.53287" lon="6.07398">
        <ele>1210.44</ele>
        <time>2012-05-25T11:27:58Z</time>
      </trkpt>
      <trkpt lat="46.53286" lon="6.07396">
        <ele>1210.92</ele>
        <time>2012-05-25T11:27:59Z</time>
      </trkpt>
      <trkpt lat="46.53284" lon="6.07391">
        <ele>1210.92</ele>
        <time>2012-05-25T11:28:01Z</time>
      </trkpt>
      <trkpt lat="46.53282" lon="6.07388">
        <ele>1210.92</ele>
        <time>2012-05-25T11:28:02Z</time>
      </trkpt>
      <trkpt lat="46.5328" lon="6.07386">
        <ele>1210.44</ele>
        <time>2012-05-25T11:28:03Z</time>
      </trkpt>
      <trkpt lat="46.53278" lon="6.07385">
        <ele>1211.4</ele>
        <time>2012-05-25T11:28:04Z</time>
      </trkpt>
      <trkpt lat="46.53275" lon="6.07384">
        <ele>1210.92</ele>
        <time>2012-05-25T11:28:05Z</time>
      </trkpt>
      <trkpt lat="46.53272" lon="6.07383">
        <ele>1211.4</ele>
        <time>2012-05-25T11:28:06Z</time>
      </trkpt>
      <trkpt lat="46.53269" lon="6.07381">
        <ele>1211.88</ele>
        <time>2012-05-25T11:28:07Z</time>
      </trkpt>
      <trkpt lat="46.53267" lon="6.0738">
        <ele>1212.84</ele>
        <time>2012-05-25T11:28:08Z</time>
      </trkpt>
      <trkpt lat="46.53264" lon="6.07378">
        <ele>1212.36</ele>
        <time>2012-05-25T11:28:09Z</time>
      </trkpt>
      <trkpt lat="46.53243" lon="6.07372">
        <ele>1214.76</ele>
        <time>2012-05-25T11:28:18Z</time>
      </trkpt>
      <trkpt lat="46.53219" lon="6.07366">
        <ele>1217.65</ele>
        <time>2012-05-25T11:28:27Z</time>
      </trkpt>
      <trkpt lat="46.53191" lon="6.0735">
        <ele>1216.69</ele>
        <time>2012-05-25T11:28:39Z</time>
      </trkpt>
      <trkpt lat="46.5319" lon="6.07348">
        <ele>1217.17</ele>
        <time>2012-05-25T11:28:40Z</time>
      </trkpt>
      <trkpt lat="46.53188" lon="6.07347">
        <ele>1216.69</ele>
        <time>2012-05-25T11:28:42Z</time>
      </trkpt>
      <trkpt lat="46.53187" lon="6.07346">
        <ele>1216.69</ele>
        <time>2012-05-25T11:28:43Z</time>
      </trkpt>
      <trkpt lat="46.53186" lon="6.07344">
        <ele>1216.21</ele>
        <time>2012-05-25T11:28:44Z</time>
      </trkpt>
      <trkpt lat="46.53185" lon="6.07342">
        <ele>1216.69</ele>
        <time>2012-05-25T11:28:45Z</time>
      </trkpt>
      <trkpt lat="46.53184" lon="6.07339">
        <ele>1216.21</ele>
        <time>2012-05-25T11:28:46Z</time>
      </trkpt>
      <trkpt lat="46.53182" lon="6.07337">
        <ele>1217.17</ele>
        <time>2012-05-25T11:28:47Z</time>
      </trkpt>
      <trkpt lat="46.53163" lon="6.07316">
        <ele>1216.21</ele>
        <time>2012-05-25T11:28:57Z</time>
      </trkpt>
      <trkpt lat="46.53149" lon="6.07306">
        <ele>1215.72</ele>
        <time>2012-05-25T11:29:04Z</time>
      </trkpt>
      <trkpt lat="46.5313" lon="6.07295">
        <ele>1217.65</ele>
        <time>2012-05-25T11:29:14Z</time>
      </trkpt>
      <trkpt lat="46.53129" lon="6.07295">
        <ele>1218.61</ele>
        <time>2012-05-25T11:29:15Z</time>
      </trkpt>
      <trkpt lat="46.53102" lon="6.07292">
        <ele>1218.61</ele>
        <time>2012-05-25T11:29:27Z</time>
      </trkpt>
      <trkpt lat="46.53076" lon="6.07293">
        <ele>1219.57</ele>
        <time>2012-05-25T11:29:38Z</time>
      </trkpt>
      <trkpt lat="46.53072" lon="6.07293">
        <ele>1219.09</ele>
        <time>2012-05-25T11:29:40Z</time>
      </trkpt>
      <trkpt lat="46.5307" lon="6.07294">
        <ele>1219.09</ele>
        <time>2012-05-25T11:29:41Z</time>
      </trkpt>
      <trkpt lat="46.53067" lon="6.07294">
        <ele>1218.61</ele>
        <time>2012-05-25T11:29:42Z</time>
      </trkpt>
      <trkpt lat="46.53064" lon="6.07294">
        <ele>1219.09</ele>
        <time>2012-05-25T11:29:43Z</time>
      </trkpt>
      <trkpt lat="46.53062" lon="6.07293">
        <ele>1219.57</ele>
        <time>2012-05-25T11:29:44Z</time>
      </trkpt>
      <trkpt lat="46.53059" lon="6.07292">
        <ele>1219.57</ele>
        <time>2012-05-25T11:29:45Z</time>
      </trkpt>
      <trkpt lat="46.53057" lon="6.07292">
        <ele>1220.05</ele>
        <time>2012-05-25T11:29:46Z</time>
      </trkpt>
      <trkpt lat="46.53055" lon="6.07292">
        <ele>1221.01</ele>
        <time>2012-05-25T11:29:47Z</time>
      </trkpt>
      <trkpt lat="46.53053" lon="6.07291">
        <ele>1220.05</ele>
        <time>2012-05-25T11:29:48Z</time>
      </trkpt>
      <trkpt lat="46.53051" lon="6.0729">
        <ele>1219.57</ele>
        <time>2012-05-25T11:29:49Z</time>
      </trkpt>
      <trkpt lat="46.53049" lon="6.07289">
        <ele>1220.53</ele>
        <time>2012-05-25T11:29:50Z</time>
      </trkpt>
      <trkpt lat="46.53048" lon="6.07288">
        <ele>1220.53</ele>
        <time>2012-05-25T11:29:51Z</time>
      </trkpt>
      <trkpt lat="46.53047" lon="6.07286">
        <ele>1219.57</ele>
        <time>2012-05-25T11:29:52Z</time>
      </trkpt>
      <trkpt lat="46.53044" lon="6.07285">
        <ele>1220.53</ele>
        <time>2012-05-25T11:29:54Z</time>
      </trkpt>
      <trkpt lat="46.53043" lon="6.07284">
        <ele>1220.53</ele>
        <time>2012-05-25T11:29:55Z</time>
      </trkpt>
      <trkpt lat="46.53029" lon="6.07273">
        <ele>1220.05</ele>
        <time>2012-05-25T11:30:03Z</time>
      </trkpt>
      <trkpt lat="46.53027" lon="6.07272">
        <ele>1219.09</ele>
        <time>2012-05-25T11:30:04Z</time>
      </trkpt>
      <trkpt lat="46.53025" lon="6.0727">
        <ele>1220.53</ele>
        <time>2012-05-25T11:30:05Z</time>
      </trkpt>
      <trkpt lat="46.53024" lon="6.07269">
        <ele>1220.53</ele>
        <time>2012-05-25T11:30:06Z</time>
      </trkpt>
      <trkpt lat="46.53022" lon="6.07266">
        <ele>1220.05</ele>
        <time>2012-05-25T11:30:08Z</time>
      </trkpt>
      <trkpt lat="46.53021" lon="6.07265">
        <ele>1220.53</ele>
        <time>2012-05-25T11:30:09Z</time>
      </trkpt>
      <trkpt lat="46.53019" lon="6.07264">
        <ele>1219.57</ele>
        <time>2012-05-25T11:30:10Z</time>
      </trkpt>
      <trkpt lat="46.53018" lon="6.07263">
        <ele>1220.53</ele>
        <time>2012-05-25T11:30:11Z</time>
      </trkpt>
      <trkpt lat="46.53014" lon="6.0726">
        <ele>1220.05</ele>
        <time>2012-05-25T11:30:14Z</time>
      </trkpt>
      <trkpt lat="46.53013" lon="6.07258">
        <ele>1220.05</ele>
        <time>2012-05-25T11:30:15Z</time>
      </trkpt>
      <trkpt lat="46.5301" lon="6.07256">
        <ele>1220.53</ele>
        <time>2012-05-25T11:30:16Z</time>
      </trkpt>
      <trkpt lat="46.53008" lon="6.07255">
        <ele>1220.53</ele>
        <time>2012-05-25T11:30:17Z</time>
      </trkpt>
      <trkpt lat="46.53007" lon="6.07253">
        <ele>1220.05</ele>
        <time>2012-05-25T11:30:18Z</time>
      </trkpt>
      <trkpt lat="46.52991" lon="6.07236">
        <ele>1220.05</ele>
        <time>2012-05-25T11:30:25Z</time>
      </trkpt>
      <trkpt lat="46.52983" lon="6.07224">
        <ele>1220.53</ele>
        <time>2012-05-25T11:30:32Z</time>
      </trkpt>
      <trkpt lat="46.52971" lon="6.07217">
        <ele>1220.53</ele>
        <time>2012-05-25T11:30:36Z</time>
      </trkpt>
      <trkpt lat="46.52969" lon="6.07216">
        <ele>1221.01</ele>
        <time>2012-05-25T11:30:37Z</time>
      </trkpt>
      <trkpt lat="46.52967" lon="6.07215">
        <ele>1221.49</ele>
        <time>2012-05-25T11:30:38Z</time>
      </trkpt>
      <trkpt lat="46.52965" lon="6.07214">
        <ele>1221.49</ele>
        <time>2012-05-25T11:30:39Z</time>
      </trkpt>
      <trkpt lat="46.52938" lon="6.07202">
        <ele>1219.57</ele>
        <time>2012-05-25T11:30:48Z</time>
      </trkpt>
      <trkpt lat="46.52934" lon="6.07199">
        <ele>1218.61</ele>
        <time>2012-05-25T11:30:50Z</time>
      </trkpt>
      <trkpt lat="46.52931" lon="6.07199">
        <ele>1218.13</ele>
        <time>2012-05-25T11:30:51Z</time>
      </trkpt>
      <trkpt lat="46.52927" lon="6.07199">
        <ele>1217.65</ele>
        <time>2012-05-25T11:30:52Z</time>
      </trkpt>
      <trkpt lat="46.52925" lon="6.07202">
        <ele>1217.17</ele>
        <time>2012-05-25T11:30:53Z</time>
      </trkpt>
      <trkpt lat="46.52922" lon="6.07205">
        <ele>1216.21</ele>
        <time>2012-05-25T11:30:54Z</time>
      </trkpt>
      <trkpt lat="46.52919" lon="6.07207">
        <ele>1217.65</ele>
        <time>2012-05-25T11:30:55Z</time>
      </trkpt>
      <trkpt lat="46.52916" lon="6.07208">
        <ele>1216.21</ele>
        <time>2012-05-25T11:30:56Z</time>
      </trkpt>
      <trkpt lat="46.52913" lon="6.07209">
        <ele>1216.21</ele>
        <time>2012-05-25T11:30:57Z</time>
      </trkpt>
      <trkpt lat="46.52902" lon="6.07214">
        <ele>1216.69</ele>
        <time>2012-05-25T11:31:01Z</time>
      </trkpt>
      <trkpt lat="46.52901" lon="6.07216">
        <ele>1214.76</ele>
        <time>2012-05-25T11:31:02Z</time>
      </trkpt>
      <trkpt lat="46.52899" lon="6.07219">
        <ele>1215.24</ele>
        <time>2012-05-25T11:31:03Z</time>
      </trkpt>
      <trkpt lat="46.52898" lon="6.07222">
        <ele>1215.24</ele>
        <time>2012-05-25T11:31:04Z</time>
      </trkpt>
      <trkpt lat="46.52897" lon="6.07226">
        <ele>1214.76</ele>
        <time>2012-05-25T11:31:05Z</time>
      </trkpt>
      <trkpt lat="46.52896" lon="6.07234">
        <ele>1213.8</ele>
        <time>2012-05-25T11:31:07Z</time>
      </trkpt>
      <trkpt lat="46.52895" lon="6.07258">
        <ele>1209.96</ele>
        <time>2012-05-25T11:31:11Z</time>
      </trkpt>
      <trkpt lat="46.52894" lon="6.07264">
        <ele>1211.88</ele>
        <time>2012-05-25T11:31:12Z</time>
      </trkpt>
      <trkpt lat="46.5288" lon="6.07314">
        <ele>1212.84</ele>
        <time>2012-05-25T11:31:22Z</time>
      </trkpt>
      <trkpt lat="46.52872" lon="6.07335">
        <ele>1212.84</ele>
        <time>2012-05-25T11:31:26Z</time>
      </trkpt>
      <trkpt lat="46.52869" lon="6.0734">
        <ele>1212.36</ele>
        <time>2012-05-25T11:31:27Z</time>
      </trkpt>
      <trkpt lat="46.52851" lon="6.07389">
        <ele>1215.24</ele>
        <time>2012-05-25T11:31:37Z</time>
      </trkpt>
      <trkpt lat="46.52847" lon="6.07446">
        <ele>1214.28</ele>
        <time>2012-05-25T11:31:47Z</time>
      </trkpt>
      <trkpt lat="46.52841" lon="6.07506">
        <ele>1217.17</ele>
        <time>2012-05-25T11:31:58Z</time>
      </trkpt>
      <trkpt lat="46.52844" lon="6.07568">
        <ele>1218.61</ele>
        <time>2012-05-25T11:32:08Z</time>
      </trkpt>
      <trkpt lat="46.5284" lon="6.07633">
        <ele>1220.53</ele>
        <time>2012-05-25T11:32:20Z</time>
      </trkpt>
      <trkpt lat="46.52837" lon="6.07645">
        <ele>1221.97</ele>
        <time>2012-05-25T11:32:22Z</time>
      </trkpt>
      <trkpt lat="46.52832" lon="6.07667">
        <ele>1222.93</ele>
        <time>2012-05-25T11:32:26Z</time>
      </trkpt>
      <trkpt lat="46.52836" lon="6.07689">
        <ele>1222.45</ele>
        <time>2012-05-25T11:32:30Z</time>
      </trkpt>
      <trkpt lat="46.52837" lon="6.07696">
        <ele>1223.9</ele>
        <time>2012-05-25T11:32:31Z</time>
      </trkpt>
      <trkpt lat="46.52837" lon="6.07702">
        <ele>1223.9</ele>
        <time>2012-05-25T11:32:32Z</time>
      </trkpt>
      <trkpt lat="46.52836" lon="6.07708">
        <ele>1223.9</ele>
        <time>2012-05-25T11:32:33Z</time>
      </trkpt>
      <trkpt lat="46.52835" lon="6.07713">
        <ele>1223.9</ele>
        <time>2012-05-25T11:32:34Z</time>
      </trkpt>
      <trkpt lat="46.5283" lon="6.07735">
        <ele>1224.86</ele>
        <time>2012-05-25T11:32:39Z</time>
      </trkpt>
      <trkpt lat="46.52829" lon="6.0774">
        <ele>1225.82</ele>
        <time>2012-05-25T11:32:40Z</time>
      </trkpt>
      <trkpt lat="46.52823" lon="6.0779">
        <ele>1228.7</ele>
        <time>2012-05-25T11:32:49Z</time>
      </trkpt>
      <trkpt lat="46.52822" lon="6.07795">
        <ele>1228.7</ele>
        <time>2012-05-25T11:32:50Z</time>
      </trkpt>
      <trkpt lat="46.52821" lon="6.07815">
        <ele>1229.66</ele>
        <time>2012-05-25T11:32:54Z</time>
      </trkpt>
      <trkpt lat="46.52821" lon="6.07819">
        <ele>1229.66</ele>
        <time>2012-05-25T11:32:55Z</time>
      </trkpt>
      <trkpt lat="46.52821" lon="6.07824">
        <ele>1230.14</ele>
        <time>2012-05-25T11:32:56Z</time>
      </trkpt>
      <trkpt lat="46.52821" lon="6.07829">
        <ele>1228.7</ele>
        <time>2012-05-25T11:32:57Z</time>
      </trkpt>
      <trkpt lat="46.52822" lon="6.07833">
        <ele>1229.18</ele>
        <time>2012-05-25T11:32:58Z</time>
      </trkpt>
      <trkpt lat="46.52823" lon="6.07838">
        <ele>1229.66</ele>
        <time>2012-05-25T11:32:59Z</time>
      </trkpt>
      <trkpt lat="46.52824" lon="6.07843">
        <ele>1230.14</ele>
        <time>2012-05-25T11:33:00Z</time>
      </trkpt>
      <trkpt lat="46.52829" lon="6.07858">
        <ele>1224.86</ele>
        <time>2012-05-25T11:33:03Z</time>
      </trkpt>
      <trkpt lat="46.52831" lon="6.07863">
        <ele>1229.18</ele>
        <time>2012-05-25T11:33:04Z</time>
      </trkpt>
      <trkpt lat="46.52847" lon="6.07891">
        <ele>1229.18</ele>
        <time>2012-05-25T11:33:10Z</time>
      </trkpt>
      <trkpt lat="46.52854" lon="6.079">
        <ele>1228.7</ele>
        <time>2012-05-25T11:33:12Z</time>
      </trkpt>
      <trkpt lat="46.52856" lon="6.07906">
        <ele>1229.18</ele>
        <time>2012-05-25T11:33:13Z</time>
      </trkpt>
      <trkpt lat="46.52858" lon="6.07912">
        <ele>1228.7</ele>
        <time>2012-05-25T11:33:14Z</time>
      </trkpt>
      <trkpt lat="46.5286" lon="6.07923">
        <ele>1229.18</ele>
        <time>2012-05-25T11:33:16Z</time>
      </trkpt>
      <trkpt lat="46.52864" lon="6.07942">
        <ele>1228.7</ele>
        <time>2012-05-25T11:33:23Z</time>
      </trkpt>
      <trkpt lat="46.52868" lon="6.07952">
        <ele>1227.26</ele>
        <time>2012-05-25T11:33:32Z</time>
      </trkpt>
      <trkpt lat="46.52873" lon="6.07958">
        <ele>1227.74</ele>
        <time>2012-05-25T11:33:40Z</time>
      </trkpt>
      <trkpt lat="46.52875" lon="6.0796">
        <ele>1226.78</ele>
        <time>2012-05-25T11:33:41Z</time>
      </trkpt>
      <trkpt lat="46.52877" lon="6.07962">
        <ele>1227.74</ele>
        <time>2012-05-25T11:33:42Z</time>
      </trkpt>
      <trkpt lat="46.5288" lon="6.07964">
        <ele>1227.26</ele>
        <time>2012-05-25T11:33:43Z</time>
      </trkpt>
      <trkpt lat="46.52883" lon="6.07967">
        <ele>1227.26</ele>
        <time>2012-05-25T11:33:44Z</time>
      </trkpt>
      <trkpt lat="46.529" lon="6.07995">
        <ele>1226.78</ele>
        <time>2012-05-25T11:33:50Z</time>
      </trkpt>
      <trkpt lat="46.52904" lon="6.08">
        <ele>1226.78</ele>
        <time>2012-05-25T11:33:51Z</time>
      </trkpt>
      <trkpt lat="46.52907" lon="6.08005">
        <ele>1226.3</ele>
        <time>2012-05-25T11:33:52Z</time>
      </trkpt>
      <trkpt lat="46.52939" lon="6.08059">
        <ele>1227.74</ele>
        <time>2012-05-25T11:34:03Z</time>
      </trkpt>
      <trkpt lat="46.52942" lon="6.08065">
        <ele>1226.78</ele>
        <time>2012-05-25T11:34:04Z</time>
      </trkpt>
      <trkpt lat="46.52964" lon="6.08098">
        <ele>1227.74</ele>
        <time>2012-05-25T11:34:11Z</time>
      </trkpt>
      <trkpt lat="46.52967" lon="6.08102">
        <ele>1228.7</ele>
        <time>2012-05-25T11:34:12Z</time>
      </trkpt>
      <trkpt lat="46.52971" lon="6.08105">
        <ele>1227.26</ele>
        <time>2012-05-25T11:34:13Z</time>
      </trkpt>
      <trkpt lat="46.52976" lon="6.08109">
        <ele>1227.74</ele>
        <time>2012-05-25T11:34:14Z</time>
      </trkpt>
      <trkpt lat="46.5298" lon="6.08112">
        <ele>1227.26</ele>
        <time>2012-05-25T11:34:15Z</time>
      </trkpt>
      <trkpt lat="46.52984" lon="6.08115">
        <ele>1227.26</ele>
        <time>2012-05-25T11:34:16Z</time>
      </trkpt>
      <trkpt lat="46.52988" lon="6.08118">
        <ele>1227.74</ele>
        <time>2012-05-25T11:34:17Z</time>
      </trkpt>
      <trkpt lat="46.52992" lon="6.08121">
        <ele>1227.74</ele>
        <time>2012-05-25T11:34:18Z</time>
      </trkpt>
      <trkpt lat="46.52996" lon="6.08125">
        <ele>1226.78</ele>
        <time>2012-05-25T11:34:19Z</time>
      </trkpt>
      <trkpt lat="46.53" lon="6.08129">
        <ele>1227.26</ele>
        <time>2012-05-25T11:34:20Z</time>
      </trkpt>
      <trkpt lat="46.53019" lon="6.08156">
        <ele>1228.7</ele>
        <time>2012-05-25T11:34:26Z</time>
      </trkpt>
      <trkpt lat="46.53024" lon="6.08161">
        <ele>1228.22</ele>
        <time>2012-05-25T11:34:27Z</time>
      </trkpt>
      <trkpt lat="46.53043" lon="6.08176">
        <ele>1227.26</ele>
        <time>2012-05-25T11:34:31Z</time>
      </trkpt>
      <trkpt lat="46.53114" lon="6.08207">
        <ele>1223.9</ele>
        <time>2012-05-25T11:34:43Z</time>
      </trkpt>
      <trkpt lat="46.5312" lon="6.08209">
        <ele>1223.9</ele>
        <time>2012-05-25T11:34:44Z</time>
      </trkpt>
      <trkpt lat="46.53159" lon="6.08225">
        <ele>1222.93</ele>
        <time>2012-05-25T11:34:50Z</time>
      </trkpt>
      <trkpt lat="46.53209" lon="6.08254">
        <ele>1222.45</ele>
        <time>2012-05-25T11:34:59Z</time>
      </trkpt>
      <trkpt lat="46.5326" lon="6.08283">
        <ele>1220.53</ele>
        <time>2012-05-25T11:35:09Z</time>
      </trkpt>
      <trkpt lat="46.53263" lon="6.08287">
        <ele>1221.49</ele>
        <time>2012-05-25T11:35:10Z</time>
      </trkpt>
      <trkpt lat="46.53266" lon="6.08291">
        <ele>1220.05</ele>
        <time>2012-05-25T11:35:11Z</time>
      </trkpt>
      <trkpt lat="46.53269" lon="6.08295">
        <ele>1220.05</ele>
        <time>2012-05-25T11:35:12Z</time>
      </trkpt>
      <trkpt lat="46.53271" lon="6.08298">
        <ele>1220.05</ele>
        <time>2012-05-25T11:35:13Z</time>
      </trkpt>
      <trkpt lat="46.53277" lon="6.08304">
        <ele>1220.05</ele>
        <time>2012-05-25T11:35:21Z</time>
      </trkpt>
      <trkpt lat="46.53277" lon="6.08304">
        <ele>1217.65</ele>
        <time>2012-05-25T11:36:17Z</time>
      </trkpt>
      <trkpt lat="46.53277" lon="6.08304">
        <ele>1219.57</ele>
        <time>2012-05-25T11:37:28Z</time>
      </trkpt>
      <trkpt lat="46.53276" lon="6.08305">
        <ele>1219.57</ele>
        <time>2012-05-25T11:37:29Z</time>
      </trkpt>
      <trkpt lat="46.53275" lon="6.08307">
        <ele>1218.13</ele>
        <time>2012-05-25T11:37:30Z</time>
      </trkpt>
      <trkpt lat="46.53274" lon="6.08309">
        <ele>1218.61</ele>
        <time>2012-05-25T11:37:31Z</time>
      </trkpt>
      <trkpt lat="46.53273" lon="6.08312">
        <ele>1219.57</ele>
        <time>2012-05-25T11:37:32Z</time>
      </trkpt>
      <trkpt lat="46.53273" lon="6.08316">
        <ele>1218.13</ele>
        <time>2012-05-25T11:37:33Z</time>
      </trkpt>
      <trkpt lat="46.53274" lon="6.0832">
        <ele>1219.09</ele>
        <time>2012-05-25T11:37:34Z</time>
      </trkpt>
      <trkpt lat="46.53276" lon="6.08325">
        <ele>1218.13</ele>
        <time>2012-05-25T11:37:35Z</time>
      </trkpt>
      <trkpt lat="46.53278" lon="6.0833">
        <ele>1218.13</ele>
        <time>2012-05-25T11:37:36Z</time>
      </trkpt>
      <trkpt lat="46.53282" lon="6.08336">
        <ele>1218.13</ele>
        <time>2012-05-25T11:37:37Z</time>
      </trkpt>
      <trkpt lat="46.5329" lon="6.08349">
        <ele>1216.21</ele>
        <time>2012-05-25T11:37:39Z</time>
      </trkpt>
      <trkpt lat="46.53294" lon="6.08358">
        <ele>1216.21</ele>
        <time>2012-05-25T11:37:40Z</time>
      </trkpt>
      <trkpt lat="46.53297" lon="6.08369">
        <ele>1215.72</ele>
        <time>2012-05-25T11:37:41Z</time>
      </trkpt>
      <trkpt lat="46.53299" lon="6.08382">
        <ele>1214.28</ele>
        <time>2012-05-25T11:37:42Z</time>
      </trkpt>
      <trkpt lat="46.533" lon="6.08394">
        <ele>1214.76</ele>
        <time>2012-05-25T11:37:43Z</time>
      </trkpt>
      <trkpt lat="46.53299" lon="6.08406">
        <ele>1214.28</ele>
        <time>2012-05-25T11:37:44Z</time>
      </trkpt>
      <trkpt lat="46.53297" lon="6.08417">
        <ele>1213.8</ele>
        <time>2012-05-25T11:37:45Z</time>
      </trkpt>
      <trkpt lat="46.53293" lon="6.08427">
        <ele>1213.8</ele>
        <time>2012-05-25T11:37:46Z</time>
      </trkpt>
      <trkpt lat="46.53282" lon="6.08441">
        <ele>1211.4</ele>
        <time>2012-05-25T11:37:48Z</time>
      </trkpt>
      <trkpt lat="46.53275" lon="6.08446">
        <ele>1210.92</ele>
        <time>2012-05-25T11:37:49Z</time>
      </trkpt>
      <trkpt lat="46.53267" lon="6.08451">
        <ele>1210.44</ele>
        <time>2012-05-25T11:37:50Z</time>
      </trkpt>
      <trkpt lat="46.53237" lon="6.08465">
        <ele>1208.51</ele>
        <time>2012-05-25T11:37:53Z</time>
      </trkpt>
      <trkpt lat="46.53217" lon="6.08478">
        <ele>1207.55</ele>
        <time>2012-05-25T11:37:55Z</time>
      </trkpt>
      <trkpt lat="46.53177" lon="6.08503">
        <ele>1204.67</ele>
        <time>2012-05-25T11:37:59Z</time>
      </trkpt>
      <trkpt lat="46.53167" lon="6.08508">
        <ele>1205.15</ele>
        <time>2012-05-25T11:38:00Z</time>
      </trkpt>
      <trkpt lat="46.53126" lon="6.08523">
        <ele>1204.19</ele>
        <time>2012-05-25T11:38:04Z</time>
      </trkpt>
      <trkpt lat="46.53118" lon="6.08523">
        <ele>1206.59</ele>
        <time>2012-05-25T11:38:05Z</time>
      </trkpt>
      <trkpt lat="46.53111" lon="6.08522">
        <ele>1206.59</ele>
        <time>2012-05-25T11:38:06Z</time>
      </trkpt>
      <trkpt lat="46.53105" lon="6.08519">
        <ele>1206.11</ele>
        <time>2012-05-25T11:38:07Z</time>
      </trkpt>
      <trkpt lat="46.53101" lon="6.08516">
        <ele>1206.59</ele>
        <time>2012-05-25T11:38:08Z</time>
      </trkpt>
      <trkpt lat="46.53092" lon="6.0851">
        <ele>1207.55</ele>
        <time>2012-05-25T11:38:10Z</time>
      </trkpt>
      <trkpt lat="46.53088" lon="6.08508">
        <ele>1208.51</ele>
        <time>2012-05-25T11:38:11Z</time>
      </trkpt>
      <trkpt lat="46.53083" lon="6.08508">
        <ele>1209</ele>
        <time>2012-05-25T11:38:12Z</time>
      </trkpt>
      <trkpt lat="46.53078" lon="6.08508">
        <ele>1209.48</ele>
        <time>2012-05-25T11:38:13Z</time>
      </trkpt>
      <trkpt lat="46.53074" lon="6.08509">
        <ele>1209.96</ele>
        <time>2012-05-25T11:38:14Z</time>
      </trkpt>
      <trkpt lat="46.53069" lon="6.08511">
        <ele>1210.44</ele>
        <time>2012-05-25T11:38:15Z</time>
      </trkpt>
      <trkpt lat="46.53041" lon="6.08525">
        <ele>1212.36</ele>
        <time>2012-05-25T11:38:22Z</time>
      </trkpt>
      <trkpt lat="46.53011" lon="6.08545">
        <ele>1215.72</ele>
        <time>2012-05-25T11:38:31Z</time>
      </trkpt>
      <trkpt lat="46.52989" lon="6.0856">
        <ele>1218.61</ele>
        <time>2012-05-25T11:38:38Z</time>
      </trkpt>
      <trkpt lat="46.52958" lon="6.08585">
        <ele>1220.05</ele>
        <time>2012-05-25T11:38:49Z</time>
      </trkpt>
      <trkpt lat="46.52951" lon="6.08637">
        <ele>1223.42</ele>
        <time>2012-05-25T11:39:00Z</time>
      </trkpt>
      <trkpt lat="46.52936" lon="6.08671">
        <ele>1224.38</ele>
        <time>2012-05-25T11:39:10Z</time>
      </trkpt>
      <trkpt lat="46.5291" lon="6.08722">
        <ele>1223.9</ele>
        <time>2012-05-25T11:39:22Z</time>
      </trkpt>
      <trkpt lat="46.52894" lon="6.08751">
        <ele>1225.34</ele>
        <time>2012-05-25T11:39:28Z</time>
      </trkpt>
      <trkpt lat="46.52867" lon="6.08783">
        <ele>1227.74</ele>
        <time>2012-05-25T11:39:37Z</time>
      </trkpt>
      <trkpt lat="46.52839" lon="6.08797">
        <ele>1229.66</ele>
        <time>2012-05-25T11:39:47Z</time>
      </trkpt>
      <trkpt lat="46.52807" lon="6.0881">
        <ele>1230.14</ele>
        <time>2012-05-25T11:39:57Z</time>
      </trkpt>
      <trkpt lat="46.52769" lon="6.08833">
        <ele>1232.07</ele>
        <time>2012-05-25T11:40:10Z</time>
      </trkpt>
      <trkpt lat="46.52747" lon="6.08846">
        <ele>1234.95</ele>
        <time>2012-05-25T11:40:18Z</time>
      </trkpt>
      <trkpt lat="46.52717" lon="6.08858">
        <ele>1235.91</ele>
        <time>2012-05-25T11:40:28Z</time>
      </trkpt>
      <trkpt lat="46.5269" lon="6.08871">
        <ele>1237.35</ele>
        <time>2012-05-25T11:40:36Z</time>
      </trkpt>
      <trkpt lat="46.52664" lon="6.08893">
        <ele>1238.8</ele>
        <time>2012-05-25T11:40:46Z</time>
      </trkpt>
      <trkpt lat="46.52657" lon="6.08899">
        <ele>1239.76</ele>
        <time>2012-05-25T11:40:50Z</time>
      </trkpt>
      <trkpt lat="46.52641" lon="6.08903">
        <ele>1239.76</ele>
        <time>2012-05-25T11:41:01Z</time>
      </trkpt>
      <trkpt lat="46.52642" lon="6.08957">
        <ele>1241.2</ele>
        <time>2012-05-25T11:49:41Z</time>
      </trkpt>
      <trkpt lat="46.52653" lon="6.08974">
        <ele>1242.64</ele>
        <time>2012-05-25T11:49:49Z</time>
      </trkpt>
      <trkpt lat="46.52671" lon="6.09">
        <ele>1244.56</ele>
        <time>2012-05-25T11:50:00Z</time>
      </trkpt>
      <trkpt lat="46.52694" lon="6.09028">
        <ele>1245.53</ele>
        <time>2012-05-25T11:50:12Z</time>
      </trkpt>
      <trkpt lat="46.52704" lon="6.09043">
        <ele>1247.93</ele>
        <time>2012-05-25T11:50:18Z</time>
      </trkpt>
      <trkpt lat="46.52707" lon="6.09045">
        <ele>1248.41</ele>
        <time>2012-05-25T11:50:19Z</time>
      </trkpt>
      <trkpt lat="46.52709" lon="6.09048">
        <ele>1249.37</ele>
        <time>2012-05-25T11:50:20Z</time>
      </trkpt>
      <trkpt lat="46.52711" lon="6.09051">
        <ele>1248.41</ele>
        <time>2012-05-25T11:50:21Z</time>
      </trkpt>
      <trkpt lat="46.52713" lon="6.09054">
        <ele>1249.37</ele>
        <time>2012-05-25T11:50:22Z</time>
      </trkpt>
      <trkpt lat="46.52716" lon="6.09057">
        <ele>1250.33</ele>
        <time>2012-05-25T11:50:23Z</time>
      </trkpt>
      <trkpt lat="46.52719" lon="6.0906">
        <ele>1249.85</ele>
        <time>2012-05-25T11:50:24Z</time>
      </trkpt>
      <trkpt lat="46.52721" lon="6.09063">
        <ele>1250.81</ele>
        <time>2012-05-25T11:50:25Z</time>
      </trkpt>
      <trkpt lat="46.52748" lon="6.09089">
        <ele>1253.22</ele>
        <time>2012-05-25T11:50:38Z</time>
      </trkpt>
      <trkpt lat="46.52771" lon="6.09112">
        <ele>1253.7</ele>
        <time>2012-05-25T11:50:51Z</time>
      </trkpt>
      <trkpt lat="46.52772" lon="6.09116">
        <ele>1254.18</ele>
        <time>2012-05-25T11:50:53Z</time>
      </trkpt>
      <trkpt lat="46.52773" lon="6.09119">
        <ele>1254.66</ele>
        <time>2012-05-25T11:50:54Z</time>
      </trkpt>
      <trkpt lat="46.52775" lon="6.09123">
        <ele>1254.66</ele>
        <time>2012-05-25T11:50:55Z</time>
      </trkpt>
      <trkpt lat="46.52801" lon="6.09161">
        <ele>1254.66</ele>
        <time>2012-05-25T11:51:05Z</time>
      </trkpt>
      <trkpt lat="46.52819" lon="6.09193">
        <ele>1255.62</ele>
        <time>2012-05-25T11:51:12Z</time>
      </trkpt>
      <trkpt lat="46.52838" lon="6.09226">
        <ele>1256.1</ele>
        <time>2012-05-25T11:51:19Z</time>
      </trkpt>
      <trkpt lat="46.52858" lon="6.09267">
        <ele>1258.02</ele>
        <time>2012-05-25T11:51:30Z</time>
      </trkpt>
      <trkpt lat="46.52859" lon="6.0927">
        <ele>1258.02</ele>
        <time>2012-05-25T11:51:31Z</time>
      </trkpt>
      <trkpt lat="46.5288" lon="6.09327">
        <ele>1261.87</ele>
        <time>2012-05-25T11:51:45Z</time>
      </trkpt>
      <trkpt lat="46.52895" lon="6.09357">
        <ele>1265.23</ele>
        <time>2012-05-25T11:51:56Z</time>
      </trkpt>
      <trkpt lat="46.52897" lon="6.09359">
        <ele>1264.75</ele>
        <time>2012-05-25T11:51:57Z</time>
      </trkpt>
      <trkpt lat="46.52902" lon="6.09362">
        <ele>1263.31</ele>
        <time>2012-05-25T11:51:59Z</time>
      </trkpt>
      <trkpt lat="46.52904" lon="6.09362">
        <ele>1263.31</ele>
        <time>2012-05-25T11:52:00Z</time>
      </trkpt>
      <trkpt lat="46.52906" lon="6.0936">
        <ele>1262.35</ele>
        <time>2012-05-25T11:52:01Z</time>
      </trkpt>
      <trkpt lat="46.52907" lon="6.09359">
        <ele>1261.87</ele>
        <time>2012-05-25T11:52:02Z</time>
      </trkpt>
      <trkpt lat="46.52909" lon="6.09358">
        <ele>1262.35</ele>
        <time>2012-05-25T11:52:03Z</time>
      </trkpt>
      <trkpt lat="46.5291" lon="6.09357">
        <ele>1262.83</ele>
        <time>2012-05-25T11:52:04Z</time>
      </trkpt>
      <trkpt lat="46.52911" lon="6.09356">
        <ele>1261.39</ele>
        <time>2012-05-25T11:52:05Z</time>
      </trkpt>
      <trkpt lat="46.52912" lon="6.09358">
        <ele>1262.35</ele>
        <time>2012-05-25T11:52:07Z</time>
      </trkpt>
      <trkpt lat="46.52913" lon="6.09359">
        <ele>1261.87</ele>
        <time>2012-05-25T11:52:08Z</time>
      </trkpt>
      <trkpt lat="46.52915" lon="6.0936">
        <ele>1262.35</ele>
        <time>2012-05-25T11:52:09Z</time>
      </trkpt>
      <trkpt lat="46.52916" lon="6.09362">
        <ele>1261.87</ele>
        <time>2012-05-25T11:52:10Z</time>
      </trkpt>
      <trkpt lat="46.52917" lon="6.09365">
        <ele>1261.87</ele>
        <time>2012-05-25T11:52:11Z</time>
      </trkpt>
      <trkpt lat="46.52919" lon="6.09367">
        <ele>1261.39</ele>
        <time>2012-05-25T11:52:12Z</time>
      </trkpt>
      <trkpt lat="46.5292" lon="6.09369">
        <ele>1260.91</ele>
        <time>2012-05-25T11:52:13Z</time>
      </trkpt>
      <trkpt lat="46.52922" lon="6.09371">
        <ele>1259.94</ele>
        <time>2012-05-25T11:52:14Z</time>
      </trkpt>
      <trkpt lat="46.52938" lon="6.09392">
        <ele>1258.98</ele>
        <time>2012-05-25T11:52:20Z</time>
      </trkpt>
      <trkpt lat="46.52988" lon="6.09441">
        <ele>1255.62</ele>
        <time>2012-05-25T11:52:29Z</time>
      </trkpt>
      <trkpt lat="46.52995" lon="6.09447">
        <ele>1254.66</ele>
        <time>2012-05-25T11:52:30Z</time>
      </trkpt>
      <trkpt lat="46.5301" lon="6.09459">
        <ele>1253.22</ele>
        <time>2012-05-25T11:52:32Z</time>
      </trkpt>
      <trkpt lat="46.53024" lon="6.0947">
        <ele>1251.77</ele>
        <time>2012-05-25T11:52:34Z</time>
      </trkpt>
      <trkpt lat="46.5304" lon="6.09485">
        <ele>1250.33</ele>
        <time>2012-05-25T11:52:36Z</time>
      </trkpt>
      <trkpt lat="46.53093" lon="6.09542">
        <ele>1246.97</ele>
        <time>2012-05-25T11:52:43Z</time>
      </trkpt>
      <trkpt lat="46.53099" lon="6.0955">
        <ele>1246.49</ele>
        <time>2012-05-25T11:52:44Z</time>
      </trkpt>
      <trkpt lat="46.53106" lon="6.0956">
        <ele>1246.49</ele>
        <time>2012-05-25T11:52:45Z</time>
      </trkpt>
      <trkpt lat="46.53144" lon="6.09617">
        <ele>1242.64</ele>
        <time>2012-05-25T11:52:51Z</time>
      </trkpt>
      <trkpt lat="46.53151" lon="6.09625">
        <ele>1242.64</ele>
        <time>2012-05-25T11:52:52Z</time>
      </trkpt>
      <trkpt lat="46.53182" lon="6.0967">
        <ele>1243.12</ele>
        <time>2012-05-25T11:52:58Z</time>
      </trkpt>
      <trkpt lat="46.53186" lon="6.09677">
        <ele>1242.64</ele>
        <time>2012-05-25T11:52:59Z</time>
      </trkpt>
      <trkpt lat="46.53191" lon="6.09685">
        <ele>1238.8</ele>
        <time>2012-05-25T11:53:00Z</time>
      </trkpt>
      <trkpt lat="46.53195" lon="6.09693">
        <ele>1240.24</ele>
        <time>2012-05-25T11:53:01Z</time>
      </trkpt>
      <trkpt lat="46.53214" lon="6.09723">
        <ele>1238.8</ele>
        <time>2012-05-25T11:53:05Z</time>
      </trkpt>
      <trkpt lat="46.53219" lon="6.0973">
        <ele>1238.32</ele>
        <time>2012-05-25T11:53:06Z</time>
      </trkpt>
      <trkpt lat="46.53256" lon="6.09795">
        <ele>1236.39</ele>
        <time>2012-05-25T11:53:14Z</time>
      </trkpt>
      <trkpt lat="46.53264" lon="6.09813">
        <ele>1236.39</ele>
        <time>2012-05-25T11:53:16Z</time>
      </trkpt>
      <trkpt lat="46.53268" lon="6.09822">
        <ele>1235.43</ele>
        <time>2012-05-25T11:53:17Z</time>
      </trkpt>
      <trkpt lat="46.53272" lon="6.0983">
        <ele>1235.91</ele>
        <time>2012-05-25T11:53:18Z</time>
      </trkpt>
      <trkpt lat="46.53279" lon="6.09846">
        <ele>1234.95</ele>
        <time>2012-05-25T11:53:20Z</time>
      </trkpt>
      <trkpt lat="46.5329" lon="6.09868">
        <ele>1234.95</ele>
        <time>2012-05-25T11:53:23Z</time>
      </trkpt>
      <trkpt lat="46.53294" lon="6.09876">
        <ele>1234.47</ele>
        <time>2012-05-25T11:53:24Z</time>
      </trkpt>
      <trkpt lat="46.53297" lon="6.09884">
        <ele>1234.47</ele>
        <time>2012-05-25T11:53:25Z</time>
      </trkpt>
      <trkpt lat="46.53327" lon="6.09945">
        <ele>1231.11</ele>
        <time>2012-05-25T11:53:32Z</time>
      </trkpt>
      <trkpt lat="46.5335" lon="6.09989">
        <ele>1230.62</ele>
        <time>2012-05-25T11:53:37Z</time>
      </trkpt>
      <trkpt lat="46.53353" lon="6.09996">
        <ele>1230.62</ele>
        <time>2012-05-25T11:53:38Z</time>
      </trkpt>
      <trkpt lat="46.53382" lon="6.1006">
        <ele>1231.59</ele>
        <time>2012-05-25T11:53:47Z</time>
      </trkpt>
      <trkpt lat="46.53391" lon="6.10071">
        <ele>1232.07</ele>
        <time>2012-05-25T11:53:49Z</time>
      </trkpt>
      <trkpt lat="46.53395" lon="6.10076">
        <ele>1232.07</ele>
        <time>2012-05-25T11:53:50Z</time>
      </trkpt>
      <trkpt lat="46.534" lon="6.10079">
        <ele>1232.07</ele>
        <time>2012-05-25T11:53:51Z</time>
      </trkpt>
      <trkpt lat="46.53431" lon="6.10094">
        <ele>1233.03</ele>
        <time>2012-05-25T11:53:58Z</time>
      </trkpt>
      <trkpt lat="46.53447" lon="6.10094">
        <ele>1233.03</ele>
        <time>2012-05-25T11:54:01Z</time>
      </trkpt>
      <trkpt lat="46.53451" lon="6.10092">
        <ele>1233.03</ele>
        <time>2012-05-25T11:54:02Z</time>
      </trkpt>
      <trkpt lat="46.5348" lon="6.10084">
        <ele>1232.55</ele>
        <time>2012-05-25T11:54:08Z</time>
      </trkpt>
      <trkpt lat="46.53489" lon="6.1008">
        <ele>1233.03</ele>
        <time>2012-05-25T11:54:10Z</time>
      </trkpt>
      <trkpt lat="46.53493" lon="6.10078">
        <ele>1233.03</ele>
        <time>2012-05-25T11:54:11Z</time>
      </trkpt>
      <trkpt lat="46.53498" lon="6.10077">
        <ele>1232.07</ele>
        <time>2012-05-25T11:54:12Z</time>
      </trkpt>
      <trkpt lat="46.53509" lon="6.10074">
        <ele>1231.59</ele>
        <time>2012-05-25T11:54:14Z</time>
      </trkpt>
      <trkpt lat="46.53515" lon="6.10073">
        <ele>1230.62</ele>
        <time>2012-05-25T11:54:15Z</time>
      </trkpt>
      <trkpt lat="46.53521" lon="6.10074">
        <ele>1230.14</ele>
        <time>2012-05-25T11:54:16Z</time>
      </trkpt>
      <trkpt lat="46.53527" lon="6.10077">
        <ele>1229.66</ele>
        <time>2012-05-25T11:54:17Z</time>
      </trkpt>
      <trkpt lat="46.53534" lon="6.1008">
        <ele>1229.18</ele>
        <time>2012-05-25T11:54:18Z</time>
      </trkpt>
      <trkpt lat="46.53541" lon="6.10086">
        <ele>1228.22</ele>
        <time>2012-05-25T11:54:19Z</time>
      </trkpt>
      <trkpt lat="46.53548" lon="6.10092">
        <ele>1229.66</ele>
        <time>2012-05-25T11:54:20Z</time>
      </trkpt>
      <trkpt lat="46.53554" lon="6.101">
        <ele>1227.74</ele>
        <time>2012-05-25T11:54:21Z</time>
      </trkpt>
      <trkpt lat="46.5356" lon="6.10109">
        <ele>1227.74</ele>
        <time>2012-05-25T11:54:22Z</time>
      </trkpt>
      <trkpt lat="46.53566" lon="6.10118">
        <ele>1225.34</ele>
        <time>2012-05-25T11:54:23Z</time>
      </trkpt>
      <trkpt lat="46.53571" lon="6.10127">
        <ele>1225.82</ele>
        <time>2012-05-25T11:54:24Z</time>
      </trkpt>
      <trkpt lat="46.53604" lon="6.1018">
        <ele>1222.93</ele>
        <time>2012-05-25T11:54:30Z</time>
      </trkpt>
      <trkpt lat="46.5364" lon="6.10248">
        <ele>1221.01</ele>
        <time>2012-05-25T11:54:37Z</time>
      </trkpt>
      <trkpt lat="46.53645" lon="6.10255">
        <ele>1221.01</ele>
        <time>2012-05-25T11:54:38Z</time>
      </trkpt>
      <trkpt lat="46.5365" lon="6.10262">
        <ele>1221.49</ele>
        <time>2012-05-25T11:54:39Z</time>
      </trkpt>
      <trkpt lat="46.53685" lon="6.10311">
        <ele>1222.45</ele>
        <time>2012-05-25T11:54:47Z</time>
      </trkpt>
      <trkpt lat="46.53705" lon="6.10334">
        <ele>1222.45</ele>
        <time>2012-05-25T11:54:52Z</time>
      </trkpt>
      <trkpt lat="46.53714" lon="6.10342">
        <ele>1222.45</ele>
        <time>2012-05-25T11:54:54Z</time>
      </trkpt>
      <trkpt lat="46.53718" lon="6.10345">
        <ele>1222.45</ele>
        <time>2012-05-25T11:54:55Z</time>
      </trkpt>
      <trkpt lat="46.53723" lon="6.10348">
        <ele>1221.49</ele>
        <time>2012-05-25T11:54:56Z</time>
      </trkpt>
      <trkpt lat="46.53727" lon="6.10351">
        <ele>1221.01</ele>
        <time>2012-05-25T11:54:57Z</time>
      </trkpt>
      <trkpt lat="46.5373" lon="6.10354">
        <ele>1221.01</ele>
        <time>2012-05-25T11:54:58Z</time>
      </trkpt>
      <trkpt lat="46.53734" lon="6.10359">
        <ele>1222.45</ele>
        <time>2012-05-25T11:54:59Z</time>
      </trkpt>
      <trkpt lat="46.53738" lon="6.10363">
        <ele>1222.45</ele>
        <time>2012-05-25T11:55:00Z</time>
      </trkpt>
      <trkpt lat="46.53769" lon="6.10398">
        <ele>1220.05</ele>
        <time>2012-05-25T11:55:07Z</time>
      </trkpt>
      <trkpt lat="46.53773" lon="6.10405">
        <ele>1220.05</ele>
        <time>2012-05-25T11:55:08Z</time>
      </trkpt>
      <trkpt lat="46.53777" lon="6.10412">
        <ele>1219.09</ele>
        <time>2012-05-25T11:55:09Z</time>
      </trkpt>
      <trkpt lat="46.53789" lon="6.10432">
        <ele>1220.53</ele>
        <time>2012-05-25T11:55:12Z</time>
      </trkpt>
      <trkpt lat="46.53798" lon="6.10449">
        <ele>1220.53</ele>
        <time>2012-05-25T11:55:15Z</time>
      </trkpt>
      <trkpt lat="46.53817" lon="6.10481">
        <ele>1219.57</ele>
        <time>2012-05-25T11:55:20Z</time>
      </trkpt>
      <trkpt lat="46.5382" lon="6.10487">
        <ele>1220.05</ele>
        <time>2012-05-25T11:55:21Z</time>
      </trkpt>
      <trkpt lat="46.53867" lon="6.10565">
        <ele>1221.49</ele>
        <time>2012-05-25T11:55:34Z</time>
      </trkpt>
      <trkpt lat="46.53916" lon="6.10627">
        <ele>1219.57</ele>
        <time>2012-05-25T11:55:45Z</time>
      </trkpt>
      <trkpt lat="46.53928" lon="6.10645">
        <ele>1220.53</ele>
        <time>2012-05-25T11:55:48Z</time>
      </trkpt>
      <trkpt lat="46.53938" lon="6.10662">
        <ele>1221.49</ele>
        <time>2012-05-25T11:55:51Z</time>
      </trkpt>
      <trkpt lat="46.53942" lon="6.10667">
        <ele>1221.97</ele>
        <time>2012-05-25T11:55:52Z</time>
      </trkpt>
      <trkpt lat="46.53945" lon="6.10672">
        <ele>1221.49</ele>
        <time>2012-05-25T11:55:53Z</time>
      </trkpt>
      <trkpt lat="46.53949" lon="6.10676">
        <ele>1222.93</ele>
        <time>2012-05-25T11:55:54Z</time>
      </trkpt>
      <trkpt lat="46.53953" lon="6.10681">
        <ele>1222.45</ele>
        <time>2012-05-25T11:55:55Z</time>
      </trkpt>
      <trkpt lat="46.53965" lon="6.10695">
        <ele>1223.42</ele>
        <time>2012-05-25T11:55:58Z</time>
      </trkpt>
      <trkpt lat="46.53978" lon="6.10709">
        <ele>1222.93</ele>
        <time>2012-05-25T11:56:01Z</time>
      </trkpt>
      <trkpt lat="46.53982" lon="6.10713">
        <ele>1223.42</ele>
        <time>2012-05-25T11:56:02Z</time>
      </trkpt>
      <trkpt lat="46.53995" lon="6.10728">
        <ele>1222.93</ele>
        <time>2012-05-25T11:56:05Z</time>
      </trkpt>
      <trkpt lat="46.53998" lon="6.10733">
        <ele>1224.38</ele>
        <time>2012-05-25T11:56:06Z</time>
      </trkpt>
      <trkpt lat="46.54038" lon="6.10787">
        <ele>1223.9</ele>
        <time>2012-05-25T11:56:16Z</time>
      </trkpt>
      <trkpt lat="46.54054" lon="6.10812">
        <ele>1221.49</ele>
        <time>2012-05-25T11:56:20Z</time>
      </trkpt>
      <trkpt lat="46.54059" lon="6.10818">
        <ele>1215.72</ele>
        <time>2012-05-25T11:56:21Z</time>
      </trkpt>
      <trkpt lat="46.54063" lon="6.10825">
        <ele>1216.69</ele>
        <time>2012-05-25T11:56:22Z</time>
      </trkpt>
      <trkpt lat="46.54071" lon="6.1084">
        <ele>1219.09</ele>
        <time>2012-05-25T11:56:24Z</time>
      </trkpt>
      <trkpt lat="46.54075" lon="6.10848">
        <ele>1223.9</ele>
        <time>2012-05-25T11:56:25Z</time>
      </trkpt>
      <trkpt lat="46.54079" lon="6.10855">
        <ele>1220.53</ele>
        <time>2012-05-25T11:56:26Z</time>
      </trkpt>
      <trkpt lat="46.54104" lon="6.10893">
        <ele>1218.13</ele>
        <time>2012-05-25T11:56:31Z</time>
      </trkpt>
      <trkpt lat="46.5411" lon="6.109">
        <ele>1218.61</ele>
        <time>2012-05-25T11:56:32Z</time>
      </trkpt>
      <trkpt lat="46.54115" lon="6.10907">
        <ele>1218.13</ele>
        <time>2012-05-25T11:56:33Z</time>
      </trkpt>
      <trkpt lat="46.54121" lon="6.10915">
        <ele>1216.21</ele>
        <time>2012-05-25T11:56:34Z</time>
      </trkpt>
      <trkpt lat="46.54127" lon="6.10923">
        <ele>1216.69</ele>
        <time>2012-05-25T11:56:35Z</time>
      </trkpt>
      <trkpt lat="46.54132" lon="6.10932">
        <ele>1215.24</ele>
        <time>2012-05-25T11:56:36Z</time>
      </trkpt>
      <trkpt lat="46.54138" lon="6.10941">
        <ele>1215.24</ele>
        <time>2012-05-25T11:56:37Z</time>
      </trkpt>
      <trkpt lat="46.54196" lon="6.11019">
        <ele>1211.88</ele>
        <time>2012-05-25T11:56:48Z</time>
      </trkpt>
      <trkpt lat="46.54214" lon="6.1104">
        <ele>1211.4</ele>
        <time>2012-05-25T11:56:52Z</time>
      </trkpt>
      <trkpt lat="46.54228" lon="6.11053">
        <ele>1209.96</ele>
        <time>2012-05-25T11:56:55Z</time>
      </trkpt>
      <trkpt lat="46.54236" lon="6.11062">
        <ele>1210.92</ele>
        <time>2012-05-25T11:56:57Z</time>
      </trkpt>
      <trkpt lat="46.54241" lon="6.11066">
        <ele>1214.76</ele>
        <time>2012-05-25T11:56:58Z</time>
      </trkpt>
      <trkpt lat="46.54245" lon="6.11071">
        <ele>1210.44</ele>
        <time>2012-05-25T11:56:59Z</time>
      </trkpt>
      <trkpt lat="46.54269" lon="6.111">
        <ele>1208.51</ele>
        <time>2012-05-25T11:57:04Z</time>
      </trkpt>
      <trkpt lat="46.54273" lon="6.11107">
        <ele>1209.96</ele>
        <time>2012-05-25T11:57:05Z</time>
      </trkpt>
      <trkpt lat="46.54285" lon="6.1113">
        <ele>1208.03</ele>
        <time>2012-05-25T11:57:08Z</time>
      </trkpt>
      <trkpt lat="46.54308" lon="6.1119">
        <ele>1206.11</ele>
        <time>2012-05-25T11:57:16Z</time>
      </trkpt>
      <trkpt lat="46.54313" lon="6.11202">
        <ele>1199.38</ele>
        <time>2012-05-25T11:57:18Z</time>
      </trkpt>
      <trkpt lat="46.54316" lon="6.11208">
        <ele>1208.51</ele>
        <time>2012-05-25T11:57:19Z</time>
      </trkpt>
      <trkpt lat="46.54318" lon="6.11214">
        <ele>1196.98</ele>
        <time>2012-05-25T11:57:20Z</time>
      </trkpt>
      <trkpt lat="46.5432" lon="6.11219">
        <ele>1205.63</ele>
        <time>2012-05-25T11:57:21Z</time>
      </trkpt>
      <trkpt lat="46.54323" lon="6.11224">
        <ele>1212.84</ele>
        <time>2012-05-25T11:57:22Z</time>
      </trkpt>
      <trkpt lat="46.54329" lon="6.11236">
        <ele>1207.55</ele>
        <time>2012-05-25T11:57:24Z</time>
      </trkpt>
      <trkpt lat="46.54337" lon="6.11253">
        <ele>1192.17</ele>
        <time>2012-05-25T11:57:27Z</time>
      </trkpt>
      <trkpt lat="46.5434" lon="6.11259">
        <ele>1191.21</ele>
        <time>2012-05-25T11:57:28Z</time>
      </trkpt>
      <trkpt lat="46.54343" lon="6.11265">
        <ele>1207.55</ele>
        <time>2012-05-25T11:57:29Z</time>
      </trkpt>
      <trkpt lat="46.54346" lon="6.1127">
        <ele>1207.55</ele>
        <time>2012-05-25T11:57:30Z</time>
      </trkpt>
      <trkpt lat="46.54352" lon="6.11282">
        <ele>1205.63</ele>
        <time>2012-05-25T11:57:32Z</time>
      </trkpt>
      <trkpt lat="46.54357" lon="6.11294">
        <ele>1204.67</ele>
        <time>2012-05-25T11:57:34Z</time>
      </trkpt>
      <trkpt lat="46.5436" lon="6.11299">
        <ele>1203.71</ele>
        <time>2012-05-25T11:57:35Z</time>
      </trkpt>
      <trkpt lat="46.5438" lon="6.11337">
        <ele>1204.19</ele>
        <time>2012-05-25T11:57:44Z</time>
      </trkpt>
      <trkpt lat="46.54395" lon="6.1137">
        <ele>1204.67</ele>
        <time>2012-05-25T11:57:50Z</time>
      </trkpt>
      <trkpt lat="46.54399" lon="6.11375">
        <ele>1204.67</ele>
        <time>2012-05-25T11:57:51Z</time>
      </trkpt>
      <trkpt lat="46.54415" lon="6.11392">
        <ele>1202.75</ele>
        <time>2012-05-25T11:57:55Z</time>
      </trkpt>
      <trkpt lat="46.54425" lon="6.11402">
        <ele>1202.27</ele>
        <time>2012-05-25T11:57:57Z</time>
      </trkpt>
      <trkpt lat="46.54429" lon="6.11409">
        <ele>1202.27</ele>
        <time>2012-05-25T11:57:58Z</time>
      </trkpt>
      <trkpt lat="46.54434" lon="6.11417">
        <ele>1201.3</ele>
        <time>2012-05-25T11:57:59Z</time>
      </trkpt>
      <trkpt lat="46.54437" lon="6.11425">
        <ele>1201.3</ele>
        <time>2012-05-25T11:58:00Z</time>
      </trkpt>
      <trkpt lat="46.5444" lon="6.11433">
        <ele>1200.34</ele>
        <time>2012-05-25T11:58:01Z</time>
      </trkpt>
      <trkpt lat="46.54444" lon="6.11441">
        <ele>1200.34</ele>
        <time>2012-05-25T11:58:02Z</time>
      </trkpt>
      <trkpt lat="46.54447" lon="6.11448">
        <ele>1198.42</ele>
        <time>2012-05-25T11:58:03Z</time>
      </trkpt>
      <trkpt lat="46.54451" lon="6.11454">
        <ele>1198.9</ele>
        <time>2012-05-25T11:58:04Z</time>
      </trkpt>
      <trkpt lat="46.54464" lon="6.11482">
        <ele>1197.46</ele>
        <time>2012-05-25T11:58:08Z</time>
      </trkpt>
      <trkpt lat="46.54466" lon="6.11487">
        <ele>1196.5</ele>
        <time>2012-05-25T11:58:09Z</time>
      </trkpt>
      <trkpt lat="46.54481" lon="6.11513">
        <ele>1196.98</ele>
        <time>2012-05-25T12:22:47Z</time>
      </trkpt>
      <trkpt lat="46.54483" lon="6.11521">
        <ele>1196.02</ele>
        <time>2012-05-25T12:22:48Z</time>
      </trkpt>
      <trkpt lat="46.54485" lon="6.11528">
        <ele>1196.5</ele>
        <time>2012-05-25T12:22:49Z</time>
      </trkpt>
      <trkpt lat="46.54488" lon="6.11534">
        <ele>1195.06</ele>
        <time>2012-05-25T12:22:50Z</time>
      </trkpt>
      <trkpt lat="46.54492" lon="6.11542">
        <ele>1195.54</ele>
        <time>2012-05-25T12:22:51Z</time>
      </trkpt>
      <trkpt lat="46.54496" lon="6.11549">
        <ele>1195.06</ele>
        <time>2012-05-25T12:22:52Z</time>
      </trkpt>
      <trkpt lat="46.54499" lon="6.11556">
        <ele>1196.02</ele>
        <time>2012-05-25T12:22:53Z</time>
      </trkpt>
      <trkpt lat="46.54511" lon="6.11584">
        <ele>1193.61</ele>
        <time>2012-05-25T12:22:57Z</time>
      </trkpt>
      <trkpt lat="46.54545" lon="6.11648">
        <ele>1192.65</ele>
        <time>2012-05-25T12:23:06Z</time>
      </trkpt>
      <trkpt lat="46.54548" lon="6.11655">
        <ele>1192.65</ele>
        <time>2012-05-25T12:23:07Z</time>
      </trkpt>
      <trkpt lat="46.54551" lon="6.11661">
        <ele>1192.65</ele>
        <time>2012-05-25T12:23:08Z</time>
      </trkpt>
      <trkpt lat="46.54554" lon="6.11667">
        <ele>1193.13</ele>
        <time>2012-05-25T12:23:09Z</time>
      </trkpt>
      <trkpt lat="46.54557" lon="6.11672">
        <ele>1192.65</ele>
        <time>2012-05-25T12:23:10Z</time>
      </trkpt>
      <trkpt lat="46.5456" lon="6.11677">
        <ele>1192.65</ele>
        <time>2012-05-25T12:23:11Z</time>
      </trkpt>
      <trkpt lat="46.54562" lon="6.11681">
        <ele>1191.69</ele>
        <time>2012-05-25T12:23:12Z</time>
      </trkpt>
      <trkpt lat="46.54565" lon="6.11686">
        <ele>1191.21</ele>
        <time>2012-05-25T12:23:13Z</time>
      </trkpt>
      <trkpt lat="46.54568" lon="6.11691">
        <ele>1192.17</ele>
        <time>2012-05-25T12:23:14Z</time>
      </trkpt>
      <trkpt lat="46.54571" lon="6.11696">
        <ele>1192.17</ele>
        <time>2012-05-25T12:23:15Z</time>
      </trkpt>
      <trkpt lat="46.54574" lon="6.11702">
        <ele>1192.17</ele>
        <time>2012-05-25T12:23:16Z</time>
      </trkpt>
      <trkpt lat="46.54578" lon="6.11707">
        <ele>1191.21</ele>
        <time>2012-05-25T12:23:17Z</time>
      </trkpt>
      <trkpt lat="46.54613" lon="6.11764">
        <ele>1191.21</ele>
        <time>2012-05-25T12:23:27Z</time>
      </trkpt>
      <trkpt lat="46.54628" lon="6.11785">
        <ele>1191.69</ele>
        <time>2012-05-25T12:23:31Z</time>
      </trkpt>
      <trkpt lat="46.54632" lon="6.1179">
        <ele>1191.69</ele>
        <time>2012-05-25T12:23:32Z</time>
      </trkpt>
      <trkpt lat="46.54643" lon="6.11806">
        <ele>1190.73</ele>
        <time>2012-05-25T12:23:35Z</time>
      </trkpt>
      <trkpt lat="46.54648" lon="6.11811">
        <ele>1190.73</ele>
        <time>2012-05-25T12:23:36Z</time>
      </trkpt>
      <trkpt lat="46.54682" lon="6.11855">
        <ele>1191.21</ele>
        <time>2012-05-25T12:23:46Z</time>
      </trkpt>
      <trkpt lat="46.54694" lon="6.11872">
        <ele>1191.69</ele>
        <time>2012-05-25T12:23:50Z</time>
      </trkpt>
      <trkpt lat="46.54719" lon="6.11902">
        <ele>1188.81</ele>
        <time>2012-05-25T12:23:55Z</time>
      </trkpt>
      <trkpt lat="46.54762" lon="6.1196">
        <ele>1187.85</ele>
        <time>2012-05-25T12:24:04Z</time>
      </trkpt>
      <trkpt lat="46.54779" lon="6.1198">
        <ele>1188.81</ele>
        <time>2012-05-25T12:24:08Z</time>
      </trkpt>
      <trkpt lat="46.54782" lon="6.11985">
        <ele>1188.81</ele>
        <time>2012-05-25T12:24:09Z</time>
      </trkpt>
      <trkpt lat="46.54795" lon="6.11999">
        <ele>1188.33</ele>
        <time>2012-05-25T12:24:12Z</time>
      </trkpt>
      <trkpt lat="46.54799" lon="6.12003">
        <ele>1188.81</ele>
        <time>2012-05-25T12:24:13Z</time>
      </trkpt>
      <trkpt lat="46.54803" lon="6.12007">
        <ele>1189.29</ele>
        <time>2012-05-25T12:24:14Z</time>
      </trkpt>
      <trkpt lat="46.54807" lon="6.12012">
        <ele>1188.81</ele>
        <time>2012-05-25T12:24:15Z</time>
      </trkpt>
      <trkpt lat="46.54811" lon="6.12016">
        <ele>1188.33</ele>
        <time>2012-05-25T12:24:16Z</time>
      </trkpt>
      <trkpt lat="46.54815" lon="6.12021">
        <ele>1188.81</ele>
        <time>2012-05-25T12:24:17Z</time>
      </trkpt>
      <trkpt lat="46.54819" lon="6.12026">
        <ele>1187.37</ele>
        <time>2012-05-25T12:24:18Z</time>
      </trkpt>
      <trkpt lat="46.54822" lon="6.12031">
        <ele>1187.85</ele>
        <time>2012-05-25T12:24:19Z</time>
      </trkpt>
      <trkpt lat="46.54831" lon="6.12041">
        <ele>1189.29</ele>
        <time>2012-05-25T12:24:21Z</time>
      </trkpt>
      <trkpt lat="46.54852" lon="6.12068">
        <ele>1190.25</ele>
        <time>2012-05-25T12:24:27Z</time>
      </trkpt>
      <trkpt lat="46.54856" lon="6.12072">
        <ele>1189.29</ele>
        <time>2012-05-25T12:24:28Z</time>
      </trkpt>
      <trkpt lat="46.5488" lon="6.12098">
        <ele>1191.21</ele>
        <time>2012-05-25T12:24:35Z</time>
      </trkpt>
      <trkpt lat="46.54884" lon="6.12101">
        <ele>1193.13</ele>
        <time>2012-05-25T12:24:36Z</time>
      </trkpt>
      <trkpt lat="46.54888" lon="6.12105">
        <ele>1191.21</ele>
        <time>2012-05-25T12:24:37Z</time>
      </trkpt>
      <trkpt lat="46.54895" lon="6.12113">
        <ele>1193.61</ele>
        <time>2012-05-25T12:24:39Z</time>
      </trkpt>
      <trkpt lat="46.54899" lon="6.12118">
        <ele>1193.13</ele>
        <time>2012-05-25T12:24:40Z</time>
      </trkpt>
      <trkpt lat="46.54903" lon="6.12123">
        <ele>1191.21</ele>
        <time>2012-05-25T12:24:41Z</time>
      </trkpt>
      <trkpt lat="46.54906" lon="6.12129">
        <ele>1191.69</ele>
        <time>2012-05-25T12:24:42Z</time>
      </trkpt>
      <trkpt lat="46.54911" lon="6.1214">
        <ele>1192.65</ele>
        <time>2012-05-25T12:24:44Z</time>
      </trkpt>
      <trkpt lat="46.5493" lon="6.12199">
        <ele>1194.58</ele>
        <time>2012-05-25T12:24:55Z</time>
      </trkpt>
      <trkpt lat="46.54939" lon="6.12237">
        <ele>1197.46</ele>
        <time>2012-05-25T12:25:02Z</time>
      </trkpt>
      <trkpt lat="46.5494" lon="6.12242">
        <ele>1196.98</ele>
        <time>2012-05-25T12:25:03Z</time>
      </trkpt>
      <trkpt lat="46.54941" lon="6.12248">
        <ele>1197.94</ele>
        <time>2012-05-25T12:25:04Z</time>
      </trkpt>
      <trkpt lat="46.54941" lon="6.12253">
        <ele>1197.46</ele>
        <time>2012-05-25T12:25:05Z</time>
      </trkpt>
      <trkpt lat="46.54942" lon="6.12258">
        <ele>1197.94</ele>
        <time>2012-05-25T12:25:06Z</time>
      </trkpt>
      <trkpt lat="46.5495" lon="6.12287">
        <ele>1198.9</ele>
        <time>2012-05-25T12:25:15Z</time>
      </trkpt>
      <trkpt lat="46.54951" lon="6.12288">
        <ele>1199.86</ele>
        <time>2012-05-25T12:25:16Z</time>
      </trkpt>
      <trkpt lat="46.54952" lon="6.12291">
        <ele>1199.86</ele>
        <time>2012-05-25T12:25:18Z</time>
      </trkpt>
      <trkpt lat="46.54952" lon="6.12293">
        <ele>1199.86</ele>
        <time>2012-05-25T12:25:19Z</time>
      </trkpt>
      <trkpt lat="46.54952" lon="6.12296">
        <ele>1199.86</ele>
        <time>2012-05-25T12:25:20Z</time>
      </trkpt>
      <trkpt lat="46.54953" lon="6.12299">
        <ele>1198.42</ele>
        <time>2012-05-25T12:25:21Z</time>
      </trkpt>
      <trkpt lat="46.54954" lon="6.12302">
        <ele>1197.94</ele>
        <time>2012-05-25T12:25:22Z</time>
      </trkpt>
      <trkpt lat="46.54955" lon="6.12304">
        <ele>1199.38</ele>
        <time>2012-05-25T12:25:23Z</time>
      </trkpt>
      <trkpt lat="46.54957" lon="6.12307">
        <ele>1198.9</ele>
        <time>2012-05-25T12:25:24Z</time>
      </trkpt>
      <trkpt lat="46.54958" lon="6.12309">
        <ele>1198.42</ele>
        <time>2012-05-25T12:25:25Z</time>
      </trkpt>
      <trkpt lat="46.54963" lon="6.12319">
        <ele>1198.42</ele>
        <time>2012-05-25T12:25:30Z</time>
      </trkpt>
      <trkpt lat="46.54964" lon="6.12321">
        <ele>1198.9</ele>
        <time>2012-05-25T12:25:31Z</time>
      </trkpt>
      <trkpt lat="46.54964" lon="6.12323">
        <ele>1198.9</ele>
        <time>2012-05-25T12:25:32Z</time>
      </trkpt>
      <trkpt lat="46.54965" lon="6.12325">
        <ele>1197.94</ele>
        <time>2012-05-25T12:25:33Z</time>
      </trkpt>
      <trkpt lat="46.54966" lon="6.12327">
        <ele>1198.9</ele>
        <time>2012-05-25T12:25:34Z</time>
      </trkpt>
      <trkpt lat="46.54967" lon="6.12329">
        <ele>1198.9</ele>
        <time>2012-05-25T12:25:35Z</time>
      </trkpt>
      <trkpt lat="46.54977" lon="6.12343">
        <ele>1199.86</ele>
        <time>2012-05-25T12:25:45Z</time>
      </trkpt>
      <trkpt lat="46.54982" lon="6.12347">
        <ele>1198.9</ele>
        <time>2012-05-25T12:25:55Z</time>
      </trkpt>
      <trkpt lat="46.54982" lon="6.12347">
        <ele>1198.42</ele>
        <time>2012-05-25T12:26:08Z</time>
      </trkpt>
      <trkpt lat="46.54982" lon="6.12347">
        <ele>1199.38</ele>
        <time>2012-05-25T12:26:12Z</time>
      </trkpt>
      <trkpt lat="46.54982" lon="6.12348">
        <ele>1200.34</ele>
        <time>2012-05-25T12:26:50Z</time>
      </trkpt>
      <trkpt lat="46.54982" lon="6.12348">
        <ele>1198.42</ele>
        <time>2012-05-25T12:27:07Z</time>
      </trkpt>
      <trkpt lat="46.54982" lon="6.12348">
        <ele>1200.34</ele>
        <time>2012-05-25T12:27:23Z</time>
      </trkpt>
      <trkpt lat="46.54982" lon="6.12348">
        <ele>1198.42</ele>
        <time>2012-05-25T12:27:27Z</time>
      </trkpt>
      <trkpt lat="46.54982" lon="6.12348">
        <ele>1199.86</ele>
        <time>2012-05-25T12:27:32Z</time>
      </trkpt>
      <trkpt lat="46.54982" lon="6.12348">
        <ele>1198.9</ele>
        <time>2012-05-25T12:27:34Z</time>
      </trkpt>
      <trkpt lat="46.54982" lon="6.12349">
        <ele>1200.34</ele>
        <time>2012-05-25T12:28:24Z</time>
      </trkpt>
      <trkpt lat="46.54983" lon="6.1235">
        <ele>1199.86</ele>
        <time>2012-05-25T12:29:49Z</time>
      </trkpt>
      <trkpt lat="46.54983" lon="6.12349">
        <ele>1200.82</ele>
        <time>2012-05-25T12:30:51Z</time>
      </trkpt>
      <trkpt lat="46.54983" lon="6.12349">
        <ele>1199.38</ele>
        <time>2012-05-25T12:30:54Z</time>
      </trkpt>
      <trkpt lat="46.54983" lon="6.1235">
        <ele>1200.34</ele>
        <time>2012-05-25T12:31:33Z</time>
      </trkpt>
      <trkpt lat="46.54983" lon="6.12349">
        <ele>1198.9</ele>
        <time>2012-05-25T12:31:55Z</time>
      </trkpt>
      <trkpt lat="46.54983" lon="6.12349">
        <ele>1201.3</ele>
        <time>2012-05-25T12:32:04Z</time>
      </trkpt>
      <trkpt lat="46.54983" lon="6.12349">
        <ele>1200.82</ele>
        <time>2012-05-25T12:32:24Z</time>
      </trkpt>
      <trkpt lat="46.54983" lon="6.12349">
        <ele>1199.86</ele>
        <time>2012-05-25T12:32:26Z</time>
      </trkpt>
      <trkpt lat="46.54983" lon="6.1235">
        <ele>1200.82</ele>
        <time>2012-05-25T12:32:54Z</time>
      </trkpt>
      <trkpt lat="46.54983" lon="6.1235">
        <ele>1199.38</ele>
        <time>2012-05-25T12:32:56Z</time>
      </trkpt>
      <trkpt lat="46.54984" lon="6.12351">
        <ele>1200.82</ele>
        <time>2012-05-25T12:33:20Z</time>
      </trkpt>
      <trkpt lat="46.54984" lon="6.12354">
        <ele>1199.86</ele>
        <time>2012-05-25T12:34:52Z</time>
      </trkpt>
      <trkpt lat="46.54988" lon="6.12356">
        <ele>1201.3</ele>
        <time>2012-05-25T12:35:59Z</time>
      </trkpt>
      <trkpt lat="46.54991" lon="6.12355">
        <ele>1201.3</ele>
        <time>2012-05-25T12:36:00Z</time>
      </trkpt>
      <trkpt lat="46.54992" lon="6.12353">
        <ele>1200.34</ele>
        <time>2012-05-25T12:36:01Z</time>
      </trkpt>
      <trkpt lat="46.54993" lon="6.12351">
        <ele>1199.86</ele>
        <time>2012-05-25T12:36:02Z</time>
      </trkpt>
      <trkpt lat="46.54995" lon="6.12349">
        <ele>1201.3</ele>
        <time>2012-05-25T12:36:03Z</time>
      </trkpt>
      <trkpt lat="46.54996" lon="6.12346">
        <ele>1200.34</ele>
        <time>2012-05-25T12:36:04Z</time>
      </trkpt>
      <trkpt lat="46.54998" lon="6.12343">
        <ele>1200.34</ele>
        <time>2012-05-25T12:36:05Z</time>
      </trkpt>
      <trkpt lat="46.55" lon="6.1234">
        <ele>1200.34</ele>
        <time>2012-05-25T12:36:06Z</time>
      </trkpt>
      <trkpt lat="46.55002" lon="6.12338">
        <ele>1200.34</ele>
        <time>2012-05-25T12:36:07Z</time>
      </trkpt>
      <trkpt lat="46.55005" lon="6.12335">
        <ele>1200.82</ele>
        <time>2012-05-25T12:36:08Z</time>
      </trkpt>
      <trkpt lat="46.55008" lon="6.12333">
        <ele>1200.34</ele>
        <time>2012-05-25T12:36:09Z</time>
      </trkpt>
      <trkpt lat="46.55011" lon="6.12331">
        <ele>1199.38</ele>
        <time>2012-05-25T12:36:10Z</time>
      </trkpt>
      <trkpt lat="46.55015" lon="6.12329">
        <ele>1199.38</ele>
        <time>2012-05-25T12:36:11Z</time>
      </trkpt>
      <trkpt lat="46.55019" lon="6.12329">
        <ele>1200.34</ele>
        <time>2012-05-25T12:36:12Z</time>
      </trkpt>
      <trkpt lat="46.55023" lon="6.12329">
        <ele>1200.34</ele>
        <time>2012-05-25T12:36:13Z</time>
      </trkpt>
      <trkpt lat="46.55027" lon="6.12331">
        <ele>1199.86</ele>
        <time>2012-05-25T12:36:14Z</time>
      </trkpt>
      <trkpt lat="46.55031" lon="6.12332">
        <ele>1199.86</ele>
        <time>2012-05-25T12:36:15Z</time>
      </trkpt>
      <trkpt lat="46.55034" lon="6.12334">
        <ele>1199.38</ele>
        <time>2012-05-25T12:36:16Z</time>
      </trkpt>
      <trkpt lat="46.55038" lon="6.12336">
        <ele>1198.9</ele>
        <time>2012-05-25T12:36:17Z</time>
      </trkpt>
      <trkpt lat="46.55087" lon="6.12343">
        <ele>1200.82</ele>
        <time>2012-05-25T12:36:29Z</time>
      </trkpt>
      <trkpt lat="46.551" lon="6.12343">
        <ele>1199.86</ele>
        <time>2012-05-25T12:36:32Z</time>
      </trkpt>
      <trkpt lat="46.55105" lon="6.12344">
        <ele>1199.86</ele>
        <time>2012-05-25T12:36:33Z</time>
      </trkpt>
      <trkpt lat="46.55142" lon="6.12349">
        <ele>1200.82</ele>
        <time>2012-05-25T12:36:41Z</time>
      </trkpt>
      <trkpt lat="46.55182" lon="6.12359">
        <ele>1202.27</ele>
        <time>2012-05-25T12:36:51Z</time>
      </trkpt>
      <trkpt lat="46.55204" lon="6.12365">
        <ele>1203.23</ele>
        <time>2012-05-25T12:36:57Z</time>
      </trkpt>
      <trkpt lat="46.55243" lon="6.12372">
        <ele>1205.63</ele>
        <time>2012-05-25T12:37:09Z</time>
      </trkpt>
      <trkpt lat="46.5527" lon="6.12338">
        <ele>1205.63</ele>
        <time>2012-05-25T12:37:19Z</time>
      </trkpt>
      <trkpt lat="46.55288" lon="6.12278">
        <ele>1205.63</ele>
        <time>2012-05-25T12:37:28Z</time>
      </trkpt>
      <trkpt lat="46.55291" lon="6.12272">
        <ele>1205.63</ele>
        <time>2012-05-25T12:37:29Z</time>
      </trkpt>
      <trkpt lat="46.55298" lon="6.1226">
        <ele>1206.11</ele>
        <time>2012-05-25T12:37:31Z</time>
      </trkpt>
      <trkpt lat="46.55305" lon="6.1225">
        <ele>1206.11</ele>
        <time>2012-05-25T12:37:33Z</time>
      </trkpt>
      <trkpt lat="46.55317" lon="6.1224">
        <ele>1207.55</ele>
        <time>2012-05-25T12:37:36Z</time>
      </trkpt>
      <trkpt lat="46.55321" lon="6.12238">
        <ele>1206.11</ele>
        <time>2012-05-25T12:37:37Z</time>
      </trkpt>
      <trkpt lat="46.55325" lon="6.12236">
        <ele>1206.59</ele>
        <time>2012-05-25T12:37:38Z</time>
      </trkpt>
      <trkpt lat="46.5533" lon="6.12234">
        <ele>1207.07</ele>
        <time>2012-05-25T12:37:39Z</time>
      </trkpt>
      <trkpt lat="46.55334" lon="6.12233">
        <ele>1207.55</ele>
        <time>2012-05-25T12:37:40Z</time>
      </trkpt>
      <trkpt lat="46.55339" lon="6.12232">
        <ele>1207.55</ele>
        <time>2012-05-25T12:37:41Z</time>
      </trkpt>
      <trkpt lat="46.55367" lon="6.12229">
        <ele>1208.03</ele>
        <time>2012-05-25T12:37:48Z</time>
      </trkpt>
      <trkpt lat="46.55392" lon="6.12219">
        <ele>1207.07</ele>
        <time>2012-05-25T12:37:55Z</time>
      </trkpt>
      <trkpt lat="46.55397" lon="6.12219">
        <ele>1207.55</ele>
        <time>2012-05-25T12:37:56Z</time>
      </trkpt>
      <trkpt lat="46.55401" lon="6.12221">
        <ele>1206.59</ele>
        <time>2012-05-25T12:37:57Z</time>
      </trkpt>
      <trkpt lat="46.55406" lon="6.12223">
        <ele>1207.55</ele>
        <time>2012-05-25T12:37:58Z</time>
      </trkpt>
      <trkpt lat="46.55411" lon="6.12225">
        <ele>1207.07</ele>
        <time>2012-05-25T12:37:59Z</time>
      </trkpt>
      <trkpt lat="46.55438" lon="6.12244">
        <ele>1208.03</ele>
        <time>2012-05-25T12:38:07Z</time>
      </trkpt>
      <trkpt lat="46.55439" lon="6.12249">
        <ele>1208.03</ele>
        <time>2012-05-25T12:38:08Z</time>
      </trkpt>
      <trkpt lat="46.5544" lon="6.12254">
        <ele>1208.03</ele>
        <time>2012-05-25T12:38:09Z</time>
      </trkpt>
      <trkpt lat="46.55442" lon="6.12281">
        <ele>1206.59</ele>
        <time>2012-05-25T12:38:13Z</time>
      </trkpt>
      <trkpt lat="46.55443" lon="6.12298">
        <ele>1206.59</ele>
        <time>2012-05-25T12:38:15Z</time>
      </trkpt>
      <trkpt lat="46.55443" lon="6.12308">
        <ele>1205.15</ele>
        <time>2012-05-25T12:38:16Z</time>
      </trkpt>
      <trkpt lat="46.55443" lon="6.12318">
        <ele>1205.15</ele>
        <time>2012-05-25T12:38:17Z</time>
      </trkpt>
      <trkpt lat="46.55444" lon="6.12328">
        <ele>1203.23</ele>
        <time>2012-05-25T12:38:18Z</time>
      </trkpt>
      <trkpt lat="46.55446" lon="6.12337">
        <ele>1204.67</ele>
        <time>2012-05-25T12:38:19Z</time>
      </trkpt>
      <trkpt lat="46.55449" lon="6.12344">
        <ele>1204.67</ele>
        <time>2012-05-25T12:38:20Z</time>
      </trkpt>
      <trkpt lat="46.55454" lon="6.1235">
        <ele>1204.67</ele>
        <time>2012-05-25T12:38:21Z</time>
      </trkpt>
      <trkpt lat="46.5546" lon="6.12361">
        <ele>1203.71</ele>
        <time>2012-05-25T12:38:23Z</time>
      </trkpt>
      <trkpt lat="46.55463" lon="6.12367">
        <ele>1203.71</ele>
        <time>2012-05-25T12:38:24Z</time>
      </trkpt>
      <trkpt lat="46.55475" lon="6.124">
        <ele>1202.75</ele>
        <time>2012-05-25T12:38:28Z</time>
      </trkpt>
      <trkpt lat="46.55479" lon="6.12407">
        <ele>1201.3</ele>
        <time>2012-05-25T12:38:29Z</time>
      </trkpt>
      <trkpt lat="46.55483" lon="6.12412">
        <ele>1202.27</ele>
        <time>2012-05-25T12:38:30Z</time>
      </trkpt>
      <trkpt lat="46.55486" lon="6.12416">
        <ele>1201.79</ele>
        <time>2012-05-25T12:38:31Z</time>
      </trkpt>
      <trkpt lat="46.55489" lon="6.12419">
        <ele>1202.75</ele>
        <time>2012-05-25T12:38:32Z</time>
      </trkpt>
      <trkpt lat="46.55496" lon="6.12422">
        <ele>1202.75</ele>
        <time>2012-05-25T12:38:34Z</time>
      </trkpt>
      <trkpt lat="46.55509" lon="6.12447">
        <ele>1200.34</ele>
        <time>2012-05-25T12:39:45Z</time>
      </trkpt>
      <trkpt lat="46.55511" lon="6.12451">
        <ele>1201.79</ele>
        <time>2012-05-25T12:39:46Z</time>
      </trkpt>
      <trkpt lat="46.55513" lon="6.12456">
        <ele>1201.3</ele>
        <time>2012-05-25T12:39:47Z</time>
      </trkpt>
      <trkpt lat="46.5552" lon="6.12478">
        <ele>1201.79</ele>
        <time>2012-05-25T12:39:51Z</time>
      </trkpt>
      <trkpt lat="46.5552" lon="6.12484">
        <ele>1201.79</ele>
        <time>2012-05-25T12:39:52Z</time>
      </trkpt>
      <trkpt lat="46.5552" lon="6.1249">
        <ele>1201.3</ele>
        <time>2012-05-25T12:39:53Z</time>
      </trkpt>
      <trkpt lat="46.5552" lon="6.12495">
        <ele>1201.3</ele>
        <time>2012-05-25T12:39:54Z</time>
      </trkpt>
      <trkpt lat="46.55518" lon="6.125">
        <ele>1201.3</ele>
        <time>2012-05-25T12:39:55Z</time>
      </trkpt>
      <trkpt lat="46.55517" lon="6.12504">
        <ele>1201.3</ele>
        <time>2012-05-25T12:39:56Z</time>
      </trkpt>
      <trkpt lat="46.55515" lon="6.12509">
        <ele>1201.79</ele>
        <time>2012-05-25T12:39:57Z</time>
      </trkpt>
      <trkpt lat="46.55513" lon="6.12513">
        <ele>1201.3</ele>
        <time>2012-05-25T12:39:58Z</time>
      </trkpt>
      <trkpt lat="46.55509" lon="6.12517">
        <ele>1200.82</ele>
        <time>2012-05-25T12:39:59Z</time>
      </trkpt>
      <trkpt lat="46.55506" lon="6.12521">
        <ele>1200.82</ele>
        <time>2012-05-25T12:40:00Z</time>
      </trkpt>
      <trkpt lat="46.55496" lon="6.1253">
        <ele>1199.38</ele>
        <time>2012-05-25T12:40:02Z</time>
      </trkpt>
      <trkpt lat="46.55493" lon="6.12537">
        <ele>1198.9</ele>
        <time>2012-05-25T12:40:03Z</time>
      </trkpt>
      <trkpt lat="46.5549" lon="6.12545">
        <ele>1199.38</ele>
        <time>2012-05-25T12:40:04Z</time>
      </trkpt>
      <trkpt lat="46.55489" lon="6.12553">
        <ele>1198.9</ele>
        <time>2012-05-25T12:40:05Z</time>
      </trkpt>
      <trkpt lat="46.5549" lon="6.12563">
        <ele>1197.94</ele>
        <time>2012-05-25T12:40:06Z</time>
      </trkpt>
      <trkpt lat="46.55492" lon="6.1257">
        <ele>1198.9</ele>
        <time>2012-05-25T12:40:07Z</time>
      </trkpt>
      <trkpt lat="46.55495" lon="6.12577">
        <ele>1198.42</ele>
        <time>2012-05-25T12:40:08Z</time>
      </trkpt>
      <trkpt lat="46.55499" lon="6.12582">
        <ele>1197.94</ele>
        <time>2012-05-25T12:40:09Z</time>
      </trkpt>
      <trkpt lat="46.55502" lon="6.12587">
        <ele>1198.9</ele>
        <time>2012-05-25T12:40:10Z</time>
      </trkpt>
      <trkpt lat="46.55504" lon="6.12592">
        <ele>1199.38</ele>
        <time>2012-05-25T12:40:11Z</time>
      </trkpt>
      <trkpt lat="46.5552" lon="6.12621">
        <ele>1201.3</ele>
        <time>2012-05-25T12:40:18Z</time>
      </trkpt>
      <trkpt lat="46.55536" lon="6.12642">
        <ele>1202.75</ele>
        <time>2012-05-25T12:40:25Z</time>
      </trkpt>
      <trkpt lat="46.55559" lon="6.12662">
        <ele>1201.3</ele>
        <time>2012-05-25T12:40:33Z</time>
      </trkpt>
      <trkpt lat="46.55563" lon="6.12666">
        <ele>1201.3</ele>
        <time>2012-05-25T12:40:34Z</time>
      </trkpt>
      <trkpt lat="46.55567" lon="6.1267">
        <ele>1200.82</ele>
        <time>2012-05-25T12:40:35Z</time>
      </trkpt>
      <trkpt lat="46.5557" lon="6.12676">
        <ele>1200.82</ele>
        <time>2012-05-25T12:40:36Z</time>
      </trkpt>
      <trkpt lat="46.55573" lon="6.12681">
        <ele>1201.3</ele>
        <time>2012-05-25T12:40:37Z</time>
      </trkpt>
      <trkpt lat="46.55576" lon="6.12686">
        <ele>1202.27</ele>
        <time>2012-05-25T12:40:38Z</time>
      </trkpt>
      <trkpt lat="46.55578" lon="6.1269">
        <ele>1200.82</ele>
        <time>2012-05-25T12:40:39Z</time>
      </trkpt>
      <trkpt lat="46.55581" lon="6.12695">
        <ele>1201.3</ele>
        <time>2012-05-25T12:40:40Z</time>
      </trkpt>
      <trkpt lat="46.55596" lon="6.12728">
        <ele>1202.75</ele>
        <time>2012-05-25T12:40:48Z</time>
      </trkpt>
      <trkpt lat="46.55619" lon="6.12795">
        <ele>1201.3</ele>
        <time>2012-05-25T12:41:01Z</time>
      </trkpt>
      <trkpt lat="46.55646" lon="6.12846">
        <ele>1202.27</ele>
        <time>2012-05-25T12:41:13Z</time>
      </trkpt>
      <trkpt lat="46.55673" lon="6.12901">
        <ele>1204.19</ele>
        <time>2012-05-25T12:41:26Z</time>
      </trkpt>
      <trkpt lat="46.55681" lon="6.12913">
        <ele>1205.63</ele>
        <time>2012-05-25T12:41:30Z</time>
      </trkpt>
      <trkpt lat="46.55694" lon="6.12933">
        <ele>1209</ele>
        <time>2012-05-25T12:41:38Z</time>
      </trkpt>
      <trkpt lat="46.55701" lon="6.1294">
        <ele>1206.59</ele>
        <time>2012-05-25T12:41:41Z</time>
      </trkpt>
      <trkpt lat="46.55725" lon="6.12978">
        <ele>1207.55</ele>
        <time>2012-05-25T12:41:55Z</time>
      </trkpt>
      <trkpt lat="46.55743" lon="6.13019">
        <ele>1208.51</ele>
        <time>2012-05-25T12:42:09Z</time>
      </trkpt>
      <trkpt lat="46.5575" lon="6.13036">
        <ele>1208.03</ele>
        <time>2012-05-25T12:42:13Z</time>
      </trkpt>
      <trkpt lat="46.55766" lon="6.13049">
        <ele>1211.4</ele>
        <time>2012-05-25T12:42:20Z</time>
      </trkpt>
      <trkpt lat="46.55788" lon="6.13065">
        <ele>1213.32</ele>
        <time>2012-05-25T12:42:32Z</time>
      </trkpt>
      <trkpt lat="46.55789" lon="6.13067">
        <ele>1213.32</ele>
        <time>2012-05-25T12:42:33Z</time>
      </trkpt>
      <trkpt lat="46.55811" lon="6.13092">
        <ele>1213.32</ele>
        <time>2012-05-25T12:42:44Z</time>
      </trkpt>
      <trkpt lat="46.55828" lon="6.13114">
        <ele>1215.24</ele>
        <time>2012-05-25T12:42:55Z</time>
      </trkpt>
      <trkpt lat="46.55847" lon="6.13144">
        <ele>1214.76</ele>
        <time>2012-05-25T12:43:06Z</time>
      </trkpt>
      <trkpt lat="46.5586" lon="6.13173">
        <ele>1214.76</ele>
        <time>2012-05-25T12:43:16Z</time>
      </trkpt>
      <trkpt lat="46.55879" lon="6.13214">
        <ele>1215.24</ele>
        <time>2012-05-25T12:43:29Z</time>
      </trkpt>
      <trkpt lat="46.55894" lon="6.13224">
        <ele>1216.69</ele>
        <time>2012-05-25T12:43:36Z</time>
      </trkpt>
      <trkpt lat="46.55922" lon="6.13225">
        <ele>1218.61</ele>
        <time>2012-05-25T12:43:48Z</time>
      </trkpt>
      <trkpt lat="46.55946" lon="6.13219">
        <ele>1220.53</ele>
        <time>2012-05-25T12:44:00Z</time>
      </trkpt>
      <trkpt lat="46.55953" lon="6.13218">
        <ele>1223.42</ele>
        <time>2012-05-25T12:44:04Z</time>
      </trkpt>
      <trkpt lat="46.55979" lon="6.13215">
        <ele>1222.93</ele>
        <time>2012-05-25T12:44:16Z</time>
      </trkpt>
      <trkpt lat="46.56003" lon="6.13213">
        <ele>1223.9</ele>
        <time>2012-05-25T12:44:27Z</time>
      </trkpt>
      <trkpt lat="46.56004" lon="6.13211">
        <ele>1223.9</ele>
        <time>2012-05-25T12:44:28Z</time>
      </trkpt>
      <trkpt lat="46.56006" lon="6.1321">
        <ele>1224.86</ele>
        <time>2012-05-25T12:44:29Z</time>
      </trkpt>
      <trkpt lat="46.56012" lon="6.13207">
        <ele>1224.38</ele>
        <time>2012-05-25T12:44:33Z</time>
      </trkpt>
      <trkpt lat="46.56014" lon="6.13199">
        <ele>1226.3</ele>
        <time>2012-05-25T12:44:44Z</time>
      </trkpt>
      <trkpt lat="46.56014" lon="6.13199">
        <ele>1222.45</ele>
        <time>2012-05-25T12:45:27Z</time>
      </trkpt>
      <trkpt lat="46.56014" lon="6.13199">
        <ele>1226.3</ele>
        <time>2012-05-25T12:45:30Z</time>
      </trkpt>
      <trkpt lat="46.56014" lon="6.13199">
        <ele>1222.93</ele>
        <time>2012-05-25T12:45:34Z</time>
      </trkpt>
      <trkpt lat="46.56014" lon="6.13199">
        <ele>1226.3</ele>
        <time>2012-05-25T12:45:37Z</time>
      </trkpt>
      <trkpt lat="46.56014" lon="6.13199">
        <ele>1224.86</ele>
        <time>2012-05-25T12:45:40Z</time>
      </trkpt>
      <trkpt lat="46.56014" lon="6.13199">
        <ele>1224.38</ele>
        <time>2012-05-25T12:46:06Z</time>
      </trkpt>
      <trkpt lat="46.56014" lon="6.13199">
        <ele>1226.3</ele>
        <time>2012-05-25T12:46:22Z</time>
      </trkpt>
      <trkpt lat="46.56015" lon="6.13198">
        <ele>1225.82</ele>
        <time>2012-05-25T12:46:54Z</time>
      </trkpt>
      <trkpt lat="46.56015" lon="6.13198">
        <ele>1224.86</ele>
        <time>2012-05-25T12:47:04Z</time>
      </trkpt>
      <trkpt lat="46.56015" lon="6.13198">
        <ele>1224.38</ele>
        <time>2012-05-25T12:47:43Z</time>
      </trkpt>
      <trkpt lat="46.56015" lon="6.13198">
        <ele>1226.3</ele>
        <time>2012-05-25T12:47:46Z</time>
      </trkpt>
      <trkpt lat="46.56015" lon="6.13198">
        <ele>1224.86</ele>
        <time>2012-05-25T12:47:48Z</time>
      </trkpt>
      <trkpt lat="46.56015" lon="6.13198">
        <ele>1225.82</ele>
        <time>2012-05-25T12:47:56Z</time>
      </trkpt>
      <trkpt lat="46.56015" lon="6.13199">
        <ele>1224.86</ele>
        <time>2012-05-25T12:48:17Z</time>
      </trkpt>
      <trkpt lat="46.56015" lon="6.13199">
        <ele>1225.82</ele>
        <time>2012-05-25T12:48:23Z</time>
      </trkpt>
      <trkpt lat="46.56015" lon="6.13199">
        <ele>1223.42</ele>
        <time>2012-05-25T12:48:38Z</time>
      </trkpt>
      <trkpt lat="46.56014" lon="6.13198">
        <ele>1222.93</ele>
        <time>2012-05-25T12:50:07Z</time>
      </trkpt>
      <trkpt lat="46.56012" lon="6.13194">
        <ele>1222.93</ele>
        <time>2012-05-25T12:50:10Z</time>
      </trkpt>
      <trkpt lat="46.56011" lon="6.13192">
        <ele>1223.9</ele>
        <time>2012-05-25T12:50:11Z</time>
      </trkpt>
      <trkpt lat="46.56008" lon="6.13185">
        <ele>1221.49</ele>
        <time>2012-05-25T12:50:14Z</time>
      </trkpt>
      <trkpt lat="46.56003" lon="6.13177">
        <ele>1222.93</ele>
        <time>2012-05-25T12:50:18Z</time>
      </trkpt>
      <trkpt lat="46.56001" lon="6.13171">
        <ele>1222.45</ele>
        <time>2012-05-25T12:50:20Z</time>
      </trkpt>
      <trkpt lat="46.55991" lon="6.13149">
        <ele>1224.38</ele>
        <time>2012-05-25T12:50:32Z</time>
      </trkpt>
      <trkpt lat="46.5599" lon="6.13141">
        <ele>1225.34</ele>
        <time>2012-05-25T12:50:35Z</time>
      </trkpt>
      <trkpt lat="46.55988" lon="6.1313">
        <ele>1223.42</ele>
        <time>2012-05-25T12:50:40Z</time>
      </trkpt>
      <trkpt lat="46.55986" lon="6.13101">
        <ele>1222.45</ele>
        <time>2012-05-25T12:50:51Z</time>
      </trkpt>
      <trkpt lat="46.55988" lon="6.1307">
        <ele>1221.01</ele>
        <time>2012-05-25T12:51:03Z</time>
      </trkpt>
      <trkpt lat="46.5598" lon="6.13059">
        <ele>1221.49</ele>
        <time>2012-05-25T12:51:12Z</time>
      </trkpt>
      <trkpt lat="46.55975" lon="6.13048">
        <ele>1220.53</ele>
        <time>2012-05-25T12:51:23Z</time>
      </trkpt>
      <trkpt lat="46.55974" lon="6.13045">
        <ele>1221.49</ele>
        <time>2012-05-25T12:51:28Z</time>
      </trkpt>
      <trkpt lat="46.55981" lon="6.13026">
        <ele>1222.93</ele>
        <time>2012-05-25T12:51:36Z</time>
      </trkpt>
      <trkpt lat="46.55982" lon="6.13023">
        <ele>1222.45</ele>
        <time>2012-05-25T12:51:37Z</time>
      </trkpt>
      <trkpt lat="46.55987" lon="6.13012">
        <ele>1222.93</ele>
        <time>2012-05-25T12:51:42Z</time>
      </trkpt>
      <trkpt lat="46.55997" lon="6.1299">
        <ele>1226.78</ele>
        <time>2012-05-25T12:51:52Z</time>
      </trkpt>
      <trkpt lat="46.55998" lon="6.12988">
        <ele>1226.3</ele>
        <time>2012-05-25T12:51:53Z</time>
      </trkpt>
      <trkpt lat="46.56011" lon="6.12966">
        <ele>1227.74</ele>
        <time>2012-05-25T12:52:04Z</time>
      </trkpt>
      <trkpt lat="46.56013" lon="6.12964">
        <ele>1227.26</ele>
        <time>2012-05-25T12:52:05Z</time>
      </trkpt>
      <trkpt lat="46.56021" lon="6.12948">
        <ele>1227.74</ele>
        <time>2012-05-25T12:52:11Z</time>
      </trkpt>
      <trkpt lat="46.56036" lon="6.12924">
        <ele>1228.7</ele>
        <time>2012-05-25T12:52:22Z</time>
      </trkpt>
      <trkpt lat="46.56041" lon="6.12918">
        <ele>1227.74</ele>
        <time>2012-05-25T12:52:34Z</time>
      </trkpt>
      <trkpt lat="46.56051" lon="6.129">
        <ele>1226.3</ele>
        <time>2012-05-25T12:52:44Z</time>
      </trkpt>
      <trkpt lat="46.56072" lon="6.12882">
        <ele>1222.45</ele>
        <time>2012-05-25T12:52:54Z</time>
      </trkpt>
      <trkpt lat="46.56084" lon="6.12873">
        <ele>1219.57</ele>
        <time>2012-05-25T12:53:01Z</time>
      </trkpt>
      <trkpt lat="46.56093" lon="6.1286">
        <ele>1216.69</ele>
        <time>2012-05-25T12:53:06Z</time>
      </trkpt>
      <trkpt lat="46.56107" lon="6.1284">
        <ele>1212.84</ele>
        <time>2012-05-25T12:53:13Z</time>
      </trkpt>
      <trkpt lat="46.56109" lon="6.12835">
        <ele>1212.84</ele>
        <time>2012-05-25T12:53:14Z</time>
      </trkpt>
      <trkpt lat="46.56121" lon="6.12809">
        <ele>1213.32</ele>
        <time>2012-05-25T12:53:22Z</time>
      </trkpt>
      <trkpt lat="46.56124" lon="6.12801">
        <ele>1214.28</ele>
        <time>2012-05-25T12:53:30Z</time>
      </trkpt>
      <trkpt lat="46.56125" lon="6.128">
        <ele>1214.76</ele>
        <time>2012-05-25T12:53:31Z</time>
      </trkpt>
      <trkpt lat="46.56132" lon="6.12788">
        <ele>1214.76</ele>
        <time>2012-05-25T12:53:41Z</time>
      </trkpt>
      <trkpt lat="46.56136" lon="6.12778">
        <ele>1217.65</ele>
        <time>2012-05-25T12:53:52Z</time>
      </trkpt>
      <trkpt lat="46.56136" lon="6.12775">
        <ele>1218.13</ele>
        <time>2012-05-25T12:53:57Z</time>
      </trkpt>
      <trkpt lat="46.56137" lon="6.12771">
        <ele>1218.13</ele>
        <time>2012-05-25T12:54:00Z</time>
      </trkpt>
      <trkpt lat="46.56139" lon="6.12766">
        <ele>1217.65</ele>
        <time>2012-05-25T12:54:02Z</time>
      </trkpt>
      <trkpt lat="46.5614" lon="6.12764">
        <ele>1217.17</ele>
        <time>2012-05-25T12:54:03Z</time>
      </trkpt>
      <trkpt lat="46.5614" lon="6.12761">
        <ele>1217.17</ele>
        <time>2012-05-25T12:54:04Z</time>
      </trkpt>
      <trkpt lat="46.56141" lon="6.12757">
        <ele>1216.69</ele>
        <time>2012-05-25T12:54:05Z</time>
      </trkpt>
      <trkpt lat="46.56144" lon="6.12749">
        <ele>1216.21</ele>
        <time>2012-05-25T12:54:08Z</time>
      </trkpt>
      <trkpt lat="46.56144" lon="6.12745">
        <ele>1215.72</ele>
        <time>2012-05-25T12:54:09Z</time>
      </trkpt>
      <trkpt lat="46.56145" lon="6.1274">
        <ele>1217.17</ele>
        <time>2012-05-25T12:54:10Z</time>
      </trkpt>
      <trkpt lat="46.56146" lon="6.12737">
        <ele>1216.69</ele>
        <time>2012-05-25T12:54:11Z</time>
      </trkpt>
      <trkpt lat="46.56147" lon="6.12733">
        <ele>1215.24</ele>
        <time>2012-05-25T12:54:12Z</time>
      </trkpt>
      <trkpt lat="46.56147" lon="6.12731">
        <ele>1215.24</ele>
        <time>2012-05-25T12:54:13Z</time>
      </trkpt>
      <trkpt lat="46.56147" lon="6.12729">
        <ele>1215.72</ele>
        <time>2012-05-25T12:54:14Z</time>
      </trkpt>
      <trkpt lat="46.56146" lon="6.12727">
        <ele>1215.72</ele>
        <time>2012-05-25T12:54:15Z</time>
      </trkpt>
      <trkpt lat="46.56146" lon="6.12723">
        <ele>1215.72</ele>
        <time>2012-05-25T12:54:17Z</time>
      </trkpt>
      <trkpt lat="46.56153" lon="6.12714">
        <ele>1214.28</ele>
        <time>2012-05-25T12:54:27Z</time>
      </trkpt>
      <trkpt lat="46.56157" lon="6.12706">
        <ele>1212.84</ele>
        <time>2012-05-25T12:54:33Z</time>
      </trkpt>
      <trkpt lat="46.56158" lon="6.12703">
        <ele>1213.32</ele>
        <time>2012-05-25T12:54:34Z</time>
      </trkpt>
      <trkpt lat="46.56158" lon="6.12697">
        <ele>1212.84</ele>
        <time>2012-05-25T12:54:37Z</time>
      </trkpt>
      <trkpt lat="46.56158" lon="6.12695">
        <ele>1212.84</ele>
        <time>2012-05-25T12:54:38Z</time>
      </trkpt>
      <trkpt lat="46.56163" lon="6.12685">
        <ele>1212.84</ele>
        <time>2012-05-25T12:54:44Z</time>
      </trkpt>
      <trkpt lat="46.56167" lon="6.12677">
        <ele>1212.36</ele>
        <time>2012-05-25T12:54:50Z</time>
      </trkpt>
      <trkpt lat="46.56168" lon="6.12676">
        <ele>1211.88</ele>
        <time>2012-05-25T12:54:51Z</time>
      </trkpt>
      <trkpt lat="46.56172" lon="6.12673">
        <ele>1212.84</ele>
        <time>2012-05-25T12:54:54Z</time>
      </trkpt>
      <trkpt lat="46.56178" lon="6.12666">
        <ele>1213.32</ele>
        <time>2012-05-25T12:54:59Z</time>
      </trkpt>
      <trkpt lat="46.5618" lon="6.12668">
        <ele>1212.36</ele>
        <time>2012-05-25T12:55:01Z</time>
      </trkpt>
      <trkpt lat="46.56193" lon="6.1265">
        <ele>1215.24</ele>
        <time>2012-05-25T12:55:15Z</time>
      </trkpt>
      <trkpt lat="46.56199" lon="6.12638">
        <ele>1218.61</ele>
        <time>2012-05-25T12:55:28Z</time>
      </trkpt>
      <trkpt lat="46.562" lon="6.12623">
        <ele>1220.05</ele>
        <time>2012-05-25T12:55:40Z</time>
      </trkpt>
      <trkpt lat="46.56199" lon="6.12612">
        <ele>1221.97</ele>
        <time>2012-05-25T12:55:51Z</time>
      </trkpt>
      <trkpt lat="46.56202" lon="6.12594">
        <ele>1223.42</ele>
        <time>2012-05-25T12:56:03Z</time>
      </trkpt>
      <trkpt lat="46.56202" lon="6.12585">
        <ele>1226.3</ele>
        <time>2012-05-25T12:56:10Z</time>
      </trkpt>
      <trkpt lat="46.56205" lon="6.12573">
        <ele>1224.86</ele>
        <time>2012-05-25T12:56:21Z</time>
      </trkpt>
      <trkpt lat="46.56206" lon="6.12568">
        <ele>1225.34</ele>
        <time>2012-05-25T12:56:24Z</time>
      </trkpt>
      <trkpt lat="46.56215" lon="6.12559">
        <ele>1226.3</ele>
        <time>2012-05-25T12:56:33Z</time>
      </trkpt>
      <trkpt lat="46.56218" lon="6.12548">
        <ele>1226.3</ele>
        <time>2012-05-25T12:56:37Z</time>
      </trkpt>
      <trkpt lat="46.56222" lon="6.1253">
        <ele>1225.34</ele>
        <time>2012-05-25T12:56:51Z</time>
      </trkpt>
      <trkpt lat="46.56225" lon="6.12521">
        <ele>1227.74</ele>
        <time>2012-05-25T12:57:02Z</time>
      </trkpt>
      <trkpt lat="46.56225" lon="6.12518">
        <ele>1225.34</ele>
        <time>2012-05-25T12:57:07Z</time>
      </trkpt>
      <trkpt lat="46.56222" lon="6.12505">
        <ele>1224.86</ele>
        <time>2012-05-25T12:57:12Z</time>
      </trkpt>
      <trkpt lat="46.56216" lon="6.12487">
        <ele>1223.9</ele>
        <time>2012-05-25T12:57:16Z</time>
      </trkpt>
      <trkpt lat="46.56197" lon="6.12453">
        <ele>1224.38</ele>
        <time>2012-05-25T12:57:27Z</time>
      </trkpt>
      <trkpt lat="46.56193" lon="6.1244">
        <ele>1225.82</ele>
        <time>2012-05-25T12:57:31Z</time>
      </trkpt>
      <trkpt lat="46.5619" lon="6.12425">
        <ele>1226.3</ele>
        <time>2012-05-25T12:57:36Z</time>
      </trkpt>
      <trkpt lat="46.56193" lon="6.12419">
        <ele>1225.82</ele>
        <time>2012-05-25T12:57:38Z</time>
      </trkpt>
      <trkpt lat="46.56195" lon="6.12409">
        <ele>1227.74</ele>
        <time>2012-05-25T12:57:43Z</time>
      </trkpt>
      <trkpt lat="46.56199" lon="6.12408">
        <ele>1226.78</ele>
        <time>2012-05-25T12:57:47Z</time>
      </trkpt>
      <trkpt lat="46.56207" lon="6.124">
        <ele>1224.86</ele>
        <time>2012-05-25T12:57:52Z</time>
      </trkpt>
      <trkpt lat="46.56217" lon="6.12401">
        <ele>1227.26</ele>
        <time>2012-05-25T12:57:56Z</time>
      </trkpt>
      <trkpt lat="46.5623" lon="6.12385">
        <ele>1228.7</ele>
        <time>2012-05-25T12:58:05Z</time>
      </trkpt>
      <trkpt lat="46.56232" lon="6.12371">
        <ele>1230.14</ele>
        <time>2012-05-25T12:58:09Z</time>
      </trkpt>
      <trkpt lat="46.56237" lon="6.12368">
        <ele>1232.55</ele>
        <time>2012-05-25T12:58:13Z</time>
      </trkpt>
      <trkpt lat="46.56241" lon="6.12362">
        <ele>1231.59</ele>
        <time>2012-05-25T12:58:16Z</time>
      </trkpt>
      <trkpt lat="46.56235" lon="6.12337">
        <ele>1232.07</ele>
        <time>2012-05-25T12:58:22Z</time>
      </trkpt>
      <trkpt lat="46.56242" lon="6.1233">
        <ele>1233.03</ele>
        <time>2012-05-25T12:58:28Z</time>
      </trkpt>
      <trkpt lat="46.56245" lon="6.12322">
        <ele>1233.99</ele>
        <time>2012-05-25T12:58:32Z</time>
      </trkpt>
      <trkpt lat="46.5625" lon="6.12314">
        <ele>1233.51</ele>
        <time>2012-05-25T12:58:35Z</time>
      </trkpt>
      <trkpt lat="46.56263" lon="6.12292">
        <ele>1235.43</ele>
        <time>2012-05-25T12:58:46Z</time>
      </trkpt>
      <trkpt lat="46.56271" lon="6.12285">
        <ele>1234.95</ele>
        <time>2012-05-25T12:58:57Z</time>
      </trkpt>
      <trkpt lat="46.56276" lon="6.12281">
        <ele>1236.39</ele>
        <time>2012-05-25T12:59:00Z</time>
      </trkpt>
      <trkpt lat="46.56279" lon="6.12279">
        <ele>1236.39</ele>
        <time>2012-05-25T12:59:03Z</time>
      </trkpt>
      <trkpt lat="46.56287" lon="6.12273">
        <ele>1238.32</ele>
        <time>2012-05-25T12:59:14Z</time>
      </trkpt>
      <trkpt lat="46.56289" lon="6.12272">
        <ele>1238.32</ele>
        <time>2012-05-25T12:59:19Z</time>
      </trkpt>
      <trkpt lat="46.56293" lon="6.12259">
        <ele>1239.28</ele>
        <time>2012-05-25T12:59:25Z</time>
      </trkpt>
      <trkpt lat="46.56306" lon="6.12236">
        <ele>1239.28</ele>
        <time>2012-05-25T12:59:37Z</time>
      </trkpt>
      <trkpt lat="46.56312" lon="6.12225">
        <ele>1239.28</ele>
        <time>2012-05-25T12:59:42Z</time>
      </trkpt>
      <trkpt lat="46.56317" lon="6.12214">
        <ele>1243.12</ele>
        <time>2012-05-25T12:59:48Z</time>
      </trkpt>
      <trkpt lat="46.56318" lon="6.12201">
        <ele>1243.12</ele>
        <time>2012-05-25T12:59:53Z</time>
      </trkpt>
      <trkpt lat="46.56319" lon="6.12178">
        <ele>1245.04</ele>
        <time>2012-05-25T13:00:03Z</time>
      </trkpt>
      <trkpt lat="46.56314" lon="6.12174">
        <ele>1243.12</ele>
        <time>2012-05-25T13:00:09Z</time>
      </trkpt>
      <trkpt lat="46.56314" lon="6.12174">
        <ele>1245.53</ele>
        <time>2012-05-25T13:00:10Z</time>
      </trkpt>
      <trkpt lat="46.56314" lon="6.12174">
        <ele>1244.08</ele>
        <time>2012-05-25T13:00:16Z</time>
      </trkpt>
      <trkpt lat="46.56313" lon="6.12174">
        <ele>1243.6</ele>
        <time>2012-05-25T13:02:33Z</time>
      </trkpt>
      <trkpt lat="46.56314" lon="6.12174">
        <ele>1246.01</ele>
        <time>2012-05-25T13:03:26Z</time>
      </trkpt>
      <trkpt lat="46.56314" lon="6.12175">
        <ele>1243.12</ele>
        <time>2012-05-25T13:03:40Z</time>
      </trkpt>
      <trkpt lat="46.56314" lon="6.12175">
        <ele>1245.04</ele>
        <time>2012-05-25T13:03:58Z</time>
      </trkpt>
      <trkpt lat="46.56314" lon="6.12175">
        <ele>1244.08</ele>
        <time>2012-05-25T13:04:00Z</time>
      </trkpt>
      <trkpt lat="46.56314" lon="6.12175">
        <ele>1244.08</ele>
        <time>2012-05-25T13:04:23Z</time>
      </trkpt>
      <trkpt lat="46.56314" lon="6.12175">
        <ele>1243.6</ele>
        <time>2012-05-25T13:04:44Z</time>
      </trkpt>
      <trkpt lat="46.56314" lon="6.12174">
        <ele>1245.04</ele>
        <time>2012-05-25T13:05:23Z</time>
      </trkpt>
      <trkpt lat="46.56314" lon="6.12175">
        <ele>1245.04</ele>
        <time>2012-05-25T13:05:41Z</time>
      </trkpt>
      <trkpt lat="46.56314" lon="6.12175">
        <ele>1245.04</ele>
        <time>2012-05-25T13:06:21Z</time>
      </trkpt>
      <trkpt lat="46.56314" lon="6.12175">
        <ele>1245.53</ele>
        <time>2012-05-25T13:06:33Z</time>
      </trkpt>
      <trkpt lat="46.56322" lon="6.12179">
        <ele>1245.04</ele>
        <time>2012-05-25T13:06:41Z</time>
      </trkpt>
      <trkpt lat="46.56329" lon="6.12171">
        <ele>1243.6</ele>
        <time>2012-05-25T13:06:45Z</time>
      </trkpt>
      <trkpt lat="46.56335" lon="6.12114">
        <ele>1241.68</ele>
        <time>2012-05-25T13:06:56Z</time>
      </trkpt>
      <trkpt lat="46.56336" lon="6.12107">
        <ele>1241.68</ele>
        <time>2012-05-25T13:06:57Z</time>
      </trkpt>
      <trkpt lat="46.56338" lon="6.12101">
        <ele>1241.68</ele>
        <time>2012-05-25T13:06:58Z</time>
      </trkpt>
      <trkpt lat="46.5634" lon="6.12098">
        <ele>1241.68</ele>
        <time>2012-05-25T13:06:59Z</time>
      </trkpt>
      <trkpt lat="46.56341" lon="6.12096">
        <ele>1242.16</ele>
        <time>2012-05-25T13:07:00Z</time>
      </trkpt>
      <trkpt lat="46.56342" lon="6.12094">
        <ele>1243.12</ele>
        <time>2012-05-25T13:07:01Z</time>
      </trkpt>
      <trkpt lat="46.56343" lon="6.12093">
        <ele>1243.12</ele>
        <time>2012-05-25T13:07:02Z</time>
      </trkpt>
      <trkpt lat="46.56345" lon="6.12091">
        <ele>1242.64</ele>
        <time>2012-05-25T13:07:03Z</time>
      </trkpt>
      <trkpt lat="46.56346" lon="6.1209">
        <ele>1243.6</ele>
        <time>2012-05-25T13:07:04Z</time>
      </trkpt>
      <trkpt lat="46.56353" lon="6.12089">
        <ele>1246.97</ele>
        <time>2012-05-25T13:07:12Z</time>
      </trkpt>
      <trkpt lat="46.56369" lon="6.12077">
        <ele>1248.41</ele>
        <time>2012-05-25T13:07:24Z</time>
      </trkpt>
      <trkpt lat="46.56375" lon="6.12068">
        <ele>1248.41</ele>
        <time>2012-05-25T13:07:29Z</time>
      </trkpt>
      <trkpt lat="46.56377" lon="6.12066">
        <ele>1248.89</ele>
        <time>2012-05-25T13:07:30Z</time>
      </trkpt>
      <trkpt lat="46.56378" lon="6.12064">
        <ele>1249.37</ele>
        <time>2012-05-25T13:07:31Z</time>
      </trkpt>
      <trkpt lat="46.56379" lon="6.12063">
        <ele>1249.37</ele>
        <time>2012-05-25T13:07:32Z</time>
      </trkpt>
      <trkpt lat="46.5638" lon="6.12062">
        <ele>1249.85</ele>
        <time>2012-05-25T13:07:33Z</time>
      </trkpt>
      <trkpt lat="46.56385" lon="6.12056">
        <ele>1251.29</ele>
        <time>2012-05-25T13:07:38Z</time>
      </trkpt>
      <trkpt lat="46.5639" lon="6.12052">
        <ele>1249.85</ele>
        <time>2012-05-25T13:07:42Z</time>
      </trkpt>
      <trkpt lat="46.56391" lon="6.1205">
        <ele>1250.81</ele>
        <time>2012-05-25T13:07:43Z</time>
      </trkpt>
      <trkpt lat="46.56403" lon="6.12038">
        <ele>1252.25</ele>
        <time>2012-05-25T13:07:53Z</time>
      </trkpt>
      <trkpt lat="46.56404" lon="6.12036">
        <ele>1251.77</ele>
        <time>2012-05-25T13:07:54Z</time>
      </trkpt>
      <trkpt lat="46.56406" lon="6.12035">
        <ele>1253.7</ele>
        <time>2012-05-25T13:07:55Z</time>
      </trkpt>
      <trkpt lat="46.56423" lon="6.12024">
        <ele>1253.7</ele>
        <time>2012-05-25T13:08:08Z</time>
      </trkpt>
      <trkpt lat="46.56424" lon="6.12023">
        <ele>1255.14</ele>
        <time>2012-05-25T13:08:09Z</time>
      </trkpt>
      <trkpt lat="46.56439" lon="6.12018">
        <ele>1256.58</ele>
        <time>2012-05-25T13:08:19Z</time>
      </trkpt>
      <trkpt lat="46.56445" lon="6.12013">
        <ele>1258.02</ele>
        <time>2012-05-25T13:08:24Z</time>
      </trkpt>
      <trkpt lat="46.56448" lon="6.12011">
        <ele>1261.87</ele>
        <time>2012-05-25T13:08:28Z</time>
      </trkpt>
      <trkpt lat="46.56449" lon="6.1201">
        <ele>1258.02</ele>
        <time>2012-05-25T13:08:29Z</time>
      </trkpt>
      <trkpt lat="46.56455" lon="6.12004">
        <ele>1257.54</ele>
        <time>2012-05-25T13:08:34Z</time>
      </trkpt>
      <trkpt lat="46.56457" lon="6.12003">
        <ele>1258.02</ele>
        <time>2012-05-25T13:08:35Z</time>
      </trkpt>
      <trkpt lat="46.56458" lon="6.12001">
        <ele>1257.54</ele>
        <time>2012-05-25T13:08:36Z</time>
      </trkpt>
      <trkpt lat="46.5646" lon="6.11999">
        <ele>1258.02</ele>
        <time>2012-05-25T13:08:37Z</time>
      </trkpt>
      <trkpt lat="46.56462" lon="6.11998">
        <ele>1257.06</ele>
        <time>2012-05-25T13:08:38Z</time>
      </trkpt>
      <trkpt lat="46.56465" lon="6.11994">
        <ele>1255.62</ele>
        <time>2012-05-25T13:08:41Z</time>
      </trkpt>
      <trkpt lat="46.56467" lon="6.11991">
        <ele>1256.1</ele>
        <time>2012-05-25T13:08:42Z</time>
      </trkpt>
      <trkpt lat="46.56469" lon="6.11987">
        <ele>1255.62</ele>
        <time>2012-05-25T13:08:43Z</time>
      </trkpt>
      <trkpt lat="46.5647" lon="6.11984">
        <ele>1255.14</ele>
        <time>2012-05-25T13:08:44Z</time>
      </trkpt>
      <trkpt lat="46.56471" lon="6.11981">
        <ele>1254.66</ele>
        <time>2012-05-25T13:08:45Z</time>
      </trkpt>
      <trkpt lat="46.56472" lon="6.11978">
        <ele>1254.66</ele>
        <time>2012-05-25T13:08:46Z</time>
      </trkpt>
      <trkpt lat="46.56473" lon="6.11975">
        <ele>1255.62</ele>
        <time>2012-05-25T13:08:47Z</time>
      </trkpt>
      <trkpt lat="46.56476" lon="6.11971">
        <ele>1255.14</ele>
        <time>2012-05-25T13:08:48Z</time>
      </trkpt>
      <trkpt lat="46.56478" lon="6.11968">
        <ele>1254.18</ele>
        <time>2012-05-25T13:08:49Z</time>
      </trkpt>
      <trkpt lat="46.56481" lon="6.11966">
        <ele>1254.18</ele>
        <time>2012-05-25T13:08:50Z</time>
      </trkpt>
      <trkpt lat="46.56482" lon="6.11964">
        <ele>1254.66</ele>
        <time>2012-05-25T13:08:51Z</time>
      </trkpt>
      <trkpt lat="46.56484" lon="6.11963">
        <ele>1254.66</ele>
        <time>2012-05-25T13:08:52Z</time>
      </trkpt>
      <trkpt lat="46.56485" lon="6.11961">
        <ele>1254.18</ele>
        <time>2012-05-25T13:08:53Z</time>
      </trkpt>
      <trkpt lat="46.56487" lon="6.11959">
        <ele>1254.66</ele>
        <time>2012-05-25T13:08:54Z</time>
      </trkpt>
      <trkpt lat="46.5649" lon="6.11956">
        <ele>1253.7</ele>
        <time>2012-05-25T13:08:55Z</time>
      </trkpt>
      <trkpt lat="46.56493" lon="6.11955">
        <ele>1253.22</ele>
        <time>2012-05-25T13:08:56Z</time>
      </trkpt>
      <trkpt lat="46.56495" lon="6.11953">
        <ele>1253.22</ele>
        <time>2012-05-25T13:08:57Z</time>
      </trkpt>
      <trkpt lat="46.56497" lon="6.11951">
        <ele>1254.18</ele>
        <time>2012-05-25T13:08:58Z</time>
      </trkpt>
      <trkpt lat="46.565" lon="6.1195">
        <ele>1253.7</ele>
        <time>2012-05-25T13:08:59Z</time>
      </trkpt>
      <trkpt lat="46.56508" lon="6.11942">
        <ele>1254.18</ele>
        <time>2012-05-25T13:09:10Z</time>
      </trkpt>
      <trkpt lat="46.56515" lon="6.11942">
        <ele>1253.7</ele>
        <time>2012-05-25T13:09:16Z</time>
      </trkpt>
      <trkpt lat="46.56522" lon="6.11943">
        <ele>1256.58</ele>
        <time>2012-05-25T13:09:21Z</time>
      </trkpt>
      <trkpt lat="46.56523" lon="6.11943">
        <ele>1256.1</ele>
        <time>2012-05-25T13:09:22Z</time>
      </trkpt>
      <trkpt lat="46.56532" lon="6.11937">
        <ele>1254.18</ele>
        <time>2012-05-25T13:09:28Z</time>
      </trkpt>
      <trkpt lat="46.56533" lon="6.11936">
        <ele>1254.66</ele>
        <time>2012-05-25T13:09:29Z</time>
      </trkpt>
      <trkpt lat="46.56546" lon="6.11916">
        <ele>1250.81</ele>
        <time>2012-05-25T13:09:38Z</time>
      </trkpt>
      <trkpt lat="46.5655" lon="6.11911">
        <ele>1250.81</ele>
        <time>2012-05-25T13:09:40Z</time>
      </trkpt>
      <trkpt lat="46.56554" lon="6.11902">
        <ele>1248.89</ele>
        <time>2012-05-25T13:09:44Z</time>
      </trkpt>
      <trkpt lat="46.56556" lon="6.119">
        <ele>1248.41</ele>
        <time>2012-05-25T13:09:49Z</time>
      </trkpt>
      <trkpt lat="46.5657" lon="6.11887">
        <ele>1245.04</ele>
        <time>2012-05-25T13:09:59Z</time>
      </trkpt>
      <trkpt lat="46.56573" lon="6.11879">
        <ele>1244.08</ele>
        <time>2012-05-25T13:10:09Z</time>
      </trkpt>
      <trkpt lat="46.56578" lon="6.11877">
        <ele>1244.56</ele>
        <time>2012-05-25T13:10:18Z</time>
      </trkpt>
      <trkpt lat="46.56585" lon="6.11868">
        <ele>1242.64</ele>
        <time>2012-05-25T13:10:25Z</time>
      </trkpt>
      <trkpt lat="46.56599" lon="6.11864">
        <ele>1243.12</ele>
        <time>2012-05-25T13:10:33Z</time>
      </trkpt>
      <trkpt lat="46.56617" lon="6.11866">
        <ele>1243.12</ele>
        <time>2012-05-25T13:10:46Z</time>
      </trkpt>
      <trkpt lat="46.5662" lon="6.11867">
        <ele>1244.56</ele>
        <time>2012-05-25T13:10:49Z</time>
      </trkpt>
      <trkpt lat="46.56637" lon="6.11859">
        <ele>1240.72</ele>
        <time>2012-05-25T13:10:59Z</time>
      </trkpt>
      <trkpt lat="46.56643" lon="6.1186">
        <ele>1240.24</ele>
        <time>2012-05-25T13:11:00Z</time>
      </trkpt>
      <trkpt lat="46.56648" lon="6.11859">
        <ele>1239.28</ele>
        <time>2012-05-25T13:11:01Z</time>
      </trkpt>
      <trkpt lat="46.56653" lon="6.11857">
        <ele>1240.24</ele>
        <time>2012-05-25T13:11:02Z</time>
      </trkpt>
      <trkpt lat="46.56658" lon="6.11854">
        <ele>1239.28</ele>
        <time>2012-05-25T13:11:03Z</time>
      </trkpt>
      <trkpt lat="46.56663" lon="6.1185">
        <ele>1239.76</ele>
        <time>2012-05-25T13:11:04Z</time>
      </trkpt>
      <trkpt lat="46.56667" lon="6.11846">
        <ele>1240.24</ele>
        <time>2012-05-25T13:11:05Z</time>
      </trkpt>
      <trkpt lat="46.56675" lon="6.11838">
        <ele>1240.24</ele>
        <time>2012-05-25T13:11:07Z</time>
      </trkpt>
      <trkpt lat="46.56679" lon="6.11836">
        <ele>1240.24</ele>
        <time>2012-05-25T13:11:08Z</time>
      </trkpt>
      <trkpt lat="46.56682" lon="6.11834">
        <ele>1238.8</ele>
        <time>2012-05-25T13:11:09Z</time>
      </trkpt>
      <trkpt lat="46.56695" lon="6.11832">
        <ele>1240.72</ele>
        <time>2012-05-25T13:11:13Z</time>
      </trkpt>
      <trkpt lat="46.56714" lon="6.11828">
        <ele>1242.16</ele>
        <time>2012-05-25T13:11:19Z</time>
      </trkpt>
      <trkpt lat="46.5673" lon="6.11805">
        <ele>1243.12</ele>
        <time>2012-05-25T13:11:26Z</time>
      </trkpt>
      <trkpt lat="46.56738" lon="6.11794">
        <ele>1243.12</ele>
        <time>2012-05-25T13:11:29Z</time>
      </trkpt>
      <trkpt lat="46.56751" lon="6.11777">
        <ele>1240.24</ele>
        <time>2012-05-25T13:11:32Z</time>
      </trkpt>
      <trkpt lat="46.56785" lon="6.11745">
        <ele>1240.72</ele>
        <time>2012-05-25T13:11:38Z</time>
      </trkpt>
      <trkpt lat="46.56789" lon="6.11741">
        <ele>1242.16</ele>
        <time>2012-05-25T13:11:39Z</time>
      </trkpt>
      <trkpt lat="46.56792" lon="6.11737">
        <ele>1242.16</ele>
        <time>2012-05-25T13:11:40Z</time>
      </trkpt>
      <trkpt lat="46.56795" lon="6.11733">
        <ele>1242.16</ele>
        <time>2012-05-25T13:11:41Z</time>
      </trkpt>
      <trkpt lat="46.5681" lon="6.11715">
        <ele>1242.64</ele>
        <time>2012-05-25T13:11:46Z</time>
      </trkpt>
      <trkpt lat="46.56814" lon="6.11712">
        <ele>1241.2</ele>
        <time>2012-05-25T13:11:47Z</time>
      </trkpt>
      <trkpt lat="46.56833" lon="6.11696">
        <ele>1244.56</ele>
        <time>2012-05-25T13:11:53Z</time>
      </trkpt>
      <trkpt lat="46.56855" lon="6.11648">
        <ele>1246.01</ele>
        <time>2012-05-25T13:12:04Z</time>
      </trkpt>
      <trkpt lat="46.56882" lon="6.11609">
        <ele>1248.41</ele>
        <time>2012-05-25T13:12:15Z</time>
      </trkpt>
      <trkpt lat="46.56896" lon="6.1156">
        <ele>1248.41</ele>
        <time>2012-05-25T13:12:25Z</time>
      </trkpt>
      <trkpt lat="46.56904" lon="6.11523">
        <ele>1249.85</ele>
        <time>2012-05-25T13:12:33Z</time>
      </trkpt>
      <trkpt lat="46.56911" lon="6.11495">
        <ele>1250.81</ele>
        <time>2012-05-25T13:12:40Z</time>
      </trkpt>
      <trkpt lat="46.56912" lon="6.11481">
        <ele>1251.77</ele>
        <time>2012-05-25T13:12:43Z</time>
      </trkpt>
      <trkpt lat="46.56914" lon="6.11478">
        <ele>1250.81</ele>
        <time>2012-05-25T13:12:44Z</time>
      </trkpt>
      <trkpt lat="46.56915" lon="6.11475">
        <ele>1253.22</ele>
        <time>2012-05-25T13:12:45Z</time>
      </trkpt>
      <trkpt lat="46.56917" lon="6.11472">
        <ele>1254.18</ele>
        <time>2012-05-25T13:12:46Z</time>
      </trkpt>
      <trkpt lat="46.56918" lon="6.11468">
        <ele>1253.7</ele>
        <time>2012-05-25T13:12:47Z</time>
      </trkpt>
      <trkpt lat="46.56919" lon="6.11464">
        <ele>1252.74</ele>
        <time>2012-05-25T13:12:48Z</time>
      </trkpt>
      <trkpt lat="46.56924" lon="6.11453">
        <ele>1254.66</ele>
        <time>2012-05-25T13:12:51Z</time>
      </trkpt>
      <trkpt lat="46.56939" lon="6.11415">
        <ele>1255.62</ele>
        <time>2012-05-25T13:13:03Z</time>
      </trkpt>
      <trkpt lat="46.56942" lon="6.11406">
        <ele>1257.54</ele>
        <time>2012-05-25T13:13:06Z</time>
      </trkpt>
      <trkpt lat="46.56944" lon="6.11399">
        <ele>1255.62</ele>
        <time>2012-05-25T13:13:08Z</time>
      </trkpt>
      <trkpt lat="46.56947" lon="6.11392">
        <ele>1258.98</ele>
        <time>2012-05-25T13:13:10Z</time>
      </trkpt>
      <trkpt lat="46.56949" lon="6.11388">
        <ele>1258.02</ele>
        <time>2012-05-25T13:13:11Z</time>
      </trkpt>
      <trkpt lat="46.56956" lon="6.11365">
        <ele>1258.5</ele>
        <time>2012-05-25T13:13:19Z</time>
      </trkpt>
      <trkpt lat="46.56962" lon="6.11354">
        <ele>1257.06</ele>
        <time>2012-05-25T13:13:24Z</time>
      </trkpt>
      <trkpt lat="46.56974" lon="6.11319">
        <ele>1259.46</ele>
        <time>2012-05-25T13:13:36Z</time>
      </trkpt>
      <trkpt lat="46.56977" lon="6.11299">
        <ele>1261.39</ele>
        <time>2012-05-25T13:13:43Z</time>
      </trkpt>
      <trkpt lat="46.56978" lon="6.11296">
        <ele>1261.39</ele>
        <time>2012-05-25T13:13:44Z</time>
      </trkpt>
      <trkpt lat="46.56979" lon="6.11293">
        <ele>1261.87</ele>
        <time>2012-05-25T13:13:45Z</time>
      </trkpt>
      <trkpt lat="46.56981" lon="6.11291">
        <ele>1263.31</ele>
        <time>2012-05-25T13:13:46Z</time>
      </trkpt>
      <trkpt lat="46.56982" lon="6.11288">
        <ele>1261.87</ele>
        <time>2012-05-25T13:13:47Z</time>
      </trkpt>
      <trkpt lat="46.56983" lon="6.11285">
        <ele>1261.87</ele>
        <time>2012-05-25T13:13:48Z</time>
      </trkpt>
      <trkpt lat="46.56984" lon="6.11282">
        <ele>1262.35</ele>
        <time>2012-05-25T13:13:49Z</time>
      </trkpt>
      <trkpt lat="46.56985" lon="6.11279">
        <ele>1261.87</ele>
        <time>2012-05-25T13:13:50Z</time>
      </trkpt>
      <trkpt lat="46.56986" lon="6.11277">
        <ele>1262.83</ele>
        <time>2012-05-25T13:13:51Z</time>
      </trkpt>
      <trkpt lat="46.56987" lon="6.11275">
        <ele>1263.31</ele>
        <time>2012-05-25T13:13:52Z</time>
      </trkpt>
      <trkpt lat="46.56993" lon="6.11258">
        <ele>1264.27</ele>
        <time>2012-05-25T13:13:58Z</time>
      </trkpt>
      <trkpt lat="46.56995" lon="6.11253">
        <ele>1263.31</ele>
        <time>2012-05-25T13:14:00Z</time>
      </trkpt>
      <trkpt lat="46.56998" lon="6.1125">
        <ele>1264.75</ele>
        <time>2012-05-25T13:14:02Z</time>
      </trkpt>
      <trkpt lat="46.5701" lon="6.11229">
        <ele>1267.16</ele>
        <time>2012-05-25T13:14:14Z</time>
      </trkpt>
      <trkpt lat="46.57011" lon="6.11227">
        <ele>1266.67</ele>
        <time>2012-05-25T13:14:15Z</time>
      </trkpt>
      <trkpt lat="46.57012" lon="6.11225">
        <ele>1267.64</ele>
        <time>2012-05-25T13:14:16Z</time>
      </trkpt>
      <trkpt lat="46.57026" lon="6.1121">
        <ele>1270.04</ele>
        <time>2012-05-25T13:14:29Z</time>
      </trkpt>
      <trkpt lat="46.57027" lon="6.11208">
        <ele>1271</ele>
        <time>2012-05-25T13:14:30Z</time>
      </trkpt>
      <trkpt lat="46.57027" lon="6.11206">
        <ele>1272.44</ele>
        <time>2012-05-25T13:14:31Z</time>
      </trkpt>
      <trkpt lat="46.57039" lon="6.11177">
        <ele>1274.36</ele>
        <time>2012-05-25T13:14:44Z</time>
      </trkpt>
      <trkpt lat="46.57039" lon="6.11169">
        <ele>1275.33</ele>
        <time>2012-05-25T13:14:48Z</time>
      </trkpt>
      <trkpt lat="46.5704" lon="6.11168">
        <ele>1275.81</ele>
        <time>2012-05-25T13:14:49Z</time>
      </trkpt>
      <trkpt lat="46.57041" lon="6.11165">
        <ele>1275.81</ele>
        <time>2012-05-25T13:14:50Z</time>
      </trkpt>
      <trkpt lat="46.57042" lon="6.11162">
        <ele>1275.81</ele>
        <time>2012-05-25T13:14:52Z</time>
      </trkpt>
      <trkpt lat="46.57044" lon="6.11157">
        <ele>1277.73</ele>
        <time>2012-05-25T13:14:55Z</time>
      </trkpt>
      <trkpt lat="46.57046" lon="6.11155">
        <ele>1277.25</ele>
        <time>2012-05-25T13:14:56Z</time>
      </trkpt>
      <trkpt lat="46.57048" lon="6.11148">
        <ele>1277.25</ele>
        <time>2012-05-25T13:15:00Z</time>
      </trkpt>
      <trkpt lat="46.57054" lon="6.11134">
        <ele>1278.69</ele>
        <time>2012-05-25T13:15:08Z</time>
      </trkpt>
      <trkpt lat="46.57058" lon="6.11128">
        <ele>1279.17</ele>
        <time>2012-05-25T13:15:12Z</time>
      </trkpt>
      <trkpt lat="46.57059" lon="6.11126">
        <ele>1277.73</ele>
        <time>2012-05-25T13:15:14Z</time>
      </trkpt>
      <trkpt lat="46.57061" lon="6.11125">
        <ele>1279.17</ele>
        <time>2012-05-25T13:15:15Z</time>
      </trkpt>
      <trkpt lat="46.57062" lon="6.11124">
        <ele>1278.69</ele>
        <time>2012-05-25T13:15:16Z</time>
      </trkpt>
      <trkpt lat="46.57063" lon="6.11123">
        <ele>1278.69</ele>
        <time>2012-05-25T13:15:17Z</time>
      </trkpt>
      <trkpt lat="46.57064" lon="6.11121">
        <ele>1279.65</ele>
        <time>2012-05-25T13:15:18Z</time>
      </trkpt>
      <trkpt lat="46.57065" lon="6.11121">
        <ele>1279.17</ele>
        <time>2012-05-25T13:15:19Z</time>
      </trkpt>
      <trkpt lat="46.57067" lon="6.1112">
        <ele>1280.13</ele>
        <time>2012-05-25T13:15:20Z</time>
      </trkpt>
      <trkpt lat="46.57068" lon="6.1112">
        <ele>1280.13</ele>
        <time>2012-05-25T13:15:21Z</time>
      </trkpt>
      <trkpt lat="46.57069" lon="6.11119">
        <ele>1279.17</ele>
        <time>2012-05-25T13:15:22Z</time>
      </trkpt>
      <trkpt lat="46.57075" lon="6.11116">
        <ele>1282.06</ele>
        <time>2012-05-25T13:15:26Z</time>
      </trkpt>
      <trkpt lat="46.57083" lon="6.11114">
        <ele>1282.06</ele>
        <time>2012-05-25T13:15:31Z</time>
      </trkpt>
      <trkpt lat="46.57086" lon="6.11113">
        <ele>1280.61</ele>
        <time>2012-05-25T13:15:33Z</time>
      </trkpt>
      <trkpt lat="46.57089" lon="6.1111">
        <ele>1284.46</ele>
        <time>2012-05-25T13:15:35Z</time>
      </trkpt>
      <trkpt lat="46.57097" lon="6.111">
        <ele>1282.54</ele>
        <time>2012-05-25T13:15:40Z</time>
      </trkpt>
      <trkpt lat="46.57098" lon="6.11098">
        <ele>1282.06</ele>
        <time>2012-05-25T13:15:41Z</time>
      </trkpt>
      <trkpt lat="46.571" lon="6.11096">
        <ele>1282.54</ele>
        <time>2012-05-25T13:15:42Z</time>
      </trkpt>
      <trkpt lat="46.57101" lon="6.11093">
        <ele>1282.06</ele>
        <time>2012-05-25T13:15:43Z</time>
      </trkpt>
      <trkpt lat="46.57102" lon="6.11091">
        <ele>1282.06</ele>
        <time>2012-05-25T13:15:44Z</time>
      </trkpt>
      <trkpt lat="46.57103" lon="6.11089">
        <ele>1283.02</ele>
        <time>2012-05-25T13:15:45Z</time>
      </trkpt>
      <trkpt lat="46.57104" lon="6.11086">
        <ele>1283.98</ele>
        <time>2012-05-25T13:15:46Z</time>
      </trkpt>
      <trkpt lat="46.57105" lon="6.11083">
        <ele>1284.46</ele>
        <time>2012-05-25T13:15:47Z</time>
      </trkpt>
      <trkpt lat="46.57106" lon="6.11079">
        <ele>1282.54</ele>
        <time>2012-05-25T13:15:49Z</time>
      </trkpt>
      <trkpt lat="46.57107" lon="6.11072">
        <ele>1283.5</ele>
        <time>2012-05-25T13:15:51Z</time>
      </trkpt>
      <trkpt lat="46.5712" lon="6.1104">
        <ele>1281.57</ele>
        <time>2012-05-25T13:16:00Z</time>
      </trkpt>
      <trkpt lat="46.57124" lon="6.11038">
        <ele>1281.09</ele>
        <time>2012-05-25T13:16:01Z</time>
      </trkpt>
      <trkpt lat="46.57129" lon="6.11039">
        <ele>1281.09</ele>
        <time>2012-05-25T13:16:02Z</time>
      </trkpt>
      <trkpt lat="46.57134" lon="6.11041">
        <ele>1280.13</ele>
        <time>2012-05-25T13:16:03Z</time>
      </trkpt>
      <trkpt lat="46.57139" lon="6.11045">
        <ele>1280.61</ele>
        <time>2012-05-25T13:16:04Z</time>
      </trkpt>
      <trkpt lat="46.57145" lon="6.11049">
        <ele>1278.21</ele>
        <time>2012-05-25T13:16:05Z</time>
      </trkpt>
      <trkpt lat="46.57151" lon="6.11052">
        <ele>1279.17</ele>
        <time>2012-05-25T13:16:06Z</time>
      </trkpt>
      <trkpt lat="46.57157" lon="6.11053">
        <ele>1277.25</ele>
        <time>2012-05-25T13:16:07Z</time>
      </trkpt>
      <trkpt lat="46.57163" lon="6.11051">
        <ele>1277.73</ele>
        <time>2012-05-25T13:16:08Z</time>
      </trkpt>
      <trkpt lat="46.57168" lon="6.11047">
        <ele>1277.25</ele>
        <time>2012-05-25T13:16:09Z</time>
      </trkpt>
      <trkpt lat="46.57173" lon="6.11042">
        <ele>1277.73</ele>
        <time>2012-05-25T13:16:10Z</time>
      </trkpt>
      <trkpt lat="46.57177" lon="6.11037">
        <ele>1276.29</ele>
        <time>2012-05-25T13:16:11Z</time>
      </trkpt>
      <trkpt lat="46.57208" lon="6.10995">
        <ele>1273.88</ele>
        <time>2012-05-25T13:16:17Z</time>
      </trkpt>
      <trkpt lat="46.57218" lon="6.1098">
        <ele>1273.4</ele>
        <time>2012-05-25T13:16:19Z</time>
      </trkpt>
      <trkpt lat="46.57221" lon="6.10973">
        <ele>1275.81</ele>
        <time>2012-05-25T13:16:20Z</time>
      </trkpt>
      <trkpt lat="46.57231" lon="6.10939">
        <ele>1276.29</ele>
        <time>2012-05-25T13:16:28Z</time>
      </trkpt>
      <trkpt lat="46.57237" lon="6.10925">
        <ele>1278.21</ele>
        <time>2012-05-25T13:16:34Z</time>
      </trkpt>
      <trkpt lat="46.57244" lon="6.10897">
        <ele>1280.13</ele>
        <time>2012-05-25T13:16:45Z</time>
      </trkpt>
      <trkpt lat="46.57253" lon="6.10877">
        <ele>1280.13</ele>
        <time>2012-05-25T13:16:54Z</time>
      </trkpt>
      <trkpt lat="46.57257" lon="6.10866">
        <ele>1283.02</ele>
        <time>2012-05-25T13:16:59Z</time>
      </trkpt>
      <trkpt lat="46.57265" lon="6.1085">
        <ele>1281.57</ele>
        <time>2012-05-25T13:17:07Z</time>
      </trkpt>
      <trkpt lat="46.57265" lon="6.10848">
        <ele>1282.06</ele>
        <time>2012-05-25T13:17:08Z</time>
      </trkpt>
      <trkpt lat="46.57266" lon="6.10847">
        <ele>1283.02</ele>
        <time>2012-05-25T13:17:09Z</time>
      </trkpt>
      <trkpt lat="46.57267" lon="6.10845">
        <ele>1282.54</ele>
        <time>2012-05-25T13:17:10Z</time>
      </trkpt>
      <trkpt lat="46.57268" lon="6.10842">
        <ele>1284.46</ele>
        <time>2012-05-25T13:17:11Z</time>
      </trkpt>
      <trkpt lat="46.57269" lon="6.1084">
        <ele>1283.02</ele>
        <time>2012-05-25T13:17:12Z</time>
      </trkpt>
      <trkpt lat="46.5727" lon="6.10839">
        <ele>1284.46</ele>
        <time>2012-05-25T13:17:13Z</time>
      </trkpt>
      <trkpt lat="46.57272" lon="6.10837">
        <ele>1283.98</ele>
        <time>2012-05-25T13:17:14Z</time>
      </trkpt>
      <trkpt lat="46.57272" lon="6.10836">
        <ele>1283.02</ele>
        <time>2012-05-25T13:17:15Z</time>
      </trkpt>
      <trkpt lat="46.57274" lon="6.10833">
        <ele>1283.5</ele>
        <time>2012-05-25T13:17:16Z</time>
      </trkpt>
      <trkpt lat="46.57275" lon="6.10832">
        <ele>1286.38</ele>
        <time>2012-05-25T13:17:17Z</time>
      </trkpt>
      <trkpt lat="46.57276" lon="6.10829">
        <ele>1284.46</ele>
        <time>2012-05-25T13:17:18Z</time>
      </trkpt>
      <trkpt lat="46.57277" lon="6.10827">
        <ele>1283.98</ele>
        <time>2012-05-25T13:17:19Z</time>
      </trkpt>
      <trkpt lat="46.57278" lon="6.10825">
        <ele>1283.98</ele>
        <time>2012-05-25T13:17:20Z</time>
      </trkpt>
      <trkpt lat="46.57279" lon="6.10823">
        <ele>1284.94</ele>
        <time>2012-05-25T13:17:21Z</time>
      </trkpt>
      <trkpt lat="46.5728" lon="6.10822">
        <ele>1284.94</ele>
        <time>2012-05-25T13:17:22Z</time>
      </trkpt>
      <trkpt lat="46.57283" lon="6.10818">
        <ele>1285.42</ele>
        <time>2012-05-25T13:17:24Z</time>
      </trkpt>
      <trkpt lat="46.57288" lon="6.10801">
        <ele>1288.3</ele>
        <time>2012-05-25T13:17:31Z</time>
      </trkpt>
      <trkpt lat="46.57289" lon="6.10799">
        <ele>1287.82</ele>
        <time>2012-05-25T13:17:32Z</time>
      </trkpt>
      <trkpt lat="46.57297" lon="6.10787">
        <ele>1286.86</ele>
        <time>2012-05-25T13:17:39Z</time>
      </trkpt>
      <trkpt lat="46.57298" lon="6.10786">
        <ele>1288.78</ele>
        <time>2012-05-25T13:17:40Z</time>
      </trkpt>
      <trkpt lat="46.57299" lon="6.10784">
        <ele>1287.34</ele>
        <time>2012-05-25T13:17:41Z</time>
      </trkpt>
      <trkpt lat="46.57302" lon="6.10779">
        <ele>1287.34</ele>
        <time>2012-05-25T13:17:43Z</time>
      </trkpt>
      <trkpt lat="46.57302" lon="6.10777">
        <ele>1287.82</ele>
        <time>2012-05-25T13:17:44Z</time>
      </trkpt>
      <trkpt lat="46.57303" lon="6.10774">
        <ele>1289.27</ele>
        <time>2012-05-25T13:17:45Z</time>
      </trkpt>
      <trkpt lat="46.57304" lon="6.10771">
        <ele>1288.78</ele>
        <time>2012-05-25T13:17:46Z</time>
      </trkpt>
      <trkpt lat="46.57305" lon="6.10769">
        <ele>1287.34</ele>
        <time>2012-05-25T13:17:47Z</time>
      </trkpt>
      <trkpt lat="46.57308" lon="6.10755">
        <ele>1289.75</ele>
        <time>2012-05-25T13:17:52Z</time>
      </trkpt>
      <trkpt lat="46.57336" lon="6.10712">
        <ele>1288.3</ele>
        <time>2012-05-25T13:27:04Z</time>
      </trkpt>
      <trkpt lat="46.57338" lon="6.10708">
        <ele>1288.3</ele>
        <time>2012-05-25T13:27:05Z</time>
      </trkpt>
      <trkpt lat="46.5734" lon="6.10706">
        <ele>1288.3</ele>
        <time>2012-05-25T13:27:06Z</time>
      </trkpt>
      <trkpt lat="46.57342" lon="6.10703">
        <ele>1287.34</ele>
        <time>2012-05-25T13:27:07Z</time>
      </trkpt>
      <trkpt lat="46.57344" lon="6.107">
        <ele>1287.82</ele>
        <time>2012-05-25T13:27:08Z</time>
      </trkpt>
      <trkpt lat="46.57346" lon="6.10697">
        <ele>1287.82</ele>
        <time>2012-05-25T13:27:09Z</time>
      </trkpt>
      <trkpt lat="46.57348" lon="6.10693">
        <ele>1287.82</ele>
        <time>2012-05-25T13:27:10Z</time>
      </trkpt>
      <trkpt lat="46.5735" lon="6.1069">
        <ele>1287.82</ele>
        <time>2012-05-25T13:27:11Z</time>
      </trkpt>
      <trkpt lat="46.57351" lon="6.10686">
        <ele>1288.3</ele>
        <time>2012-05-25T13:27:12Z</time>
      </trkpt>
      <trkpt lat="46.57353" lon="6.10682">
        <ele>1287.82</ele>
        <time>2012-05-25T13:27:13Z</time>
      </trkpt>
      <trkpt lat="46.57354" lon="6.10677">
        <ele>1286.38</ele>
        <time>2012-05-25T13:27:14Z</time>
      </trkpt>
      <trkpt lat="46.57355" lon="6.10673">
        <ele>1285.9</ele>
        <time>2012-05-25T13:27:15Z</time>
      </trkpt>
      <trkpt lat="46.57356" lon="6.1067">
        <ele>1285.9</ele>
        <time>2012-05-25T13:27:16Z</time>
      </trkpt>
      <trkpt lat="46.57356" lon="6.10666">
        <ele>1286.38</ele>
        <time>2012-05-25T13:27:17Z</time>
      </trkpt>
      <trkpt lat="46.57355" lon="6.10664">
        <ele>1285.42</ele>
        <time>2012-05-25T13:27:18Z</time>
      </trkpt>
      <trkpt lat="46.57358" lon="6.10652">
        <ele>1285.42</ele>
        <time>2012-05-25T13:27:24Z</time>
      </trkpt>
      <trkpt lat="46.57358" lon="6.10649">
        <ele>1285.9</ele>
        <time>2012-05-25T13:27:25Z</time>
      </trkpt>
      <trkpt lat="46.57355" lon="6.10633">
        <ele>1287.34</ele>
        <time>2012-05-25T13:27:37Z</time>
      </trkpt>
      <trkpt lat="46.57354" lon="6.10625">
        <ele>1286.38</ele>
        <time>2012-05-25T13:27:41Z</time>
      </trkpt>
      <trkpt lat="46.57352" lon="6.10623">
        <ele>1287.34</ele>
        <time>2012-05-25T13:27:42Z</time>
      </trkpt>
      <trkpt lat="46.57345" lon="6.10613">
        <ele>1287.82</ele>
        <time>2012-05-25T13:27:53Z</time>
      </trkpt>
      <trkpt lat="46.57345" lon="6.10604">
        <ele>1290.23</ele>
        <time>2012-05-25T13:27:59Z</time>
      </trkpt>
      <trkpt lat="46.57343" lon="6.10596">
        <ele>1289.75</ele>
        <time>2012-05-25T13:28:12Z</time>
      </trkpt>
      <trkpt lat="46.57343" lon="6.10593">
        <ele>1293.11</ele>
        <time>2012-05-25T13:28:17Z</time>
      </trkpt>
      <trkpt lat="46.57345" lon="6.10589">
        <ele>1289.75</ele>
        <time>2012-05-25T13:28:23Z</time>
      </trkpt>
      <trkpt lat="46.57348" lon="6.1058">
        <ele>1292.15</ele>
        <time>2012-05-25T13:28:36Z</time>
      </trkpt>
      <trkpt lat="46.57348" lon="6.10576">
        <ele>1292.63</ele>
        <time>2012-05-25T13:28:53Z</time>
      </trkpt>
      <trkpt lat="46.57348" lon="6.10574">
        <ele>1292.15</ele>
        <time>2012-05-25T13:28:54Z</time>
      </trkpt>
      <trkpt lat="46.57347" lon="6.10571">
        <ele>1293.11</ele>
        <time>2012-05-25T13:28:55Z</time>
      </trkpt>
      <trkpt lat="46.57345" lon="6.1057">
        <ele>1293.11</ele>
        <time>2012-05-25T13:28:56Z</time>
      </trkpt>
      <trkpt lat="46.57341" lon="6.10558">
        <ele>1294.07</ele>
        <time>2012-05-25T13:29:06Z</time>
      </trkpt>
      <trkpt lat="46.57334" lon="6.10549">
        <ele>1294.55</ele>
        <time>2012-05-25T13:29:13Z</time>
      </trkpt>
      <trkpt lat="46.5733" lon="6.10537">
        <ele>1296.48</ele>
        <time>2012-05-25T13:29:26Z</time>
      </trkpt>
      <trkpt lat="46.57325" lon="6.10529">
        <ele>1296.48</ele>
        <time>2012-05-25T13:29:35Z</time>
      </trkpt>
      <trkpt lat="46.57317" lon="6.10518">
        <ele>1298.88</ele>
        <time>2012-05-25T13:29:48Z</time>
      </trkpt>
      <trkpt lat="46.57316" lon="6.10516">
        <ele>1298.88</ele>
        <time>2012-05-25T13:29:49Z</time>
      </trkpt>
      <trkpt lat="46.57308" lon="6.10498">
        <ele>1298.88</ele>
        <time>2012-05-25T13:29:57Z</time>
      </trkpt>
      <trkpt lat="46.573" lon="6.10469">
        <ele>1300.32</ele>
        <time>2012-05-25T13:30:06Z</time>
      </trkpt>
      <trkpt lat="46.57299" lon="6.10465">
        <ele>1298.4</ele>
        <time>2012-05-25T13:30:08Z</time>
      </trkpt>
      <trkpt lat="46.57298" lon="6.10462">
        <ele>1298.88</ele>
        <time>2012-05-25T13:30:09Z</time>
      </trkpt>
      <trkpt lat="46.57297" lon="6.10459">
        <ele>1298.4</ele>
        <time>2012-05-25T13:30:10Z</time>
      </trkpt>
      <trkpt lat="46.57296" lon="6.10457">
        <ele>1297.92</ele>
        <time>2012-05-25T13:30:11Z</time>
      </trkpt>
      <trkpt lat="46.57295" lon="6.10455">
        <ele>1298.88</ele>
        <time>2012-05-25T13:30:12Z</time>
      </trkpt>
      <trkpt lat="46.57294" lon="6.10452">
        <ele>1298.88</ele>
        <time>2012-05-25T13:30:13Z</time>
      </trkpt>
      <trkpt lat="46.57294" lon="6.10449">
        <ele>1298.88</ele>
        <time>2012-05-25T13:30:14Z</time>
      </trkpt>
      <trkpt lat="46.57291" lon="6.10443">
        <ele>1297.92</ele>
        <time>2012-05-25T13:30:18Z</time>
      </trkpt>
      <trkpt lat="46.57291" lon="6.10438">
        <ele>1296.96</ele>
        <time>2012-05-25T13:30:21Z</time>
      </trkpt>
      <trkpt lat="46.57289" lon="6.10434">
        <ele>1296.96</ele>
        <time>2012-05-25T13:30:22Z</time>
      </trkpt>
      <trkpt lat="46.57289" lon="6.10432">
        <ele>1296.96</ele>
        <time>2012-05-25T13:30:23Z</time>
      </trkpt>
      <trkpt lat="46.57288" lon="6.10431">
        <ele>1295.03</ele>
        <time>2012-05-25T13:30:24Z</time>
      </trkpt>
      <trkpt lat="46.57287" lon="6.10429">
        <ele>1294.55</ele>
        <time>2012-05-25T13:30:25Z</time>
      </trkpt>
      <trkpt lat="46.57285" lon="6.10427">
        <ele>1294.07</ele>
        <time>2012-05-25T13:30:26Z</time>
      </trkpt>
      <trkpt lat="46.57277" lon="6.10421">
        <ele>1290.71</ele>
        <time>2012-05-25T13:30:31Z</time>
      </trkpt>
      <trkpt lat="46.57275" lon="6.10419">
        <ele>1296.96</ele>
        <time>2012-05-25T13:30:32Z</time>
      </trkpt>
      <trkpt lat="46.57274" lon="6.10418">
        <ele>1292.63</ele>
        <time>2012-05-25T13:30:33Z</time>
      </trkpt>
      <trkpt lat="46.57269" lon="6.10415">
        <ele>1288.78</ele>
        <time>2012-05-25T13:30:36Z</time>
      </trkpt>
      <trkpt lat="46.57263" lon="6.10415">
        <ele>1292.15</ele>
        <time>2012-05-25T13:30:39Z</time>
      </trkpt>
      <trkpt lat="46.57261" lon="6.10415">
        <ele>1291.67</ele>
        <time>2012-05-25T13:30:40Z</time>
      </trkpt>
      <trkpt lat="46.57259" lon="6.10414">
        <ele>1290.71</ele>
        <time>2012-05-25T13:30:41Z</time>
      </trkpt>
      <trkpt lat="46.57252" lon="6.10412">
        <ele>1289.27</ele>
        <time>2012-05-25T13:30:43Z</time>
      </trkpt>
      <trkpt lat="46.57231" lon="6.10407">
        <ele>1289.75</ele>
        <time>2012-05-25T13:30:50Z</time>
      </trkpt>
      <trkpt lat="46.57228" lon="6.10407">
        <ele>1288.78</ele>
        <time>2012-05-25T13:30:51Z</time>
      </trkpt>
      <trkpt lat="46.57226" lon="6.10406">
        <ele>1289.27</ele>
        <time>2012-05-25T13:30:52Z</time>
      </trkpt>
      <trkpt lat="46.57224" lon="6.10405">
        <ele>1290.23</ele>
        <time>2012-05-25T13:30:53Z</time>
      </trkpt>
      <trkpt lat="46.57222" lon="6.10404">
        <ele>1289.27</ele>
        <time>2012-05-25T13:30:54Z</time>
      </trkpt>
      <trkpt lat="46.5722" lon="6.10403">
        <ele>1288.78</ele>
        <time>2012-05-25T13:30:55Z</time>
      </trkpt>
      <trkpt lat="46.57195" lon="6.10392">
        <ele>1285.42</ele>
        <time>2012-05-25T13:31:04Z</time>
      </trkpt>
      <trkpt lat="46.5718" lon="6.10381">
        <ele>1284.46</ele>
        <time>2012-05-25T13:31:13Z</time>
      </trkpt>
      <trkpt lat="46.57168" lon="6.10378">
        <ele>1280.61</ele>
        <time>2012-05-25T13:31:19Z</time>
      </trkpt>
      <trkpt lat="46.57145" lon="6.10378">
        <ele>1277.25</ele>
        <time>2012-05-25T13:31:29Z</time>
      </trkpt>
      <trkpt lat="46.5714" lon="6.10378">
        <ele>1279.17</ele>
        <time>2012-05-25T13:31:31Z</time>
      </trkpt>
      <trkpt lat="46.57136" lon="6.10378">
        <ele>1281.09</ele>
        <time>2012-05-25T13:31:34Z</time>
      </trkpt>
      <trkpt lat="46.57132" lon="6.10375">
        <ele>1283.5</ele>
        <time>2012-05-25T13:31:47Z</time>
      </trkpt>
      <trkpt lat="46.57131" lon="6.10373">
        <ele>1283.5</ele>
        <time>2012-05-25T13:31:50Z</time>
      </trkpt>
      <trkpt lat="46.57121" lon="6.10366">
        <ele>1284.94</ele>
        <time>2012-05-25T13:32:01Z</time>
      </trkpt>
      <trkpt lat="46.57117" lon="6.10364">
        <ele>1283.98</ele>
        <time>2012-05-25T13:32:05Z</time>
      </trkpt>
      <trkpt lat="46.57101" lon="6.10358">
        <ele>1284.46</ele>
        <time>2012-05-25T13:32:10Z</time>
      </trkpt>
      <trkpt lat="46.57096" lon="6.10358">
        <ele>1282.54</ele>
        <time>2012-05-25T13:32:11Z</time>
      </trkpt>
      <trkpt lat="46.57091" lon="6.10359">
        <ele>1282.54</ele>
        <time>2012-05-25T13:32:12Z</time>
      </trkpt>
      <trkpt lat="46.57087" lon="6.1036">
        <ele>1282.06</ele>
        <time>2012-05-25T13:32:13Z</time>
      </trkpt>
      <trkpt lat="46.57084" lon="6.10361">
        <ele>1283.02</ele>
        <time>2012-05-25T13:32:14Z</time>
      </trkpt>
      <trkpt lat="46.57072" lon="6.10364">
        <ele>1284.46</ele>
        <time>2012-05-25T13:32:23Z</time>
      </trkpt>
      <trkpt lat="46.57065" lon="6.10366">
        <ele>1284.94</ele>
        <time>2012-05-25T13:32:27Z</time>
      </trkpt>
      <trkpt lat="46.57064" lon="6.10365">
        <ele>1286.38</ele>
        <time>2012-05-25T13:32:28Z</time>
      </trkpt>
      <trkpt lat="46.57062" lon="6.10363">
        <ele>1285.9</ele>
        <time>2012-05-25T13:32:30Z</time>
      </trkpt>
      <trkpt lat="46.57061" lon="6.10362">
        <ele>1287.34</ele>
        <time>2012-05-25T13:32:31Z</time>
      </trkpt>
      <trkpt lat="46.57059" lon="6.10357">
        <ele>1289.27</ele>
        <time>2012-05-25T13:32:35Z</time>
      </trkpt>
      <trkpt lat="46.57058" lon="6.10354">
        <ele>1288.3</ele>
        <time>2012-05-25T13:32:36Z</time>
      </trkpt>
      <trkpt lat="46.57058" lon="6.10352">
        <ele>1288.78</ele>
        <time>2012-05-25T13:32:37Z</time>
      </trkpt>
      <trkpt lat="46.57057" lon="6.1035">
        <ele>1289.27</ele>
        <time>2012-05-25T13:32:38Z</time>
      </trkpt>
      <trkpt lat="46.57044" lon="6.10329">
        <ele>1289.75</ele>
        <time>2012-05-25T13:32:49Z</time>
      </trkpt>
      <trkpt lat="46.57044" lon="6.10327">
        <ele>1290.23</ele>
        <time>2012-05-25T13:32:50Z</time>
      </trkpt>
      <trkpt lat="46.57043" lon="6.10325">
        <ele>1289.27</ele>
        <time>2012-05-25T13:32:51Z</time>
      </trkpt>
      <trkpt lat="46.57042" lon="6.10322">
        <ele>1290.23</ele>
        <time>2012-05-25T13:32:52Z</time>
      </trkpt>
      <trkpt lat="46.57041" lon="6.1032">
        <ele>1289.75</ele>
        <time>2012-05-25T13:32:53Z</time>
      </trkpt>
      <trkpt lat="46.57039" lon="6.10318">
        <ele>1291.19</ele>
        <time>2012-05-25T13:32:54Z</time>
      </trkpt>
      <trkpt lat="46.57038" lon="6.10317">
        <ele>1290.23</ele>
        <time>2012-05-25T13:32:55Z</time>
      </trkpt>
      <trkpt lat="46.57036" lon="6.10316">
        <ele>1291.19</ele>
        <time>2012-05-25T13:32:56Z</time>
      </trkpt>
      <trkpt lat="46.57035" lon="6.10315">
        <ele>1291.19</ele>
        <time>2012-05-25T13:32:57Z</time>
      </trkpt>
      <trkpt lat="46.57033" lon="6.10314">
        <ele>1291.19</ele>
        <time>2012-05-25T13:32:58Z</time>
      </trkpt>
      <trkpt lat="46.57007" lon="6.103">
        <ele>1290.23</ele>
        <time>2012-05-25T13:33:10Z</time>
      </trkpt>
      <trkpt lat="46.56992" lon="6.10295">
        <ele>1290.71</ele>
        <time>2012-05-25T13:33:15Z</time>
      </trkpt>
      <trkpt lat="46.5699" lon="6.10292">
        <ele>1291.19</ele>
        <time>2012-05-25T13:33:16Z</time>
      </trkpt>
      <trkpt lat="46.56989" lon="6.1029">
        <ele>1290.71</ele>
        <time>2012-05-25T13:33:17Z</time>
      </trkpt>
      <trkpt lat="46.56987" lon="6.10289">
        <ele>1290.71</ele>
        <time>2012-05-25T13:33:18Z</time>
      </trkpt>
      <trkpt lat="46.56985" lon="6.10287">
        <ele>1290.71</ele>
        <time>2012-05-25T13:33:19Z</time>
      </trkpt>
      <trkpt lat="46.56984" lon="6.10285">
        <ele>1289.27</ele>
        <time>2012-05-25T13:33:20Z</time>
      </trkpt>
      <trkpt lat="46.56982" lon="6.10283">
        <ele>1289.27</ele>
        <time>2012-05-25T13:33:21Z</time>
      </trkpt>
      <trkpt lat="46.5698" lon="6.10282">
        <ele>1290.23</ele>
        <time>2012-05-25T13:33:22Z</time>
      </trkpt>
      <trkpt lat="46.56977" lon="6.10282">
        <ele>1289.75</ele>
        <time>2012-05-25T13:33:23Z</time>
      </trkpt>
      <trkpt lat="46.56972" lon="6.10281">
        <ele>1288.3</ele>
        <time>2012-05-25T13:33:24Z</time>
      </trkpt>
      <trkpt lat="46.56967" lon="6.1028">
        <ele>1286.86</ele>
        <time>2012-05-25T13:33:25Z</time>
      </trkpt>
      <trkpt lat="46.56961" lon="6.10277">
        <ele>1286.86</ele>
        <time>2012-05-25T13:33:26Z</time>
      </trkpt>
      <trkpt lat="46.56957" lon="6.10275">
        <ele>1286.86</ele>
        <time>2012-05-25T13:33:27Z</time>
      </trkpt>
      <trkpt lat="46.56954" lon="6.10273">
        <ele>1281.57</ele>
        <time>2012-05-25T13:33:28Z</time>
      </trkpt>
      <trkpt lat="46.56952" lon="6.10272">
        <ele>1286.38</ele>
        <time>2012-05-25T13:33:29Z</time>
      </trkpt>
      <trkpt lat="46.5695" lon="6.1027">
        <ele>1284.46</ele>
        <time>2012-05-25T13:33:30Z</time>
      </trkpt>
      <trkpt lat="46.56947" lon="6.10269">
        <ele>1284.46</ele>
        <time>2012-05-25T13:33:31Z</time>
      </trkpt>
      <trkpt lat="46.56945" lon="6.10268">
        <ele>1285.42</ele>
        <time>2012-05-25T13:33:32Z</time>
      </trkpt>
      <trkpt lat="46.56941" lon="6.10266">
        <ele>1283.02</ele>
        <time>2012-05-25T13:33:33Z</time>
      </trkpt>
      <trkpt lat="46.56936" lon="6.10265">
        <ele>1281.57</ele>
        <time>2012-05-25T13:33:34Z</time>
      </trkpt>
      <trkpt lat="46.56923" lon="6.10263">
        <ele>1279.17</ele>
        <time>2012-05-25T13:33:36Z</time>
      </trkpt>
      <trkpt lat="46.56917" lon="6.10258">
        <ele>1279.17</ele>
        <time>2012-05-25T13:33:37Z</time>
      </trkpt>
      <trkpt lat="46.56899" lon="6.10229">
        <ele>1281.57</ele>
        <time>2012-05-25T13:33:44Z</time>
      </trkpt>
      <trkpt lat="46.56893" lon="6.10212">
        <ele>1283.02</ele>
        <time>2012-05-25T13:33:50Z</time>
      </trkpt>
      <trkpt lat="46.56891" lon="6.10209">
        <ele>1282.54</ele>
        <time>2012-05-25T13:33:51Z</time>
      </trkpt>
      <trkpt lat="46.5689" lon="6.10207">
        <ele>1281.09</ele>
        <time>2012-05-25T13:33:52Z</time>
      </trkpt>
      <trkpt lat="46.56885" lon="6.10189">
        <ele>1283.98</ele>
        <time>2012-05-25T13:33:58Z</time>
      </trkpt>
      <trkpt lat="46.56864" lon="6.1016">
        <ele>1283.5</ele>
        <time>2012-05-25T13:34:10Z</time>
      </trkpt>
      <trkpt lat="46.56849" lon="6.1014">
        <ele>1283.02</ele>
        <time>2012-05-25T13:34:16Z</time>
      </trkpt>
      <trkpt lat="46.56845" lon="6.10132">
        <ele>1283.98</ele>
        <time>2012-05-25T13:34:18Z</time>
      </trkpt>
      <trkpt lat="46.56842" lon="6.1013">
        <ele>1283.98</ele>
        <time>2012-05-25T13:34:19Z</time>
      </trkpt>
      <trkpt lat="46.56839" lon="6.10128">
        <ele>1283.5</ele>
        <time>2012-05-25T13:34:20Z</time>
      </trkpt>
      <trkpt lat="46.56836" lon="6.10125">
        <ele>1283.02</ele>
        <time>2012-05-25T13:34:21Z</time>
      </trkpt>
      <trkpt lat="46.56833" lon="6.10123">
        <ele>1283.98</ele>
        <time>2012-05-25T13:34:22Z</time>
      </trkpt>
      <trkpt lat="46.56825" lon="6.10102">
        <ele>1283.5</ele>
        <time>2012-05-25T13:34:27Z</time>
      </trkpt>
      <trkpt lat="46.56824" lon="6.10098">
        <ele>1284.46</ele>
        <time>2012-05-25T13:34:28Z</time>
      </trkpt>
      <trkpt lat="46.56824" lon="6.10094">
        <ele>1282.54</ele>
        <time>2012-05-25T13:34:29Z</time>
      </trkpt>
      <trkpt lat="46.56824" lon="6.1009">
        <ele>1283.98</ele>
        <time>2012-05-25T13:34:30Z</time>
      </trkpt>
      <trkpt lat="46.56824" lon="6.10087">
        <ele>1284.46</ele>
        <time>2012-05-25T13:34:31Z</time>
      </trkpt>
      <trkpt lat="46.56823" lon="6.10084">
        <ele>1284.94</ele>
        <time>2012-05-25T13:34:32Z</time>
      </trkpt>
      <trkpt lat="46.56823" lon="6.10081">
        <ele>1284.94</ele>
        <time>2012-05-25T13:34:33Z</time>
      </trkpt>
      <trkpt lat="46.56823" lon="6.10076">
        <ele>1283.98</ele>
        <time>2012-05-25T13:34:34Z</time>
      </trkpt>
      <trkpt lat="46.5682" lon="6.10068">
        <ele>1283.5</ele>
        <time>2012-05-25T13:34:36Z</time>
      </trkpt>
      <trkpt lat="46.56796" lon="6.10039">
        <ele>1285.42</ele>
        <time>2012-05-25T13:34:46Z</time>
      </trkpt>
      <trkpt lat="46.56789" lon="6.10035">
        <ele>1282.06</ele>
        <time>2012-05-25T13:34:48Z</time>
      </trkpt>
      <trkpt lat="46.56776" lon="6.10025">
        <ele>1282.54</ele>
        <time>2012-05-25T13:34:56Z</time>
      </trkpt>
      <trkpt lat="46.56776" lon="6.10025">
        <ele>1283.5</ele>
        <time>2012-05-25T13:35:05Z</time>
      </trkpt>
      <trkpt lat="46.56774" lon="6.10024">
        <ele>1283.02</ele>
        <time>2012-05-25T13:35:07Z</time>
      </trkpt>
      <trkpt lat="46.56773" lon="6.10024">
        <ele>1281.09</ele>
        <time>2012-05-25T13:35:08Z</time>
      </trkpt>
      <trkpt lat="46.56746" lon="6.10013">
        <ele>1280.13</ele>
        <time>2012-05-25T13:35:16Z</time>
      </trkpt>
      <trkpt lat="46.56725" lon="6.10004">
        <ele>1276.77</ele>
        <time>2012-05-25T13:35:24Z</time>
      </trkpt>
      <trkpt lat="46.56712" lon="6.09998">
        <ele>1275.81</ele>
        <time>2012-05-25T13:35:28Z</time>
      </trkpt>
      <trkpt lat="46.56709" lon="6.09998">
        <ele>1274.85</ele>
        <time>2012-05-25T13:35:29Z</time>
      </trkpt>
      <trkpt lat="46.56682" lon="6.09992">
        <ele>1274.85</ele>
        <time>2012-05-25T13:35:41Z</time>
      </trkpt>
      <trkpt lat="46.56677" lon="6.09994">
        <ele>1277.25</ele>
        <time>2012-05-25T13:35:44Z</time>
      </trkpt>
      <trkpt lat="46.56676" lon="6.09995">
        <ele>1276.29</ele>
        <time>2012-05-25T13:35:45Z</time>
      </trkpt>
      <trkpt lat="46.56675" lon="6.09997">
        <ele>1277.73</ele>
        <time>2012-05-25T13:35:46Z</time>
      </trkpt>
      <trkpt lat="46.56673" lon="6.09999">
        <ele>1278.69</ele>
        <time>2012-05-25T13:35:47Z</time>
      </trkpt>
      <trkpt lat="46.56672" lon="6.10001">
        <ele>1277.25</ele>
        <time>2012-05-25T13:35:48Z</time>
      </trkpt>
      <trkpt lat="46.56671" lon="6.10003">
        <ele>1277.73</ele>
        <time>2012-05-25T13:35:49Z</time>
      </trkpt>
      <trkpt lat="46.56669" lon="6.10005">
        <ele>1277.25</ele>
        <time>2012-05-25T13:35:50Z</time>
      </trkpt>
      <trkpt lat="46.56668" lon="6.10008">
        <ele>1278.69</ele>
        <time>2012-05-25T13:35:51Z</time>
      </trkpt>
      <trkpt lat="46.56668" lon="6.1001">
        <ele>1277.25</ele>
        <time>2012-05-25T13:35:52Z</time>
      </trkpt>
      <trkpt lat="46.56667" lon="6.10011">
        <ele>1277.25</ele>
        <time>2012-05-25T13:35:53Z</time>
      </trkpt>
      <trkpt lat="46.56665" lon="6.10013">
        <ele>1278.21</ele>
        <time>2012-05-25T13:35:54Z</time>
      </trkpt>
      <trkpt lat="46.56663" lon="6.10015">
        <ele>1278.69</ele>
        <time>2012-05-25T13:35:55Z</time>
      </trkpt>
      <trkpt lat="46.56662" lon="6.10016">
        <ele>1277.25</ele>
        <time>2012-05-25T13:35:56Z</time>
      </trkpt>
      <trkpt lat="46.56654" lon="6.10027">
        <ele>1281.09</ele>
        <time>2012-05-25T13:36:03Z</time>
      </trkpt>
      <trkpt lat="46.56652" lon="6.10032">
        <ele>1279.65</ele>
        <time>2012-05-25T13:36:06Z</time>
      </trkpt>
      <trkpt lat="46.5665" lon="6.1004">
        <ele>1283.02</ele>
        <time>2012-05-25T13:36:16Z</time>
      </trkpt>
      <trkpt lat="46.56649" lon="6.10045">
        <ele>1281.57</ele>
        <time>2012-05-25T13:36:19Z</time>
      </trkpt>
      <trkpt lat="46.56649" lon="6.10056">
        <ele>1284.46</ele>
        <time>2012-05-25T13:36:30Z</time>
      </trkpt>
      <trkpt lat="46.5665" lon="6.10064">
        <ele>1285.9</ele>
        <time>2012-05-25T13:36:40Z</time>
      </trkpt>
      <trkpt lat="46.56649" lon="6.10083">
        <ele>1288.3</ele>
        <time>2012-05-25T13:36:53Z</time>
      </trkpt>
      <trkpt lat="46.56648" lon="6.10099">
        <ele>1289.27</ele>
        <time>2012-05-25T13:37:05Z</time>
      </trkpt>
      <trkpt lat="46.56638" lon="6.1011">
        <ele>1289.27</ele>
        <time>2012-05-25T13:37:16Z</time>
      </trkpt>
      <trkpt lat="46.56635" lon="6.10112">
        <ele>1291.19</ele>
        <time>2012-05-25T13:37:19Z</time>
      </trkpt>
      <trkpt lat="46.56632" lon="6.10115">
        <ele>1292.63</ele>
        <time>2012-05-25T13:37:22Z</time>
      </trkpt>
      <trkpt lat="46.56621" lon="6.10117">
        <ele>1294.07</ele>
        <time>2012-05-25T13:37:37Z</time>
      </trkpt>
      <trkpt lat="46.56617" lon="6.1011">
        <ele>1295.51</ele>
        <time>2012-05-25T13:37:47Z</time>
      </trkpt>
      <trkpt lat="46.56616" lon="6.10108">
        <ele>1295.99</ele>
        <time>2012-05-25T13:37:48Z</time>
      </trkpt>
      <trkpt lat="46.56616" lon="6.10106">
        <ele>1295.03</ele>
        <time>2012-05-25T13:37:49Z</time>
      </trkpt>
      <trkpt lat="46.56614" lon="6.10092">
        <ele>1296.96</ele>
        <time>2012-05-25T13:37:59Z</time>
      </trkpt>
      <trkpt lat="46.56611" lon="6.10079">
        <ele>1297.92</ele>
        <time>2012-05-25T13:38:10Z</time>
      </trkpt>
      <trkpt lat="46.56608" lon="6.10066">
        <ele>1298.88</ele>
        <time>2012-05-25T13:38:19Z</time>
      </trkpt>
      <trkpt lat="46.566" lon="6.10057">
        <ele>1300.8</ele>
        <time>2012-05-25T13:38:30Z</time>
      </trkpt>
      <trkpt lat="46.56591" lon="6.10055">
        <ele>1303.2</ele>
        <time>2012-05-25T13:38:43Z</time>
      </trkpt>
      <trkpt lat="46.56588" lon="6.10055">
        <ele>1303.2</ele>
        <time>2012-05-25T13:38:46Z</time>
      </trkpt>
      <trkpt lat="46.56585" lon="6.10056">
        <ele>1303.2</ele>
        <time>2012-05-25T13:39:02Z</time>
      </trkpt>
      <trkpt lat="46.56585" lon="6.10055">
        <ele>1302.72</ele>
        <time>2012-05-25T13:40:23Z</time>
      </trkpt>
      <trkpt lat="46.56585" lon="6.10055">
        <ele>1302.72</ele>
        <time>2012-05-25T13:40:28Z</time>
      </trkpt>
      <trkpt lat="46.56584" lon="6.10055">
        <ele>1302.72</ele>
        <time>2012-05-25T13:40:57Z</time>
      </trkpt>
      <trkpt lat="46.56584" lon="6.10055">
        <ele>1304.17</ele>
        <time>2012-05-25T13:41:03Z</time>
      </trkpt>
      <trkpt lat="46.56584" lon="6.10055">
        <ele>1302.72</ele>
        <time>2012-05-25T13:41:21Z</time>
      </trkpt>
      <trkpt lat="46.56571" lon="6.10059">
        <ele>1303.69</ele>
        <time>2012-05-25T13:44:53Z</time>
      </trkpt>
      <trkpt lat="46.56569" lon="6.10059">
        <ele>1304.17</ele>
        <time>2012-05-25T13:44:54Z</time>
      </trkpt>
      <trkpt lat="46.56552" lon="6.10073">
        <ele>1304.65</ele>
        <time>2012-05-25T13:45:04Z</time>
      </trkpt>
      <trkpt lat="46.56542" lon="6.10079">
        <ele>1305.13</ele>
        <time>2012-05-25T13:45:08Z</time>
      </trkpt>
      <trkpt lat="46.56533" lon="6.10084">
        <ele>1303.69</ele>
        <time>2012-05-25T13:45:11Z</time>
      </trkpt>
      <trkpt lat="46.56519" lon="6.10068">
        <ele>1303.2</ele>
        <time>2012-05-25T13:45:18Z</time>
      </trkpt>
      <trkpt lat="46.56518" lon="6.10059">
        <ele>1301.76</ele>
        <time>2012-05-25T13:45:20Z</time>
      </trkpt>
      <trkpt lat="46.56497" lon="6.10035">
        <ele>1300.8</ele>
        <time>2012-05-25T13:45:29Z</time>
      </trkpt>
      <trkpt lat="46.56484" lon="6.10037">
        <ele>1301.76</ele>
        <time>2012-05-25T13:45:33Z</time>
      </trkpt>
      <trkpt lat="46.56456" lon="6.10065">
        <ele>1298.4</ele>
        <time>2012-05-25T13:45:45Z</time>
      </trkpt>
      <trkpt lat="46.56454" lon="6.10067">
        <ele>1297.92</ele>
        <time>2012-05-25T13:45:46Z</time>
      </trkpt>
      <trkpt lat="46.56448" lon="6.10073">
        <ele>1296.96</ele>
        <time>2012-05-25T13:45:48Z</time>
      </trkpt>
      <trkpt lat="46.56445" lon="6.10083">
        <ele>1295.51</ele>
        <time>2012-05-25T13:45:50Z</time>
      </trkpt>
      <trkpt lat="46.56442" lon="6.10096">
        <ele>1294.55</ele>
        <time>2012-05-25T13:45:52Z</time>
      </trkpt>
      <trkpt lat="46.56442" lon="6.10156">
        <ele>1290.71</ele>
        <time>2012-05-25T13:46:01Z</time>
      </trkpt>
      <trkpt lat="46.56443" lon="6.10176">
        <ele>1291.19</ele>
        <time>2012-05-25T13:46:04Z</time>
      </trkpt>
      <trkpt lat="46.56442" lon="6.1018">
        <ele>1289.75</ele>
        <time>2012-05-25T13:46:05Z</time>
      </trkpt>
      <trkpt lat="46.56439" lon="6.10184">
        <ele>1289.27</ele>
        <time>2012-05-25T13:46:06Z</time>
      </trkpt>
      <trkpt lat="46.56428" lon="6.10192">
        <ele>1286.86</ele>
        <time>2012-05-25T13:46:10Z</time>
      </trkpt>
      <trkpt lat="46.56413" lon="6.10211">
        <ele>1284.94</ele>
        <time>2012-05-25T13:46:15Z</time>
      </trkpt>
      <trkpt lat="46.56411" lon="6.10216">
        <ele>1283.02</ele>
        <time>2012-05-25T13:46:16Z</time>
      </trkpt>
      <trkpt lat="46.56406" lon="6.10227">
        <ele>1282.54</ele>
        <time>2012-05-25T13:46:18Z</time>
      </trkpt>
      <trkpt lat="46.56401" lon="6.10242">
        <ele>1280.61</ele>
        <time>2012-05-25T13:46:21Z</time>
      </trkpt>
      <trkpt lat="46.56399" lon="6.10246">
        <ele>1279.65</ele>
        <time>2012-05-25T13:46:22Z</time>
      </trkpt>
      <trkpt lat="46.56385" lon="6.10265">
        <ele>1276.77</ele>
        <time>2012-05-25T13:46:26Z</time>
      </trkpt>
      <trkpt lat="46.56366" lon="6.10279">
        <ele>1276.77</ele>
        <time>2012-05-25T13:46:29Z</time>
      </trkpt>
      <trkpt lat="46.5636" lon="6.10282">
        <ele>1275.33</ele>
        <time>2012-05-25T13:46:30Z</time>
      </trkpt>
      <trkpt lat="46.56354" lon="6.10283">
        <ele>1275.81</ele>
        <time>2012-05-25T13:46:31Z</time>
      </trkpt>
      <trkpt lat="46.5635" lon="6.10283">
        <ele>1275.33</ele>
        <time>2012-05-25T13:46:32Z</time>
      </trkpt>
      <trkpt lat="46.56347" lon="6.10284">
        <ele>1276.29</ele>
        <time>2012-05-25T13:46:33Z</time>
      </trkpt>
      <trkpt lat="46.56344" lon="6.10283">
        <ele>1281.09</ele>
        <time>2012-05-25T13:46:34Z</time>
      </trkpt>
      <trkpt lat="46.56342" lon="6.10283">
        <ele>1277.25</ele>
        <time>2012-05-25T13:46:35Z</time>
      </trkpt>
      <trkpt lat="46.5634" lon="6.10282">
        <ele>1276.29</ele>
        <time>2012-05-25T13:46:36Z</time>
      </trkpt>
      <trkpt lat="46.56337" lon="6.10282">
        <ele>1276.29</ele>
        <time>2012-05-25T13:46:37Z</time>
      </trkpt>
      <trkpt lat="46.56335" lon="6.1028">
        <ele>1275.81</ele>
        <time>2012-05-25T13:46:38Z</time>
      </trkpt>
      <trkpt lat="46.56334" lon="6.10278">
        <ele>1276.77</ele>
        <time>2012-05-25T13:46:39Z</time>
      </trkpt>
      <trkpt lat="46.56332" lon="6.10275">
        <ele>1276.77</ele>
        <time>2012-05-25T13:46:40Z</time>
      </trkpt>
      <trkpt lat="46.5633" lon="6.10274">
        <ele>1276.77</ele>
        <time>2012-05-25T13:46:41Z</time>
      </trkpt>
      <trkpt lat="46.56328" lon="6.10272">
        <ele>1275.81</ele>
        <time>2012-05-25T13:46:42Z</time>
      </trkpt>
      <trkpt lat="46.56326" lon="6.1027">
        <ele>1276.29</ele>
        <time>2012-05-25T13:46:43Z</time>
      </trkpt>
      <trkpt lat="46.56323" lon="6.10268">
        <ele>1276.29</ele>
        <time>2012-05-25T13:46:44Z</time>
      </trkpt>
      <trkpt lat="46.56317" lon="6.10262">
        <ele>1275.81</ele>
        <time>2012-05-25T13:46:46Z</time>
      </trkpt>
      <trkpt lat="46.56302" lon="6.10254">
        <ele>1275.81</ele>
        <time>2012-05-25T13:46:49Z</time>
      </trkpt>
      <trkpt lat="46.56283" lon="6.10249">
        <ele>1274.36</ele>
        <time>2012-05-25T13:46:52Z</time>
      </trkpt>
      <trkpt lat="46.56271" lon="6.10247">
        <ele>1272.44</ele>
        <time>2012-05-25T13:46:54Z</time>
      </trkpt>
      <trkpt lat="46.56264" lon="6.10248">
        <ele>1273.4</ele>
        <time>2012-05-25T13:46:55Z</time>
      </trkpt>
      <trkpt lat="46.56258" lon="6.10249">
        <ele>1271.48</ele>
        <time>2012-05-25T13:46:56Z</time>
      </trkpt>
      <trkpt lat="46.56251" lon="6.10251">
        <ele>1269.56</ele>
        <time>2012-05-25T13:46:57Z</time>
      </trkpt>
      <trkpt lat="46.56244" lon="6.10251">
        <ele>1269.08</ele>
        <time>2012-05-25T13:46:58Z</time>
      </trkpt>
      <trkpt lat="46.56239" lon="6.10248">
        <ele>1269.56</ele>
        <time>2012-05-25T13:46:59Z</time>
      </trkpt>
      <trkpt lat="46.56234" lon="6.10244">
        <ele>1269.56</ele>
        <time>2012-05-25T13:47:00Z</time>
      </trkpt>
      <trkpt lat="46.5623" lon="6.10239">
        <ele>1269.08</ele>
        <time>2012-05-25T13:47:01Z</time>
      </trkpt>
      <trkpt lat="46.56198" lon="6.10203">
        <ele>1265.71</ele>
        <time>2012-05-25T13:47:06Z</time>
      </trkpt>
      <trkpt lat="46.5619" lon="6.10196">
        <ele>1264.75</ele>
        <time>2012-05-25T13:47:07Z</time>
      </trkpt>
      <trkpt lat="46.56164" lon="6.10174">
        <ele>1261.39</ele>
        <time>2012-05-25T13:47:10Z</time>
      </trkpt>
      <trkpt lat="46.56156" lon="6.10163">
        <ele>1262.35</ele>
        <time>2012-05-25T13:47:11Z</time>
      </trkpt>
      <trkpt lat="46.5615" lon="6.10152">
        <ele>1261.39</ele>
        <time>2012-05-25T13:47:12Z</time>
      </trkpt>
      <trkpt lat="46.56145" lon="6.10142">
        <ele>1262.35</ele>
        <time>2012-05-25T13:47:13Z</time>
      </trkpt>
      <trkpt lat="46.56142" lon="6.10133">
        <ele>1261.87</ele>
        <time>2012-05-25T13:47:14Z</time>
      </trkpt>
      <trkpt lat="46.5614" lon="6.10124">
        <ele>1261.87</ele>
        <time>2012-05-25T13:47:15Z</time>
      </trkpt>
      <trkpt lat="46.56133" lon="6.10088">
        <ele>1263.31</ele>
        <time>2012-05-25T13:47:20Z</time>
      </trkpt>
      <trkpt lat="46.56127" lon="6.10068">
        <ele>1263.79</ele>
        <time>2012-05-25T13:47:23Z</time>
      </trkpt>
      <trkpt lat="46.56126" lon="6.10061">
        <ele>1263.79</ele>
        <time>2012-05-25T13:47:24Z</time>
      </trkpt>
      <trkpt lat="46.56125" lon="6.10055">
        <ele>1264.27</ele>
        <time>2012-05-25T13:47:25Z</time>
      </trkpt>
      <trkpt lat="46.56125" lon="6.10048">
        <ele>1264.75</ele>
        <time>2012-05-25T13:47:26Z</time>
      </trkpt>
      <trkpt lat="46.56124" lon="6.10042">
        <ele>1264.27</ele>
        <time>2012-05-25T13:47:27Z</time>
      </trkpt>
      <trkpt lat="46.56124" lon="6.10035">
        <ele>1265.23</ele>
        <time>2012-05-25T13:47:28Z</time>
      </trkpt>
      <trkpt lat="46.56124" lon="6.10029">
        <ele>1265.23</ele>
        <time>2012-05-25T13:47:29Z</time>
      </trkpt>
      <trkpt lat="46.56124" lon="6.10023">
        <ele>1264.75</ele>
        <time>2012-05-25T13:47:30Z</time>
      </trkpt>
      <trkpt lat="46.56124" lon="6.10017">
        <ele>1266.19</ele>
        <time>2012-05-25T13:47:31Z</time>
      </trkpt>
      <trkpt lat="46.56123" lon="6.10011">
        <ele>1266.19</ele>
        <time>2012-05-25T13:47:32Z</time>
      </trkpt>
      <trkpt lat="46.56113" lon="6.09963">
        <ele>1266.19</ele>
        <time>2012-05-25T13:47:41Z</time>
      </trkpt>
      <trkpt lat="46.56106" lon="6.09944">
        <ele>1265.71</ele>
        <time>2012-05-25T13:47:44Z</time>
      </trkpt>
      <trkpt lat="46.56101" lon="6.09937">
        <ele>1263.79</ele>
        <time>2012-05-25T13:47:45Z</time>
      </trkpt>
      <trkpt lat="46.56096" lon="6.0993">
        <ele>1263.31</ele>
        <time>2012-05-25T13:47:46Z</time>
      </trkpt>
      <trkpt lat="46.56091" lon="6.09926">
        <ele>1262.83</ele>
        <time>2012-05-25T13:47:47Z</time>
      </trkpt>
      <trkpt lat="46.56084" lon="6.09924">
        <ele>1264.27</ele>
        <time>2012-05-25T13:47:48Z</time>
      </trkpt>
      <trkpt lat="46.56062" lon="6.09918">
        <ele>1264.27</ele>
        <time>2012-05-25T13:47:53Z</time>
      </trkpt>
      <trkpt lat="46.56044" lon="6.09916">
        <ele>1264.75</ele>
        <time>2012-05-25T13:47:57Z</time>
      </trkpt>
      <trkpt lat="46.5604" lon="6.09914">
        <ele>1265.71</ele>
        <time>2012-05-25T13:47:58Z</time>
      </trkpt>
      <trkpt lat="46.56036" lon="6.0991">
        <ele>1266.67</ele>
        <time>2012-05-25T13:47:59Z</time>
      </trkpt>
      <trkpt lat="46.56033" lon="6.09905">
        <ele>1265.71</ele>
        <time>2012-05-25T13:48:00Z</time>
      </trkpt>
      <trkpt lat="46.56031" lon="6.09901">
        <ele>1266.19</ele>
        <time>2012-05-25T13:48:01Z</time>
      </trkpt>
      <trkpt lat="46.56029" lon="6.09896">
        <ele>1265.71</ele>
        <time>2012-05-25T13:48:02Z</time>
      </trkpt>
      <trkpt lat="46.56027" lon="6.09891">
        <ele>1266.67</ele>
        <time>2012-05-25T13:48:03Z</time>
      </trkpt>
      <trkpt lat="46.56016" lon="6.09856">
        <ele>1267.64</ele>
        <time>2012-05-25T13:48:09Z</time>
      </trkpt>
      <trkpt lat="46.56014" lon="6.09852">
        <ele>1268.12</ele>
        <time>2012-05-25T13:48:10Z</time>
      </trkpt>
      <trkpt lat="46.56008" lon="6.09832">
        <ele>1268.12</ele>
        <time>2012-05-25T13:48:15Z</time>
      </trkpt>
      <trkpt lat="46.56004" lon="6.09824">
        <ele>1269.08</ele>
        <time>2012-05-25T13:48:17Z</time>
      </trkpt>
      <trkpt lat="46.56001" lon="6.09815">
        <ele>1267.64</ele>
        <time>2012-05-25T13:48:19Z</time>
      </trkpt>
      <trkpt lat="46.55995" lon="6.09804">
        <ele>1266.67</ele>
        <time>2012-05-25T13:48:21Z</time>
      </trkpt>
      <trkpt lat="46.55968" lon="6.09769">
        <ele>1263.79</ele>
        <time>2012-05-25T13:48:27Z</time>
      </trkpt>
      <trkpt lat="46.55962" lon="6.09765">
        <ele>1263.79</ele>
        <time>2012-05-25T13:48:28Z</time>
      </trkpt>
      <trkpt lat="46.55957" lon="6.09762">
        <ele>1263.31</ele>
        <time>2012-05-25T13:48:29Z</time>
      </trkpt>
      <trkpt lat="46.55952" lon="6.0976">
        <ele>1263.31</ele>
        <time>2012-05-25T13:48:30Z</time>
      </trkpt>
      <trkpt lat="46.55946" lon="6.09758">
        <ele>1263.79</ele>
        <time>2012-05-25T13:48:31Z</time>
      </trkpt>
      <trkpt lat="46.55941" lon="6.09757">
        <ele>1261.87</ele>
        <time>2012-05-25T13:48:32Z</time>
      </trkpt>
      <trkpt lat="46.55935" lon="6.09757">
        <ele>1261.87</ele>
        <time>2012-05-25T13:48:33Z</time>
      </trkpt>
      <trkpt lat="46.55923" lon="6.09757">
        <ele>1260.91</ele>
        <time>2012-05-25T13:48:35Z</time>
      </trkpt>
      <trkpt lat="46.55917" lon="6.09755">
        <ele>1259.46</ele>
        <time>2012-05-25T13:48:36Z</time>
      </trkpt>
      <trkpt lat="46.55911" lon="6.09751">
        <ele>1259.46</ele>
        <time>2012-05-25T13:48:37Z</time>
      </trkpt>
      <trkpt lat="46.55907" lon="6.09744">
        <ele>1258.5</ele>
        <time>2012-05-25T13:48:38Z</time>
      </trkpt>
      <trkpt lat="46.55903" lon="6.09736">
        <ele>1258.02</ele>
        <time>2012-05-25T13:48:39Z</time>
      </trkpt>
      <trkpt lat="46.55901" lon="6.09727">
        <ele>1256.58</ele>
        <time>2012-05-25T13:48:40Z</time>
      </trkpt>
      <trkpt lat="46.55901" lon="6.09718">
        <ele>1258.02</ele>
        <time>2012-05-25T13:48:41Z</time>
      </trkpt>
      <trkpt lat="46.55902" lon="6.09709">
        <ele>1256.58</ele>
        <time>2012-05-25T13:48:42Z</time>
      </trkpt>
      <trkpt lat="46.55904" lon="6.097">
        <ele>1255.62</ele>
        <time>2012-05-25T13:48:43Z</time>
      </trkpt>
      <trkpt lat="46.55906" lon="6.09689">
        <ele>1255.62</ele>
        <time>2012-05-25T13:48:44Z</time>
      </trkpt>
      <trkpt lat="46.55911" lon="6.09666">
        <ele>1253.7</ele>
        <time>2012-05-25T13:48:46Z</time>
      </trkpt>
      <trkpt lat="46.55912" lon="6.09654">
        <ele>1253.7</ele>
        <time>2012-05-25T13:48:47Z</time>
      </trkpt>
      <trkpt lat="46.55913" lon="6.09641">
        <ele>1253.22</ele>
        <time>2012-05-25T13:48:48Z</time>
      </trkpt>
      <trkpt lat="46.55911" lon="6.0963">
        <ele>1253.22</ele>
        <time>2012-05-25T13:48:49Z</time>
      </trkpt>
      <trkpt lat="46.55907" lon="6.09622">
        <ele>1253.7</ele>
        <time>2012-05-25T13:48:50Z</time>
      </trkpt>
      <trkpt lat="46.55902" lon="6.09615">
        <ele>1253.22</ele>
        <time>2012-05-25T13:48:51Z</time>
      </trkpt>
      <trkpt lat="46.55897" lon="6.09609">
        <ele>1252.74</ele>
        <time>2012-05-25T13:48:52Z</time>
      </trkpt>
      <trkpt lat="46.55892" lon="6.09603">
        <ele>1252.74</ele>
        <time>2012-05-25T13:48:53Z</time>
      </trkpt>
      <trkpt lat="46.55888" lon="6.09596">
        <ele>1252.25</ele>
        <time>2012-05-25T13:48:54Z</time>
      </trkpt>
      <trkpt lat="46.55884" lon="6.09589">
        <ele>1252.25</ele>
        <time>2012-05-25T13:48:55Z</time>
      </trkpt>
      <trkpt lat="46.55881" lon="6.0958">
        <ele>1252.25</ele>
        <time>2012-05-25T13:48:56Z</time>
      </trkpt>
      <trkpt lat="46.55878" lon="6.09572">
        <ele>1251.77</ele>
        <time>2012-05-25T13:48:57Z</time>
      </trkpt>
      <trkpt lat="46.55875" lon="6.09564">
        <ele>1251.29</ele>
        <time>2012-05-25T13:48:58Z</time>
      </trkpt>
      <trkpt lat="46.55871" lon="6.09556">
        <ele>1250.81</ele>
        <time>2012-05-25T13:48:59Z</time>
      </trkpt>
      <trkpt lat="46.5586" lon="6.0953">
        <ele>1249.85</ele>
        <time>2012-05-25T13:49:03Z</time>
      </trkpt>
      <trkpt lat="46.55857" lon="6.09525">
        <ele>1251.29</ele>
        <time>2012-05-25T13:49:04Z</time>
      </trkpt>
      <trkpt lat="46.55855" lon="6.09519">
        <ele>1250.81</ele>
        <time>2012-05-25T13:49:05Z</time>
      </trkpt>
      <trkpt lat="46.55852" lon="6.09513">
        <ele>1250.81</ele>
        <time>2012-05-25T13:49:06Z</time>
      </trkpt>
      <trkpt lat="46.5585" lon="6.09507">
        <ele>1250.81</ele>
        <time>2012-05-25T13:49:07Z</time>
      </trkpt>
      <trkpt lat="46.55847" lon="6.09502">
        <ele>1251.29</ele>
        <time>2012-05-25T13:49:08Z</time>
      </trkpt>
      <trkpt lat="46.55846" lon="6.09495">
        <ele>1252.25</ele>
        <time>2012-05-25T13:49:09Z</time>
      </trkpt>
      <trkpt lat="46.55846" lon="6.09488">
        <ele>1252.25</ele>
        <time>2012-05-25T13:49:10Z</time>
      </trkpt>
      <trkpt lat="46.55847" lon="6.09482">
        <ele>1253.22</ele>
        <time>2012-05-25T13:49:11Z</time>
      </trkpt>
      <trkpt lat="46.55848" lon="6.09476">
        <ele>1251.77</ele>
        <time>2012-05-25T13:49:12Z</time>
      </trkpt>
      <trkpt lat="46.55849" lon="6.09471">
        <ele>1252.25</ele>
        <time>2012-05-25T13:49:13Z</time>
      </trkpt>
      <trkpt lat="46.55851" lon="6.09467">
        <ele>1251.77</ele>
        <time>2012-05-25T13:49:14Z</time>
      </trkpt>
      <trkpt lat="46.55852" lon="6.09463">
        <ele>1252.74</ele>
        <time>2012-05-25T13:49:15Z</time>
      </trkpt>
      <trkpt lat="46.55854" lon="6.09458">
        <ele>1255.14</ele>
        <time>2012-05-25T13:49:16Z</time>
      </trkpt>
      <trkpt lat="46.55855" lon="6.09453">
        <ele>1254.66</ele>
        <time>2012-05-25T13:49:17Z</time>
      </trkpt>
      <trkpt lat="46.55856" lon="6.09448">
        <ele>1255.14</ele>
        <time>2012-05-25T13:49:18Z</time>
      </trkpt>
      <trkpt lat="46.55857" lon="6.09442">
        <ele>1254.18</ele>
        <time>2012-05-25T13:49:19Z</time>
      </trkpt>
      <trkpt lat="46.55863" lon="6.09403">
        <ele>1255.14</ele>
        <time>2012-05-25T13:49:26Z</time>
      </trkpt>
      <trkpt lat="46.55864" lon="6.09399">
        <ele>1254.18</ele>
        <time>2012-05-25T13:49:27Z</time>
      </trkpt>
      <trkpt lat="46.55865" lon="6.09394">
        <ele>1257.54</ele>
        <time>2012-05-25T13:49:28Z</time>
      </trkpt>
      <trkpt lat="46.55865" lon="6.09389">
        <ele>1255.62</ele>
        <time>2012-05-25T13:49:29Z</time>
      </trkpt>
      <trkpt lat="46.55866" lon="6.09383">
        <ele>1256.58</ele>
        <time>2012-05-25T13:49:30Z</time>
      </trkpt>
      <trkpt lat="46.55872" lon="6.09323">
        <ele>1258.98</ele>
        <time>2012-05-25T13:49:42Z</time>
      </trkpt>
      <trkpt lat="46.55875" lon="6.09266">
        <ele>1260.43</ele>
        <time>2012-05-25T13:49:54Z</time>
      </trkpt>
      <trkpt lat="46.55873" lon="6.09211">
        <ele>1263.31</ele>
        <time>2012-05-25T13:50:05Z</time>
      </trkpt>
      <trkpt lat="46.55872" lon="6.09186">
        <ele>1264.75</ele>
        <time>2012-05-25T13:50:11Z</time>
      </trkpt>
      <trkpt lat="46.55871" lon="6.09133">
        <ele>1265.71</ele>
        <time>2012-05-25T13:50:23Z</time>
      </trkpt>
      <trkpt lat="46.55875" lon="6.09093">
        <ele>1266.19</ele>
        <time>2012-05-25T13:50:34Z</time>
      </trkpt>
      <trkpt lat="46.55868" lon="6.09052">
        <ele>1267.16</ele>
        <time>2012-05-25T13:50:46Z</time>
      </trkpt>
      <trkpt lat="46.55848" lon="6.0904">
        <ele>1269.08</ele>
        <time>2012-05-25T13:50:56Z</time>
      </trkpt>
      <trkpt lat="46.55825" lon="6.09047">
        <ele>1269.08</ele>
        <time>2012-05-25T13:51:05Z</time>
      </trkpt>
      <trkpt lat="46.55802" lon="6.09056">
        <ele>1271.48</ele>
        <time>2012-05-25T13:51:15Z</time>
      </trkpt>
      <trkpt lat="46.55791" lon="6.09068">
        <ele>1272.44</ele>
        <time>2012-05-25T13:51:22Z</time>
      </trkpt>
      <trkpt lat="46.55789" lon="6.09069">
        <ele>1272.44</ele>
        <time>2012-05-25T13:51:23Z</time>
      </trkpt>
      <trkpt lat="46.55787" lon="6.0907">
        <ele>1272.92</ele>
        <time>2012-05-25T13:51:24Z</time>
      </trkpt>
      <trkpt lat="46.55785" lon="6.09071">
        <ele>1273.4</ele>
        <time>2012-05-25T13:51:25Z</time>
      </trkpt>
      <trkpt lat="46.55782" lon="6.09073">
        <ele>1272.92</ele>
        <time>2012-05-25T13:51:26Z</time>
      </trkpt>
      <trkpt lat="46.55779" lon="6.09073">
        <ele>1273.4</ele>
        <time>2012-05-25T13:51:27Z</time>
      </trkpt>
      <trkpt lat="46.55777" lon="6.09073">
        <ele>1272.92</ele>
        <time>2012-05-25T13:51:28Z</time>
      </trkpt>
      <trkpt lat="46.55775" lon="6.09073">
        <ele>1272.92</ele>
        <time>2012-05-25T13:51:29Z</time>
      </trkpt>
      <trkpt lat="46.55773" lon="6.09072">
        <ele>1272.44</ele>
        <time>2012-05-25T13:51:30Z</time>
      </trkpt>
      <trkpt lat="46.5577" lon="6.09071">
        <ele>1273.4</ele>
        <time>2012-05-25T13:51:31Z</time>
      </trkpt>
      <trkpt lat="46.55768" lon="6.09071">
        <ele>1273.88</ele>
        <time>2012-05-25T13:51:32Z</time>
      </trkpt>
      <trkpt lat="46.55765" lon="6.09069">
        <ele>1273.88</ele>
        <time>2012-05-25T13:51:33Z</time>
      </trkpt>
      <trkpt lat="46.55747" lon="6.09025">
        <ele>1272.44</ele>
        <time>2012-05-25T13:51:44Z</time>
      </trkpt>
      <trkpt lat="46.55746" lon="6.09014">
        <ele>1271.96</ele>
        <time>2012-05-25T13:51:46Z</time>
      </trkpt>
      <trkpt lat="46.55744" lon="6.09008">
        <ele>1272.44</ele>
        <time>2012-05-25T13:51:47Z</time>
      </trkpt>
      <trkpt lat="46.55742" lon="6.09001">
        <ele>1271.48</ele>
        <time>2012-05-25T13:51:48Z</time>
      </trkpt>
      <trkpt lat="46.55738" lon="6.08996">
        <ele>1270.04</ele>
        <time>2012-05-25T13:51:49Z</time>
      </trkpt>
      <trkpt lat="46.55733" lon="6.08993">
        <ele>1270.52</ele>
        <time>2012-05-25T13:51:50Z</time>
      </trkpt>
      <trkpt lat="46.55727" lon="6.08991">
        <ele>1271</ele>
        <time>2012-05-25T13:51:51Z</time>
      </trkpt>
      <trkpt lat="46.55722" lon="6.08992">
        <ele>1269.56</ele>
        <time>2012-05-25T13:51:52Z</time>
      </trkpt>
      <trkpt lat="46.55717" lon="6.08995">
        <ele>1268.12</ele>
        <time>2012-05-25T13:51:53Z</time>
      </trkpt>
      <trkpt lat="46.55712" lon="6.08999">
        <ele>1269.08</ele>
        <time>2012-05-25T13:51:54Z</time>
      </trkpt>
      <trkpt lat="46.55707" lon="6.09003">
        <ele>1268.6</ele>
        <time>2012-05-25T13:51:55Z</time>
      </trkpt>
      <trkpt lat="46.55692" lon="6.09013">
        <ele>1268.12</ele>
        <time>2012-05-25T13:51:58Z</time>
      </trkpt>
      <trkpt lat="46.55686" lon="6.09013">
        <ele>1267.16</ele>
        <time>2012-05-25T13:51:59Z</time>
      </trkpt>
      <trkpt lat="46.5568" lon="6.09012">
        <ele>1266.67</ele>
        <time>2012-05-25T13:52:00Z</time>
      </trkpt>
      <trkpt lat="46.55673" lon="6.09009">
        <ele>1266.19</ele>
        <time>2012-05-25T13:52:01Z</time>
      </trkpt>
      <trkpt lat="46.55666" lon="6.09007">
        <ele>1265.23</ele>
        <time>2012-05-25T13:52:02Z</time>
      </trkpt>
      <trkpt lat="46.55659" lon="6.09004">
        <ele>1264.27</ele>
        <time>2012-05-25T13:52:03Z</time>
      </trkpt>
      <trkpt lat="46.55644" lon="6.09001">
        <ele>1263.79</ele>
        <time>2012-05-25T13:52:05Z</time>
      </trkpt>
      <trkpt lat="46.5563" lon="6.09003">
        <ele>1262.35</ele>
        <time>2012-05-25T13:52:07Z</time>
      </trkpt>
      <trkpt lat="46.55624" lon="6.09001">
        <ele>1260.43</ele>
        <time>2012-05-25T13:52:08Z</time>
      </trkpt>
      <trkpt lat="46.55618" lon="6.08997">
        <ele>1260.91</ele>
        <time>2012-05-25T13:52:09Z</time>
      </trkpt>
      <trkpt lat="46.55612" lon="6.0899">
        <ele>1259.94</ele>
        <time>2012-05-25T13:52:10Z</time>
      </trkpt>
      <trkpt lat="46.55608" lon="6.08982">
        <ele>1258.5</ele>
        <time>2012-05-25T13:52:11Z</time>
      </trkpt>
      <trkpt lat="46.55604" lon="6.08976">
        <ele>1258.5</ele>
        <time>2012-05-25T13:52:12Z</time>
      </trkpt>
      <trkpt lat="46.55599" lon="6.08971">
        <ele>1258.5</ele>
        <time>2012-05-25T13:52:13Z</time>
      </trkpt>
      <trkpt lat="46.55594" lon="6.08967">
        <ele>1257.54</ele>
        <time>2012-05-25T13:52:14Z</time>
      </trkpt>
      <trkpt lat="46.55588" lon="6.08967">
        <ele>1256.1</ele>
        <time>2012-05-25T13:52:15Z</time>
      </trkpt>
      <trkpt lat="46.55581" lon="6.08969">
        <ele>1257.06</ele>
        <time>2012-05-25T13:52:16Z</time>
      </trkpt>
      <trkpt lat="46.55576" lon="6.08974">
        <ele>1255.62</ele>
        <time>2012-05-25T13:52:17Z</time>
      </trkpt>
      <trkpt lat="46.55572" lon="6.0898">
        <ele>1255.14</ele>
        <time>2012-05-25T13:52:18Z</time>
      </trkpt>
      <trkpt lat="46.55567" lon="6.08986">
        <ele>1254.18</ele>
        <time>2012-05-25T13:52:19Z</time>
      </trkpt>
      <trkpt lat="46.55562" lon="6.08991">
        <ele>1254.18</ele>
        <time>2012-05-25T13:52:20Z</time>
      </trkpt>
      <trkpt lat="46.55555" lon="6.08993">
        <ele>1254.18</ele>
        <time>2012-05-25T13:52:21Z</time>
      </trkpt>
      <trkpt lat="46.55549" lon="6.08994">
        <ele>1253.7</ele>
        <time>2012-05-25T13:52:22Z</time>
      </trkpt>
      <trkpt lat="46.55543" lon="6.08994">
        <ele>1252.25</ele>
        <time>2012-05-25T13:52:23Z</time>
      </trkpt>
      <trkpt lat="46.55536" lon="6.08994">
        <ele>1252.74</ele>
        <time>2012-05-25T13:52:24Z</time>
      </trkpt>
      <trkpt lat="46.5553" lon="6.08993">
        <ele>1253.22</ele>
        <time>2012-05-25T13:52:25Z</time>
      </trkpt>
      <trkpt lat="46.55524" lon="6.08993">
        <ele>1252.74</ele>
        <time>2012-05-25T13:52:26Z</time>
      </trkpt>
      <trkpt lat="46.55511" lon="6.08991">
        <ele>1251.29</ele>
        <time>2012-05-25T13:52:28Z</time>
      </trkpt>
      <trkpt lat="46.55463" lon="6.08973">
        <ele>1249.85</ele>
        <time>2012-05-25T13:52:35Z</time>
      </trkpt>
      <trkpt lat="46.55458" lon="6.08966">
        <ele>1249.37</ele>
        <time>2012-05-25T13:52:36Z</time>
      </trkpt>
      <trkpt lat="46.55455" lon="6.08957">
        <ele>1247.93</ele>
        <time>2012-05-25T13:52:37Z</time>
      </trkpt>
      <trkpt lat="46.55453" lon="6.08947">
        <ele>1247.93</ele>
        <time>2012-05-25T13:52:38Z</time>
      </trkpt>
      <trkpt lat="46.55453" lon="6.08937">
        <ele>1246.97</ele>
        <time>2012-05-25T13:52:39Z</time>
      </trkpt>
      <trkpt lat="46.55452" lon="6.08927">
        <ele>1247.93</ele>
        <time>2012-05-25T13:52:40Z</time>
      </trkpt>
      <trkpt lat="46.55451" lon="6.08918">
        <ele>1247.93</ele>
        <time>2012-05-25T13:52:41Z</time>
      </trkpt>
      <trkpt lat="46.55448" lon="6.0891">
        <ele>1247.93</ele>
        <time>2012-05-25T13:52:42Z</time>
      </trkpt>
      <trkpt lat="46.55443" lon="6.08903">
        <ele>1247.45</ele>
        <time>2012-05-25T13:52:43Z</time>
      </trkpt>
      <trkpt lat="46.55439" lon="6.08897">
        <ele>1246.01</ele>
        <time>2012-05-25T13:52:44Z</time>
      </trkpt>
      <trkpt lat="46.55435" lon="6.08892">
        <ele>1245.53</ele>
        <time>2012-05-25T13:52:45Z</time>
      </trkpt>
      <trkpt lat="46.55433" lon="6.08885">
        <ele>1246.49</ele>
        <time>2012-05-25T13:52:46Z</time>
      </trkpt>
      <trkpt lat="46.55433" lon="6.08877">
        <ele>1245.04</ele>
        <time>2012-05-25T13:52:47Z</time>
      </trkpt>
      <trkpt lat="46.55435" lon="6.08869">
        <ele>1244.56</ele>
        <time>2012-05-25T13:52:48Z</time>
      </trkpt>
      <trkpt lat="46.55439" lon="6.08862">
        <ele>1245.53</ele>
        <time>2012-05-25T13:52:49Z</time>
      </trkpt>
      <trkpt lat="46.55444" lon="6.08856">
        <ele>1245.04</ele>
        <time>2012-05-25T13:52:50Z</time>
      </trkpt>
      <trkpt lat="46.5545" lon="6.08851">
        <ele>1243.12</ele>
        <time>2012-05-25T13:52:51Z</time>
      </trkpt>
      <trkpt lat="46.55455" lon="6.08848">
        <ele>1244.56</ele>
        <time>2012-05-25T13:52:52Z</time>
      </trkpt>
      <trkpt lat="46.5546" lon="6.08844">
        <ele>1244.08</ele>
        <time>2012-05-25T13:52:53Z</time>
      </trkpt>
      <trkpt lat="46.55464" lon="6.08839">
        <ele>1243.12</ele>
        <time>2012-05-25T13:52:54Z</time>
      </trkpt>
      <trkpt lat="46.55467" lon="6.08832">
        <ele>1243.6</ele>
        <time>2012-05-25T13:52:55Z</time>
      </trkpt>
      <trkpt lat="46.55469" lon="6.08824">
        <ele>1243.12</ele>
        <time>2012-05-25T13:52:56Z</time>
      </trkpt>
      <trkpt lat="46.5547" lon="6.08816">
        <ele>1242.64</ele>
        <time>2012-05-25T13:52:57Z</time>
      </trkpt>
      <trkpt lat="46.55471" lon="6.08808">
        <ele>1242.16</ele>
        <time>2012-05-25T13:52:58Z</time>
      </trkpt>
      <trkpt lat="46.55474" lon="6.08773">
        <ele>1241.2</ele>
        <time>2012-05-25T13:53:02Z</time>
      </trkpt>
      <trkpt lat="46.55474" lon="6.08764">
        <ele>1241.68</ele>
        <time>2012-05-25T13:53:03Z</time>
      </trkpt>
      <trkpt lat="46.55475" lon="6.08756">
        <ele>1241.68</ele>
        <time>2012-05-25T13:53:04Z</time>
      </trkpt>
      <trkpt lat="46.55476" lon="6.08747">
        <ele>1240.72</ele>
        <time>2012-05-25T13:53:05Z</time>
      </trkpt>
      <trkpt lat="46.55475" lon="6.08738">
        <ele>1241.2</ele>
        <time>2012-05-25T13:53:06Z</time>
      </trkpt>
      <trkpt lat="46.55473" lon="6.0873">
        <ele>1240.24</ele>
        <time>2012-05-25T13:53:07Z</time>
      </trkpt>
      <trkpt lat="46.55471" lon="6.08722">
        <ele>1239.28</ele>
        <time>2012-05-25T13:53:08Z</time>
      </trkpt>
      <trkpt lat="46.55467" lon="6.08714">
        <ele>1238.8</ele>
        <time>2012-05-25T13:53:09Z</time>
      </trkpt>
      <trkpt lat="46.55464" lon="6.08707">
        <ele>1239.28</ele>
        <time>2012-05-25T13:53:10Z</time>
      </trkpt>
      <trkpt lat="46.55448" lon="6.0868">
        <ele>1238.32</ele>
        <time>2012-05-25T13:53:14Z</time>
      </trkpt>
      <trkpt lat="46.55446" lon="6.08671">
        <ele>1238.32</ele>
        <time>2012-05-25T13:53:15Z</time>
      </trkpt>
      <trkpt lat="46.55446" lon="6.08662">
        <ele>1237.35</ele>
        <time>2012-05-25T13:53:16Z</time>
      </trkpt>
      <trkpt lat="46.55445" lon="6.08653">
        <ele>1237.83</ele>
        <time>2012-05-25T13:53:17Z</time>
      </trkpt>
      <trkpt lat="46.55445" lon="6.08644">
        <ele>1237.83</ele>
        <time>2012-05-25T13:53:18Z</time>
      </trkpt>
      <trkpt lat="46.55444" lon="6.08636">
        <ele>1237.83</ele>
        <time>2012-05-25T13:53:19Z</time>
      </trkpt>
      <trkpt lat="46.55441" lon="6.08627">
        <ele>1237.35</ele>
        <time>2012-05-25T13:53:20Z</time>
      </trkpt>
      <trkpt lat="46.55437" lon="6.08619">
        <ele>1236.87</ele>
        <time>2012-05-25T13:53:21Z</time>
      </trkpt>
      <trkpt lat="46.55433" lon="6.08612">
        <ele>1235.91</ele>
        <time>2012-05-25T13:53:22Z</time>
      </trkpt>
      <trkpt lat="46.55429" lon="6.08605">
        <ele>1234.95</ele>
        <time>2012-05-25T13:53:23Z</time>
      </trkpt>
      <trkpt lat="46.55427" lon="6.08598">
        <ele>1235.91</ele>
        <time>2012-05-25T13:53:24Z</time>
      </trkpt>
      <trkpt lat="46.55425" lon="6.08591">
        <ele>1235.91</ele>
        <time>2012-05-25T13:53:25Z</time>
      </trkpt>
      <trkpt lat="46.55425" lon="6.08584">
        <ele>1236.39</ele>
        <time>2012-05-25T13:53:26Z</time>
      </trkpt>
      <trkpt lat="46.55425" lon="6.08577">
        <ele>1234.95</ele>
        <time>2012-05-25T13:53:27Z</time>
      </trkpt>
      <trkpt lat="46.55426" lon="6.08571">
        <ele>1235.91</ele>
        <time>2012-05-25T13:53:28Z</time>
      </trkpt>
      <trkpt lat="46.55427" lon="6.08567">
        <ele>1236.39</ele>
        <time>2012-05-25T13:53:29Z</time>
      </trkpt>
      <trkpt lat="46.55428" lon="6.08558">
        <ele>1235.91</ele>
        <time>2012-05-25T13:53:38Z</time>
      </trkpt>
      <trkpt lat="46.55428" lon="6.08558">
        <ele>1234.47</ele>
        <time>2012-05-25T13:54:03Z</time>
      </trkpt>
      <trkpt lat="46.55427" lon="6.08558">
        <ele>1234.95</ele>
        <time>2012-05-25T13:54:37Z</time>
      </trkpt>
    </trkseg>
  </trk>
</gpx>